<?xml version="1.0" encoding="UTF-8" standalone="no" ?>
<gpx xmlns="http://www.topografix.com/GPX/1/1" xmlns:xsi="http://www.w3.org/2001/XMLSchema-instance" xsi:schemaLocation="http://www.topografix.com/GPX/1/1 http://www.topografix.com/GPX/1/1/gpx.xsd" version="1.1" creator="VisuGPX - https://www.visugpx.com">
  <metadata>
    <name>Gisors-Forges-Neufchatel</name>
    <desc><![CDATA[Gisors-Forges-Neufchatel
Tracé du 8 mai 2009
Sahgliers du Vexin]]></desc>
  </metadata>
  <trk>
    <name><![CDATA[Gisors-Forges-Neufchatel]]></name>
    <trkseg>
      <trkpt lat="49.28515" lon="1.78427">
        <ele>61</ele>
        <time>2009-05-08T07:32:27Z</time>
      </trkpt>
      <trkpt lat="49.2852" lon="1.78433">
        <ele>63</ele>
        <time>2009-05-08T07:33:10Z</time>
      </trkpt>
      <trkpt lat="49.28518" lon="1.78435">
        <ele>59</ele>
        <time>2009-05-08T07:34:50Z</time>
      </trkpt>
      <trkpt lat="49.28514" lon="1.78435">
        <ele>59</ele>
        <time>2009-05-08T07:34:53Z</time>
      </trkpt>
      <trkpt lat="49.28509" lon="1.7843">
        <ele>64</ele>
        <time>2009-05-08T07:35:12Z</time>
      </trkpt>
      <trkpt lat="49.28508" lon="1.78432">
        <ele>70</ele>
        <time>2009-05-08T07:36:07Z</time>
      </trkpt>
      <trkpt lat="49.28504" lon="1.78438">
        <ele>69</ele>
        <time>2009-05-08T07:39:13Z</time>
      </trkpt>
      <trkpt lat="49.28504" lon="1.78432">
        <ele>68</ele>
        <time>2009-05-08T07:40:35Z</time>
      </trkpt>
      <trkpt lat="49.28481" lon="1.78457">
        <ele>71</ele>
        <time>2009-05-08T07:40:49Z</time>
      </trkpt>
      <trkpt lat="49.28446" lon="1.78445">
        <ele>70</ele>
        <time>2009-05-08T07:40:59Z</time>
      </trkpt>
      <trkpt lat="49.28361" lon="1.78434">
        <ele>63</ele>
        <time>2009-05-08T07:41:17Z</time>
      </trkpt>
      <trkpt lat="49.28268" lon="1.7846">
        <ele>61</ele>
        <time>2009-05-08T07:41:35Z</time>
      </trkpt>
      <trkpt lat="49.2824" lon="1.78493">
        <ele>59</ele>
        <time>2009-05-08T07:41:46Z</time>
      </trkpt>
      <trkpt lat="49.28271" lon="1.7856">
        <ele>60</ele>
        <time>2009-05-08T07:42:00Z</time>
      </trkpt>
      <trkpt lat="49.28303" lon="1.78627">
        <ele>60</ele>
        <time>2009-05-08T07:42:16Z</time>
      </trkpt>
      <trkpt lat="49.28343" lon="1.78708">
        <ele>61</ele>
        <time>2009-05-08T07:42:31Z</time>
      </trkpt>
      <trkpt lat="49.2835" lon="1.7872">
        <ele>59</ele>
        <time>2009-05-08T07:42:33Z</time>
      </trkpt>
      <trkpt lat="49.28371" lon="1.7875">
        <ele>62</ele>
        <time>2009-05-08T07:42:38Z</time>
      </trkpt>
      <trkpt lat="49.28386" lon="1.78791">
        <ele>62</ele>
        <time>2009-05-08T07:42:50Z</time>
      </trkpt>
      <trkpt lat="49.28388" lon="1.78794">
        <ele>61</ele>
        <time>2009-05-08T07:42:52Z</time>
      </trkpt>
      <trkpt lat="49.28394" lon="1.78783">
        <ele>63</ele>
        <time>2009-05-08T07:42:57Z</time>
      </trkpt>
      <trkpt lat="49.28424" lon="1.78745">
        <ele>75</ele>
        <time>2009-05-08T07:43:13Z</time>
      </trkpt>
      <trkpt lat="49.28458" lon="1.78722">
        <ele>66</ele>
        <time>2009-05-08T07:43:29Z</time>
      </trkpt>
      <trkpt lat="49.28506" lon="1.78676">
        <ele>68</ele>
        <time>2009-05-08T07:43:48Z</time>
      </trkpt>
      <trkpt lat="49.28561" lon="1.78619">
        <ele>68</ele>
        <time>2009-05-08T07:44:07Z</time>
      </trkpt>
      <trkpt lat="49.28624" lon="1.78547">
        <ele>65</ele>
        <time>2009-05-08T07:44:30Z</time>
      </trkpt>
      <trkpt lat="49.28669" lon="1.78544">
        <ele>64</ele>
        <time>2009-05-08T07:44:43Z</time>
      </trkpt>
      <trkpt lat="49.28708" lon="1.7853">
        <ele>64</ele>
        <time>2009-05-08T07:44:57Z</time>
      </trkpt>
      <trkpt lat="49.28744" lon="1.78439">
        <ele>62</ele>
        <time>2009-05-08T07:45:14Z</time>
      </trkpt>
      <trkpt lat="49.28796" lon="1.78312">
        <ele>60</ele>
        <time>2009-05-08T07:45:34Z</time>
      </trkpt>
      <trkpt lat="49.28858" lon="1.78218">
        <ele>60</ele>
        <time>2009-05-08T07:45:51Z</time>
      </trkpt>
      <trkpt lat="49.28882" lon="1.78197">
        <ele>59</ele>
        <time>2009-05-08T07:45:57Z</time>
      </trkpt>
      <trkpt lat="49.28966" lon="1.78169">
        <ele>57</ele>
        <time>2009-05-08T07:46:15Z</time>
      </trkpt>
      <trkpt lat="49.29028" lon="1.78156">
        <ele>58</ele>
        <time>2009-05-08T07:46:31Z</time>
      </trkpt>
      <trkpt lat="49.29091" lon="1.78143">
        <ele>57</ele>
        <time>2009-05-08T07:46:47Z</time>
      </trkpt>
      <trkpt lat="49.29154" lon="1.78129">
        <ele>59</ele>
        <time>2009-05-08T07:47:04Z</time>
      </trkpt>
      <trkpt lat="49.29201" lon="1.7812">
        <ele>60</ele>
        <time>2009-05-08T07:47:18Z</time>
      </trkpt>
      <trkpt lat="49.29247" lon="1.78111">
        <ele>60</ele>
        <time>2009-05-08T07:47:33Z</time>
      </trkpt>
      <trkpt lat="49.29308" lon="1.78098">
        <ele>60</ele>
        <time>2009-05-08T07:47:50Z</time>
      </trkpt>
      <trkpt lat="49.29341" lon="1.78093">
        <ele>60</ele>
        <time>2009-05-08T07:48:03Z</time>
      </trkpt>
      <trkpt lat="49.2938" lon="1.78088">
        <ele>58</ele>
        <time>2009-05-08T07:48:17Z</time>
      </trkpt>
      <trkpt lat="49.29427" lon="1.78081">
        <ele>56</ele>
        <time>2009-05-08T07:48:30Z</time>
      </trkpt>
      <trkpt lat="49.29482" lon="1.78079">
        <ele>55</ele>
        <time>2009-05-08T07:48:45Z</time>
      </trkpt>
      <trkpt lat="49.29522" lon="1.78072">
        <ele>54</ele>
        <time>2009-05-08T07:48:59Z</time>
      </trkpt>
      <trkpt lat="49.29535" lon="1.78068">
        <ele>54</ele>
        <time>2009-05-08T07:49:12Z</time>
      </trkpt>
      <trkpt lat="49.2954" lon="1.78068">
        <ele>55</ele>
        <time>2009-05-08T07:51:50Z</time>
      </trkpt>
      <trkpt lat="49.29556" lon="1.78113">
        <ele>55</ele>
        <time>2009-05-08T07:52:02Z</time>
      </trkpt>
      <trkpt lat="49.29582" lon="1.78196">
        <ele>56</ele>
        <time>2009-05-08T07:52:22Z</time>
      </trkpt>
      <trkpt lat="49.29608" lon="1.78278">
        <ele>57</ele>
        <time>2009-05-08T07:52:41Z</time>
      </trkpt>
      <trkpt lat="49.29641" lon="1.78302">
        <ele>58</ele>
        <time>2009-05-08T07:52:53Z</time>
      </trkpt>
      <trkpt lat="49.29707" lon="1.78298">
        <ele>61</ele>
        <time>2009-05-08T07:53:12Z</time>
      </trkpt>
      <trkpt lat="49.29753" lon="1.78295">
        <ele>65</ele>
        <time>2009-05-08T07:53:29Z</time>
      </trkpt>
      <trkpt lat="49.29811" lon="1.78284">
        <ele>66</ele>
        <time>2009-05-08T07:53:48Z</time>
      </trkpt>
      <trkpt lat="49.29881" lon="1.78247">
        <ele>66</ele>
        <time>2009-05-08T07:54:09Z</time>
      </trkpt>
      <trkpt lat="49.29945" lon="1.78212">
        <ele>66</ele>
        <time>2009-05-08T07:54:28Z</time>
      </trkpt>
      <trkpt lat="49.30022" lon="1.78167">
        <ele>66</ele>
        <time>2009-05-08T07:54:50Z</time>
      </trkpt>
      <trkpt lat="49.30099" lon="1.78124">
        <ele>65</ele>
        <time>2009-05-08T07:55:11Z</time>
      </trkpt>
      <trkpt lat="49.30163" lon="1.78097">
        <ele>66</ele>
        <time>2009-05-08T07:55:29Z</time>
      </trkpt>
      <trkpt lat="49.30253" lon="1.78064">
        <ele>66</ele>
        <time>2009-05-08T07:55:51Z</time>
      </trkpt>
      <trkpt lat="49.30359" lon="1.78031">
        <ele>66</ele>
        <time>2009-05-08T07:56:15Z</time>
      </trkpt>
      <trkpt lat="49.30453" lon="1.77999">
        <ele>66</ele>
        <time>2009-05-08T07:56:38Z</time>
      </trkpt>
      <trkpt lat="49.30526" lon="1.7799">
        <ele>66</ele>
        <time>2009-05-08T07:56:56Z</time>
      </trkpt>
      <trkpt lat="49.30567" lon="1.78005">
        <ele>66</ele>
        <time>2009-05-08T07:57:07Z</time>
      </trkpt>
      <trkpt lat="49.3065" lon="1.78041">
        <ele>68</ele>
        <time>2009-05-08T07:57:28Z</time>
      </trkpt>
      <trkpt lat="49.30723" lon="1.78033">
        <ele>70</ele>
        <time>2009-05-08T07:57:47Z</time>
      </trkpt>
      <trkpt lat="49.30788" lon="1.78017">
        <ele>72</ele>
        <time>2009-05-08T07:58:04Z</time>
      </trkpt>
      <trkpt lat="49.30844" lon="1.78001">
        <ele>73</ele>
        <time>2009-05-08T07:58:21Z</time>
      </trkpt>
      <trkpt lat="49.30916" lon="1.77957">
        <ele>74</ele>
        <time>2009-05-08T07:58:42Z</time>
      </trkpt>
      <trkpt lat="49.30974" lon="1.77896">
        <ele>74</ele>
        <time>2009-05-08T07:59:00Z</time>
      </trkpt>
      <trkpt lat="49.31037" lon="1.7783">
        <ele>71</ele>
        <time>2009-05-08T07:59:19Z</time>
      </trkpt>
      <trkpt lat="49.31073" lon="1.77788">
        <ele>70</ele>
        <time>2009-05-08T07:59:34Z</time>
      </trkpt>
      <trkpt lat="49.31094" lon="1.77788">
        <ele>71</ele>
        <time>2009-05-08T07:59:41Z</time>
      </trkpt>
      <trkpt lat="49.31132" lon="1.77806">
        <ele>73</ele>
        <time>2009-05-08T07:59:54Z</time>
      </trkpt>
      <trkpt lat="49.31203" lon="1.77801">
        <ele>75</ele>
        <time>2009-05-08T08:00:16Z</time>
      </trkpt>
      <trkpt lat="49.31253" lon="1.77829">
        <ele>78</ele>
        <time>2009-05-08T08:00:33Z</time>
      </trkpt>
      <trkpt lat="49.31288" lon="1.7785">
        <ele>80</ele>
        <time>2009-05-08T08:00:49Z</time>
      </trkpt>
      <trkpt lat="49.31294" lon="1.7785">
        <ele>80</ele>
        <time>2009-05-08T08:01:02Z</time>
      </trkpt>
      <trkpt lat="49.31292" lon="1.77848">
        <ele>80</ele>
        <time>2009-05-08T08:01:10Z</time>
      </trkpt>
      <trkpt lat="49.31282" lon="1.77822">
        <ele>79</ele>
        <time>2009-05-08T08:01:19Z</time>
      </trkpt>
      <trkpt lat="49.31313" lon="1.77782">
        <ele>76</ele>
        <time>2009-05-08T08:01:27Z</time>
      </trkpt>
      <trkpt lat="49.31433" lon="1.77759">
        <ele>75</ele>
        <time>2009-05-08T08:01:47Z</time>
      </trkpt>
      <trkpt lat="49.31516" lon="1.77744">
        <ele>79</ele>
        <time>2009-05-08T08:02:06Z</time>
      </trkpt>
      <trkpt lat="49.31574" lon="1.77732">
        <ele>80</ele>
        <time>2009-05-08T08:02:22Z</time>
      </trkpt>
      <trkpt lat="49.31615" lon="1.77716">
        <ele>79</ele>
        <time>2009-05-08T08:02:36Z</time>
      </trkpt>
      <trkpt lat="49.31626" lon="1.77711">
        <ele>78</ele>
        <time>2009-05-08T08:02:39Z</time>
      </trkpt>
      <trkpt lat="49.31648" lon="1.7769">
        <ele>77</ele>
        <time>2009-05-08T08:02:45Z</time>
      </trkpt>
      <trkpt lat="49.3167" lon="1.77677">
        <ele>75</ele>
        <time>2009-05-08T08:02:53Z</time>
      </trkpt>
      <trkpt lat="49.31678" lon="1.77692">
        <ele>75</ele>
        <time>2009-05-08T08:02:56Z</time>
      </trkpt>
      <trkpt lat="49.31724" lon="1.77713">
        <ele>78</ele>
        <time>2009-05-08T08:03:09Z</time>
      </trkpt>
      <trkpt lat="49.31754" lon="1.77725">
        <ele>80</ele>
        <time>2009-05-08T08:03:20Z</time>
      </trkpt>
      <trkpt lat="49.31792" lon="1.77727">
        <ele>86</ele>
        <time>2009-05-08T08:03:36Z</time>
      </trkpt>
      <trkpt lat="49.31821" lon="1.77752">
        <ele>86</ele>
        <time>2009-05-08T08:03:49Z</time>
      </trkpt>
      <trkpt lat="49.31845" lon="1.77811">
        <ele>90</ele>
        <time>2009-05-08T08:04:07Z</time>
      </trkpt>
      <trkpt lat="49.31876" lon="1.77862">
        <ele>95</ele>
        <time>2009-05-08T08:04:27Z</time>
      </trkpt>
      <trkpt lat="49.31906" lon="1.77924">
        <ele>99</ele>
        <time>2009-05-08T08:04:49Z</time>
      </trkpt>
      <trkpt lat="49.3194" lon="1.77984">
        <ele>101</ele>
        <time>2009-05-08T08:05:09Z</time>
      </trkpt>
      <trkpt lat="49.31988" lon="1.78025">
        <ele>102</ele>
        <time>2009-05-08T08:05:28Z</time>
      </trkpt>
      <trkpt lat="49.3207" lon="1.78081">
        <ele>103</ele>
        <time>2009-05-08T08:05:56Z</time>
      </trkpt>
      <trkpt lat="49.32134" lon="1.78121">
        <ele>102</ele>
        <time>2009-05-08T08:06:16Z</time>
      </trkpt>
      <trkpt lat="49.32194" lon="1.7818">
        <ele>101</ele>
        <time>2009-05-08T08:06:33Z</time>
      </trkpt>
      <trkpt lat="49.32242" lon="1.78249">
        <ele>101</ele>
        <time>2009-05-08T08:06:49Z</time>
      </trkpt>
      <trkpt lat="49.32276" lon="1.78302">
        <ele>102</ele>
        <time>2009-05-08T08:07:03Z</time>
      </trkpt>
      <trkpt lat="49.32331" lon="1.78395">
        <ele>106</ele>
        <time>2009-05-08T08:07:25Z</time>
      </trkpt>
      <trkpt lat="49.32375" lon="1.78484">
        <ele>109</ele>
        <time>2009-05-08T08:07:45Z</time>
      </trkpt>
      <trkpt lat="49.32401" lon="1.78614">
        <ele>111</ele>
        <time>2009-05-08T08:08:08Z</time>
      </trkpt>
      <trkpt lat="49.32416" lon="1.78722">
        <ele>111</ele>
        <time>2009-05-08T08:08:27Z</time>
      </trkpt>
      <trkpt lat="49.32409" lon="1.7884">
        <ele>113</ele>
        <time>2009-05-08T08:08:47Z</time>
      </trkpt>
      <trkpt lat="49.32401" lon="1.7898">
        <ele>114</ele>
        <time>2009-05-08T08:09:09Z</time>
      </trkpt>
      <trkpt lat="49.3241" lon="1.79064">
        <ele>116</ele>
        <time>2009-05-08T08:09:23Z</time>
      </trkpt>
      <trkpt lat="49.32446" lon="1.79182">
        <ele>116</ele>
        <time>2009-05-08T08:09:43Z</time>
      </trkpt>
      <trkpt lat="49.32491" lon="1.79296">
        <ele>112</ele>
        <time>2009-05-08T08:10:00Z</time>
      </trkpt>
      <trkpt lat="49.32542" lon="1.79439">
        <ele>109</ele>
        <time>2009-05-08T08:10:16Z</time>
      </trkpt>
      <trkpt lat="49.32582" lon="1.79533">
        <ele>109</ele>
        <time>2009-05-08T08:10:30Z</time>
      </trkpt>
      <trkpt lat="49.32644" lon="1.79648">
        <ele>110</ele>
        <time>2009-05-08T08:10:49Z</time>
      </trkpt>
      <trkpt lat="49.3268" lon="1.7971">
        <ele>111</ele>
        <time>2009-05-08T08:11:03Z</time>
      </trkpt>
      <trkpt lat="49.32714" lon="1.79769">
        <ele>112</ele>
        <time>2009-05-08T08:11:19Z</time>
      </trkpt>
      <trkpt lat="49.3277" lon="1.7987">
        <ele>115</ele>
        <time>2009-05-08T08:11:44Z</time>
      </trkpt>
      <trkpt lat="49.32817" lon="1.79966">
        <ele>117</ele>
        <time>2009-05-08T08:12:06Z</time>
      </trkpt>
      <trkpt lat="49.32869" lon="1.80082">
        <ele>119</ele>
        <time>2009-05-08T08:12:31Z</time>
      </trkpt>
      <trkpt lat="49.32902" lon="1.80201">
        <ele>122</ele>
        <time>2009-05-08T08:12:53Z</time>
      </trkpt>
      <trkpt lat="49.3293" lon="1.80364">
        <ele>125</ele>
        <time>2009-05-08T08:13:21Z</time>
      </trkpt>
      <trkpt lat="49.32957" lon="1.80485">
        <ele>125</ele>
        <time>2009-05-08T08:13:43Z</time>
      </trkpt>
      <trkpt lat="49.32979" lon="1.80594">
        <ele>125</ele>
        <time>2009-05-08T08:14:03Z</time>
      </trkpt>
      <trkpt lat="49.33023" lon="1.80717">
        <ele>123</ele>
        <time>2009-05-08T08:14:22Z</time>
      </trkpt>
      <trkpt lat="49.33044" lon="1.80833">
        <ele>119</ele>
        <time>2009-05-08T08:14:35Z</time>
      </trkpt>
      <trkpt lat="49.33092" lon="1.80979">
        <ele>115</ele>
        <time>2009-05-08T08:14:49Z</time>
      </trkpt>
      <trkpt lat="49.33178" lon="1.81199">
        <ele>108</ele>
        <time>2009-05-08T08:15:10Z</time>
      </trkpt>
      <trkpt lat="49.33223" lon="1.81312">
        <ele>107</ele>
        <time>2009-05-08T08:15:24Z</time>
      </trkpt>
      <trkpt lat="49.333" lon="1.81438">
        <ele>103</ele>
        <time>2009-05-08T08:15:42Z</time>
      </trkpt>
      <trkpt lat="49.33361" lon="1.81518">
        <ele>101</ele>
        <time>2009-05-08T08:15:56Z</time>
      </trkpt>
      <trkpt lat="49.3341" lon="1.81544">
        <ele>103</ele>
        <time>2009-05-08T08:16:12Z</time>
      </trkpt>
      <trkpt lat="49.33456" lon="1.81555">
        <ele>105</ele>
        <time>2009-05-08T08:16:29Z</time>
      </trkpt>
      <trkpt lat="49.33482" lon="1.81557">
        <ele>107</ele>
        <time>2009-05-08T08:16:44Z</time>
      </trkpt>
      <trkpt lat="49.33486" lon="1.81558">
        <ele>107</ele>
        <time>2009-05-08T08:17:00Z</time>
      </trkpt>
      <trkpt lat="49.33486" lon="1.81557">
        <ele>105</ele>
        <time>2009-05-08T08:18:09Z</time>
      </trkpt>
      <trkpt lat="49.33487" lon="1.81558">
        <ele>107</ele>
        <time>2009-05-08T08:19:14Z</time>
      </trkpt>
      <trkpt lat="49.33489" lon="1.81579">
        <ele>105</ele>
        <time>2009-05-08T08:19:20Z</time>
      </trkpt>
      <trkpt lat="49.33487" lon="1.81592">
        <ele>104</ele>
        <time>2009-05-08T08:19:22Z</time>
      </trkpt>
      <trkpt lat="49.33473" lon="1.81715">
        <ele>97</ele>
        <time>2009-05-08T08:19:33Z</time>
      </trkpt>
      <trkpt lat="49.33465" lon="1.81748">
        <ele>96</ele>
        <time>2009-05-08T08:19:36Z</time>
      </trkpt>
      <trkpt lat="49.33421" lon="1.81834">
        <ele>90</ele>
        <time>2009-05-08T08:19:47Z</time>
      </trkpt>
      <trkpt lat="49.33403" lon="1.8187">
        <ele>88</ele>
        <time>2009-05-08T08:19:58Z</time>
      </trkpt>
      <trkpt lat="49.33414" lon="1.81884">
        <ele>89</ele>
        <time>2009-05-08T08:20:03Z</time>
      </trkpt>
      <trkpt lat="49.33466" lon="1.81928">
        <ele>88</ele>
        <time>2009-05-08T08:20:19Z</time>
      </trkpt>
      <trkpt lat="49.33513" lon="1.81975">
        <ele>89</ele>
        <time>2009-05-08T08:20:36Z</time>
      </trkpt>
      <trkpt lat="49.33523" lon="1.8196">
        <ele>90</ele>
        <time>2009-05-08T08:20:42Z</time>
      </trkpt>
      <trkpt lat="49.33546" lon="1.81908">
        <ele>93</ele>
        <time>2009-05-08T08:20:59Z</time>
      </trkpt>
      <trkpt lat="49.33552" lon="1.8187">
        <ele>95</ele>
        <time>2009-05-08T08:21:13Z</time>
      </trkpt>
      <trkpt lat="49.33554" lon="1.81847">
        <ele>96</ele>
        <time>2009-05-08T08:21:43Z</time>
      </trkpt>
      <trkpt lat="49.33564" lon="1.8177">
        <ele>99</ele>
        <time>2009-05-08T08:22:02Z</time>
      </trkpt>
      <trkpt lat="49.33573" lon="1.81706">
        <ele>101</ele>
        <time>2009-05-08T08:22:20Z</time>
      </trkpt>
      <trkpt lat="49.33577" lon="1.8163">
        <ele>103</ele>
        <time>2009-05-08T08:22:39Z</time>
      </trkpt>
      <trkpt lat="49.33584" lon="1.81542">
        <ele>104</ele>
        <time>2009-05-08T08:23:01Z</time>
      </trkpt>
      <trkpt lat="49.33594" lon="1.81461">
        <ele>107</ele>
        <time>2009-05-08T08:23:22Z</time>
      </trkpt>
      <trkpt lat="49.33593" lon="1.81432">
        <ele>110</ele>
        <time>2009-05-08T08:23:34Z</time>
      </trkpt>
      <trkpt lat="49.33589" lon="1.81402">
        <ele>111</ele>
        <time>2009-05-08T08:23:46Z</time>
      </trkpt>
      <trkpt lat="49.33586" lon="1.81379">
        <ele>110</ele>
        <time>2009-05-08T08:23:54Z</time>
      </trkpt>
      <trkpt lat="49.33585" lon="1.81339">
        <ele>113</ele>
        <time>2009-05-08T08:24:07Z</time>
      </trkpt>
      <trkpt lat="49.33586" lon="1.81289">
        <ele>116</ele>
        <time>2009-05-08T08:24:22Z</time>
      </trkpt>
      <trkpt lat="49.33583" lon="1.81249">
        <ele>119</ele>
        <time>2009-05-08T08:24:35Z</time>
      </trkpt>
      <trkpt lat="49.33576" lon="1.81212">
        <ele>120</ele>
        <time>2009-05-08T08:24:48Z</time>
      </trkpt>
      <trkpt lat="49.33562" lon="1.81171">
        <ele>121</ele>
        <time>2009-05-08T08:25:02Z</time>
      </trkpt>
      <trkpt lat="49.33577" lon="1.81151">
        <ele>123</ele>
        <time>2009-05-08T08:25:15Z</time>
      </trkpt>
      <trkpt lat="49.33605" lon="1.81132">
        <ele>125</ele>
        <time>2009-05-08T08:25:33Z</time>
      </trkpt>
      <trkpt lat="49.33611" lon="1.8113">
        <ele>125</ele>
        <time>2009-05-08T08:25:37Z</time>
      </trkpt>
      <trkpt lat="49.33613" lon="1.81126">
        <ele>126</ele>
        <time>2009-05-08T08:25:54Z</time>
      </trkpt>
      <trkpt lat="49.33612" lon="1.81127">
        <ele>126</ele>
        <time>2009-05-08T08:31:42Z</time>
      </trkpt>
      <trkpt lat="49.33624" lon="1.81116">
        <ele>128</ele>
        <time>2009-05-08T08:35:10Z</time>
      </trkpt>
      <trkpt lat="49.33665" lon="1.81082">
        <ele>131</ele>
        <time>2009-05-08T08:35:28Z</time>
      </trkpt>
      <trkpt lat="49.33698" lon="1.81063">
        <ele>133</ele>
        <time>2009-05-08T08:35:45Z</time>
      </trkpt>
      <trkpt lat="49.33732" lon="1.81049">
        <ele>135</ele>
        <time>2009-05-08T08:36:02Z</time>
      </trkpt>
      <trkpt lat="49.33772" lon="1.81031">
        <ele>138</ele>
        <time>2009-05-08T08:36:23Z</time>
      </trkpt>
      <trkpt lat="49.33812" lon="1.81001">
        <ele>140</ele>
        <time>2009-05-08T08:36:44Z</time>
      </trkpt>
      <trkpt lat="49.33846" lon="1.80948">
        <ele>141</ele>
        <time>2009-05-08T08:37:04Z</time>
      </trkpt>
      <trkpt lat="49.3388" lon="1.8089">
        <ele>140</ele>
        <time>2009-05-08T08:37:20Z</time>
      </trkpt>
      <trkpt lat="49.33935" lon="1.808">
        <ele>139</ele>
        <time>2009-05-08T08:37:42Z</time>
      </trkpt>
      <trkpt lat="49.34001" lon="1.80723">
        <ele>138</ele>
        <time>2009-05-08T08:38:04Z</time>
      </trkpt>
      <trkpt lat="49.34077" lon="1.80646">
        <ele>136</ele>
        <time>2009-05-08T08:38:25Z</time>
      </trkpt>
      <trkpt lat="49.34139" lon="1.80568">
        <ele>134</ele>
        <time>2009-05-08T08:38:43Z</time>
      </trkpt>
      <trkpt lat="49.34183" lon="1.80453">
        <ele>133</ele>
        <time>2009-05-08T08:39:02Z</time>
      </trkpt>
      <trkpt lat="49.3422" lon="1.80326">
        <ele>132</ele>
        <time>2009-05-08T08:39:22Z</time>
      </trkpt>
      <trkpt lat="49.3425" lon="1.80187">
        <ele>130</ele>
        <time>2009-05-08T08:39:43Z</time>
      </trkpt>
      <trkpt lat="49.34272" lon="1.8004">
        <ele>128</ele>
        <time>2009-05-08T08:40:07Z</time>
      </trkpt>
      <trkpt lat="49.34263" lon="1.79999">
        <ele>128</ele>
        <time>2009-05-08T08:40:18Z</time>
      </trkpt>
      <trkpt lat="49.34231" lon="1.79933">
        <ele>127</ele>
        <time>2009-05-08T08:40:34Z</time>
      </trkpt>
      <trkpt lat="49.34215" lon="1.79927">
        <ele>127</ele>
        <time>2009-05-08T08:40:38Z</time>
      </trkpt>
      <trkpt lat="49.34201" lon="1.79899">
        <ele>127</ele>
        <time>2009-05-08T08:40:44Z</time>
      </trkpt>
      <trkpt lat="49.34185" lon="1.79761">
        <ele>127</ele>
        <time>2009-05-08T08:41:06Z</time>
      </trkpt>
      <trkpt lat="49.34157" lon="1.79726">
        <ele>127</ele>
        <time>2009-05-08T08:41:17Z</time>
      </trkpt>
      <trkpt lat="49.34101" lon="1.79671">
        <ele>129</ele>
        <time>2009-05-08T08:41:37Z</time>
      </trkpt>
      <trkpt lat="49.34063" lon="1.79615">
        <ele>131</ele>
        <time>2009-05-08T08:41:55Z</time>
      </trkpt>
      <trkpt lat="49.34066" lon="1.79543">
        <ele>132</ele>
        <time>2009-05-08T08:42:10Z</time>
      </trkpt>
      <trkpt lat="49.34065" lon="1.7943">
        <ele>131</ele>
        <time>2009-05-08T08:42:29Z</time>
      </trkpt>
      <trkpt lat="49.34063" lon="1.79265">
        <ele>129</ele>
        <time>2009-05-08T08:42:55Z</time>
      </trkpt>
      <trkpt lat="49.34059" lon="1.79147">
        <ele>128</ele>
        <time>2009-05-08T08:43:14Z</time>
      </trkpt>
      <trkpt lat="49.34058" lon="1.79141">
        <ele>128</ele>
        <time>2009-05-08T08:43:25Z</time>
      </trkpt>
      <trkpt lat="49.34054" lon="1.7911">
        <ele>128</ele>
        <time>2009-05-08T08:44:04Z</time>
      </trkpt>
      <trkpt lat="49.34022" lon="1.79011">
        <ele>129</ele>
        <time>2009-05-08T08:44:23Z</time>
      </trkpt>
      <trkpt lat="49.33983" lon="1.78909">
        <ele>132</ele>
        <time>2009-05-08T08:44:44Z</time>
      </trkpt>
      <trkpt lat="49.33957" lon="1.78812">
        <ele>133</ele>
        <time>2009-05-08T08:45:03Z</time>
      </trkpt>
      <trkpt lat="49.33929" lon="1.78696">
        <ele>132</ele>
        <time>2009-05-08T08:45:23Z</time>
      </trkpt>
      <trkpt lat="49.33923" lon="1.78674">
        <ele>132</ele>
        <time>2009-05-08T08:45:33Z</time>
      </trkpt>
      <trkpt lat="49.33926" lon="1.78679">
        <ele>130</ele>
        <time>2009-05-08T08:46:09Z</time>
      </trkpt>
      <trkpt lat="49.33926" lon="1.7868">
        <ele>130</ele>
        <time>2009-05-08T08:46:11Z</time>
      </trkpt>
      <trkpt lat="49.3394" lon="1.78737">
        <ele>130</ele>
        <time>2009-05-08T08:46:25Z</time>
      </trkpt>
      <trkpt lat="49.33977" lon="1.78879">
        <ele>130</ele>
        <time>2009-05-08T08:46:49Z</time>
      </trkpt>
      <trkpt lat="49.34028" lon="1.79025">
        <ele>128</ele>
        <time>2009-05-08T08:47:10Z</time>
      </trkpt>
      <trkpt lat="49.34047" lon="1.79073">
        <ele>127</ele>
        <time>2009-05-08T08:47:17Z</time>
      </trkpt>
      <trkpt lat="49.34059" lon="1.79135">
        <ele>127</ele>
        <time>2009-05-08T08:47:28Z</time>
      </trkpt>
      <trkpt lat="49.34067" lon="1.79133">
        <ele>126</ele>
        <time>2009-05-08T08:47:34Z</time>
      </trkpt>
      <trkpt lat="49.34096" lon="1.79059">
        <ele>125</ele>
        <time>2009-05-08T08:47:48Z</time>
      </trkpt>
      <trkpt lat="49.3413" lon="1.78991">
        <ele>124</ele>
        <time>2009-05-08T08:48:02Z</time>
      </trkpt>
      <trkpt lat="49.34183" lon="1.78893">
        <ele>124</ele>
        <time>2009-05-08T08:48:23Z</time>
      </trkpt>
      <trkpt lat="49.34198" lon="1.78845">
        <ele>123</ele>
        <time>2009-05-08T08:48:38Z</time>
      </trkpt>
      <trkpt lat="49.34205" lon="1.78792">
        <ele>122</ele>
        <time>2009-05-08T08:48:54Z</time>
      </trkpt>
      <trkpt lat="49.34208" lon="1.78758">
        <ele>122</ele>
        <time>2009-05-08T08:49:09Z</time>
      </trkpt>
      <trkpt lat="49.34216" lon="1.7868">
        <ele>120</ele>
        <time>2009-05-08T08:49:25Z</time>
      </trkpt>
      <trkpt lat="49.34229" lon="1.7858">
        <ele>116</ele>
        <time>2009-05-08T08:49:42Z</time>
      </trkpt>
      <trkpt lat="49.34243" lon="1.78484">
        <ele>116</ele>
        <time>2009-05-08T08:49:58Z</time>
      </trkpt>
      <trkpt lat="49.34258" lon="1.78382">
        <ele>115</ele>
        <time>2009-05-08T08:50:15Z</time>
      </trkpt>
      <trkpt lat="49.34288" lon="1.78263">
        <ele>113</ele>
        <time>2009-05-08T08:50:39Z</time>
      </trkpt>
      <trkpt lat="49.34302" lon="1.78207">
        <ele>112</ele>
        <time>2009-05-08T08:50:51Z</time>
      </trkpt>
      <trkpt lat="49.3432" lon="1.78132">
        <ele>111</ele>
        <time>2009-05-08T08:51:08Z</time>
      </trkpt>
      <trkpt lat="49.34339" lon="1.78034">
        <ele>108</ele>
        <time>2009-05-08T08:51:26Z</time>
      </trkpt>
      <trkpt lat="49.3436" lon="1.77896">
        <ele>103</ele>
        <time>2009-05-08T08:51:44Z</time>
      </trkpt>
      <trkpt lat="49.34365" lon="1.77747">
        <ele>97</ele>
        <time>2009-05-08T08:52:01Z</time>
      </trkpt>
      <trkpt lat="49.34375" lon="1.77607">
        <ele>89</ele>
        <time>2009-05-08T08:52:15Z</time>
      </trkpt>
      <trkpt lat="49.34382" lon="1.77518">
        <ele>82</ele>
        <time>2009-05-08T08:52:25Z</time>
      </trkpt>
      <trkpt lat="49.344" lon="1.77461">
        <ele>78</ele>
        <time>2009-05-08T08:52:31Z</time>
      </trkpt>
      <trkpt lat="49.34421" lon="1.77432">
        <ele>76</ele>
        <time>2009-05-08T08:52:35Z</time>
      </trkpt>
      <trkpt lat="49.34468" lon="1.77395">
        <ele>71</ele>
        <time>2009-05-08T08:52:45Z</time>
      </trkpt>
      <trkpt lat="49.34547" lon="1.77368">
        <ele>70</ele>
        <time>2009-05-08T08:52:59Z</time>
      </trkpt>
      <trkpt lat="49.34641" lon="1.77357">
        <ele>73</ele>
        <time>2009-05-08T08:53:19Z</time>
      </trkpt>
      <trkpt lat="49.34703" lon="1.77392">
        <ele>75</ele>
        <time>2009-05-08T08:53:36Z</time>
      </trkpt>
      <trkpt lat="49.34717" lon="1.77396">
        <ele>75</ele>
        <time>2009-05-08T08:53:40Z</time>
      </trkpt>
      <trkpt lat="49.34727" lon="1.77346">
        <ele>73</ele>
        <time>2009-05-08T08:53:48Z</time>
      </trkpt>
      <trkpt lat="49.34745" lon="1.7733">
        <ele>73</ele>
        <time>2009-05-08T08:53:52Z</time>
      </trkpt>
      <trkpt lat="49.3485" lon="1.773">
        <ele>71</ele>
        <time>2009-05-08T08:54:10Z</time>
      </trkpt>
      <trkpt lat="49.34866" lon="1.77287">
        <ele>71</ele>
        <time>2009-05-08T08:54:13Z</time>
      </trkpt>
      <trkpt lat="49.3496" lon="1.77179">
        <ele>69</ele>
        <time>2009-05-08T08:54:31Z</time>
      </trkpt>
      <trkpt lat="49.35026" lon="1.77135">
        <ele>69</ele>
        <time>2009-05-08T08:54:42Z</time>
      </trkpt>
      <trkpt lat="49.35106" lon="1.77061">
        <ele>68</ele>
        <time>2009-05-08T08:54:56Z</time>
      </trkpt>
      <trkpt lat="49.35182" lon="1.77009">
        <ele>67</ele>
        <time>2009-05-08T08:55:10Z</time>
      </trkpt>
      <trkpt lat="49.35284" lon="1.76945">
        <ele>68</ele>
        <time>2009-05-08T08:55:29Z</time>
      </trkpt>
      <trkpt lat="49.35332" lon="1.76919">
        <ele>68</ele>
        <time>2009-05-08T08:55:42Z</time>
      </trkpt>
      <trkpt lat="49.35372" lon="1.76899">
        <ele>69</ele>
        <time>2009-05-08T08:55:57Z</time>
      </trkpt>
      <trkpt lat="49.35384" lon="1.76892">
        <ele>70</ele>
        <time>2009-05-08T08:56:06Z</time>
      </trkpt>
      <trkpt lat="49.35388" lon="1.76899">
        <ele>68</ele>
        <time>2009-05-08T08:56:20Z</time>
      </trkpt>
      <trkpt lat="49.35387" lon="1.76899">
        <ele>65</ele>
        <time>2009-05-08T08:58:05Z</time>
      </trkpt>
      <trkpt lat="49.35389" lon="1.76898">
        <ele>66</ele>
        <time>2009-05-08T08:59:11Z</time>
      </trkpt>
      <trkpt lat="49.35388" lon="1.76894">
        <ele>71</ele>
        <time>2009-05-08T09:01:02Z</time>
      </trkpt>
      <trkpt lat="49.35389" lon="1.76893">
        <ele>73</ele>
        <time>2009-05-08T09:01:43Z</time>
      </trkpt>
      <trkpt lat="49.35414" lon="1.76871">
        <ele>72</ele>
        <time>2009-05-08T09:01:57Z</time>
      </trkpt>
      <trkpt lat="49.35457" lon="1.76851">
        <ele>71</ele>
        <time>2009-05-08T09:02:11Z</time>
      </trkpt>
      <trkpt lat="49.35507" lon="1.76836">
        <ele>72</ele>
        <time>2009-05-08T09:02:29Z</time>
      </trkpt>
      <trkpt lat="49.35518" lon="1.76835">
        <ele>72</ele>
        <time>2009-05-08T09:02:34Z</time>
      </trkpt>
      <trkpt lat="49.35524" lon="1.76847">
        <ele>71</ele>
        <time>2009-05-08T09:02:38Z</time>
      </trkpt>
      <trkpt lat="49.35544" lon="1.76927">
        <ele>72</ele>
        <time>2009-05-08T09:02:58Z</time>
      </trkpt>
      <trkpt lat="49.35568" lon="1.77012">
        <ele>75</ele>
        <time>2009-05-08T09:03:19Z</time>
      </trkpt>
      <trkpt lat="49.35577" lon="1.77081">
        <ele>77</ele>
        <time>2009-05-08T09:03:36Z</time>
      </trkpt>
      <trkpt lat="49.35578" lon="1.77169">
        <ele>80</ele>
        <time>2009-05-08T09:03:56Z</time>
      </trkpt>
      <trkpt lat="49.3558" lon="1.77192">
        <ele>80</ele>
        <time>2009-05-08T09:04:12Z</time>
      </trkpt>
      <trkpt lat="49.35588" lon="1.7722">
        <ele>79</ele>
        <time>2009-05-08T09:04:35Z</time>
      </trkpt>
      <trkpt lat="49.35609" lon="1.77241">
        <ele>80</ele>
        <time>2009-05-08T09:04:45Z</time>
      </trkpt>
      <trkpt lat="49.35653" lon="1.7722">
        <ele>84</ele>
        <time>2009-05-08T09:05:02Z</time>
      </trkpt>
      <trkpt lat="49.357" lon="1.77224">
        <ele>86</ele>
        <time>2009-05-08T09:05:17Z</time>
      </trkpt>
      <trkpt lat="49.3574" lon="1.77297">
        <ele>86</ele>
        <time>2009-05-08T09:05:34Z</time>
      </trkpt>
      <trkpt lat="49.35758" lon="1.77374">
        <ele>84</ele>
        <time>2009-05-08T09:05:45Z</time>
      </trkpt>
      <trkpt lat="49.35787" lon="1.77485">
        <ele>78</ele>
        <time>2009-05-08T09:05:56Z</time>
      </trkpt>
      <trkpt lat="49.35807" lon="1.77532">
        <ele>73</ele>
        <time>2009-05-08T09:06:01Z</time>
      </trkpt>
      <trkpt lat="49.35868" lon="1.77649">
        <ele>75</ele>
        <time>2009-05-08T09:06:17Z</time>
      </trkpt>
      <trkpt lat="49.35927" lon="1.77766">
        <ele>76</ele>
        <time>2009-05-08T09:06:34Z</time>
      </trkpt>
      <trkpt lat="49.35976" lon="1.77848">
        <ele>78</ele>
        <time>2009-05-08T09:06:48Z</time>
      </trkpt>
      <trkpt lat="49.36037" lon="1.77931">
        <ele>79</ele>
        <time>2009-05-08T09:07:06Z</time>
      </trkpt>
      <trkpt lat="49.36093" lon="1.77998">
        <ele>80</ele>
        <time>2009-05-08T09:07:23Z</time>
      </trkpt>
      <trkpt lat="49.3616" lon="1.78026">
        <ele>83</ele>
        <time>2009-05-08T09:07:40Z</time>
      </trkpt>
      <trkpt lat="49.36186" lon="1.78033">
        <ele>84</ele>
        <time>2009-05-08T09:07:46Z</time>
      </trkpt>
      <trkpt lat="49.36249" lon="1.78046">
        <ele>84</ele>
        <time>2009-05-08T09:08:02Z</time>
      </trkpt>
      <trkpt lat="49.36312" lon="1.78059">
        <ele>84</ele>
        <time>2009-05-08T09:08:18Z</time>
      </trkpt>
      <trkpt lat="49.36402" lon="1.78074">
        <ele>86</ele>
        <time>2009-05-08T09:08:40Z</time>
      </trkpt>
      <trkpt lat="49.36477" lon="1.78116">
        <ele>85</ele>
        <time>2009-05-08T09:08:59Z</time>
      </trkpt>
      <trkpt lat="49.3648" lon="1.78121">
        <ele>85</ele>
        <time>2009-05-08T09:09:00Z</time>
      </trkpt>
      <trkpt lat="49.36516" lon="1.78202">
        <ele>86</ele>
        <time>2009-05-08T09:09:17Z</time>
      </trkpt>
      <trkpt lat="49.36546" lon="1.78297">
        <ele>88</ele>
        <time>2009-05-08T09:09:37Z</time>
      </trkpt>
      <trkpt lat="49.36593" lon="1.78403">
        <ele>89</ele>
        <time>2009-05-08T09:09:58Z</time>
      </trkpt>
      <trkpt lat="49.36645" lon="1.78488">
        <ele>93</ele>
        <time>2009-05-08T09:10:17Z</time>
      </trkpt>
      <trkpt lat="49.36691" lon="1.78491">
        <ele>97</ele>
        <time>2009-05-08T09:10:30Z</time>
      </trkpt>
      <trkpt lat="49.3676" lon="1.78484">
        <ele>99</ele>
        <time>2009-05-08T09:10:49Z</time>
      </trkpt>
      <trkpt lat="49.36814" lon="1.78461">
        <ele>97</ele>
        <time>2009-05-08T09:11:04Z</time>
      </trkpt>
      <trkpt lat="49.36885" lon="1.78483">
        <ele>96</ele>
        <time>2009-05-08T09:11:22Z</time>
      </trkpt>
      <trkpt lat="49.36939" lon="1.78544">
        <ele>92</ele>
        <time>2009-05-08T09:11:40Z</time>
      </trkpt>
      <trkpt lat="49.36953" lon="1.78639">
        <ele>95</ele>
        <time>2009-05-08T09:11:56Z</time>
      </trkpt>
      <trkpt lat="49.36975" lon="1.7875">
        <ele>101</ele>
        <time>2009-05-08T09:12:17Z</time>
      </trkpt>
      <trkpt lat="49.36983" lon="1.78835">
        <ele>107</ele>
        <time>2009-05-08T09:12:36Z</time>
      </trkpt>
      <trkpt lat="49.37008" lon="1.78912">
        <ele>110</ele>
        <time>2009-05-08T09:12:55Z</time>
      </trkpt>
      <trkpt lat="49.37054" lon="1.78997">
        <ele>111</ele>
        <time>2009-05-08T09:13:16Z</time>
      </trkpt>
      <trkpt lat="49.3712" lon="1.79092">
        <ele>111</ele>
        <time>2009-05-08T09:13:37Z</time>
      </trkpt>
      <trkpt lat="49.37182" lon="1.79155">
        <ele>114</ele>
        <time>2009-05-08T09:13:56Z</time>
      </trkpt>
      <trkpt lat="49.37187" lon="1.79163">
        <ele>114</ele>
        <time>2009-05-08T09:13:58Z</time>
      </trkpt>
      <trkpt lat="49.37202" lon="1.79204">
        <ele>114</ele>
        <time>2009-05-08T09:14:05Z</time>
      </trkpt>
      <trkpt lat="49.37227" lon="1.79234">
        <ele>115</ele>
        <time>2009-05-08T09:14:13Z</time>
      </trkpt>
      <trkpt lat="49.37272" lon="1.79241">
        <ele>113</ele>
        <time>2009-05-08T09:14:22Z</time>
      </trkpt>
      <trkpt lat="49.37337" lon="1.79266">
        <ele>113</ele>
        <time>2009-05-08T09:14:35Z</time>
      </trkpt>
      <trkpt lat="49.37437" lon="1.7928">
        <ele>114</ele>
        <time>2009-05-08T09:14:54Z</time>
      </trkpt>
      <trkpt lat="49.37472" lon="1.79284">
        <ele>116</ele>
        <time>2009-05-08T09:15:03Z</time>
      </trkpt>
      <trkpt lat="49.37498" lon="1.79306">
        <ele>118</ele>
        <time>2009-05-08T09:15:13Z</time>
      </trkpt>
      <trkpt lat="49.37515" lon="1.79334">
        <ele>117</ele>
        <time>2009-05-08T09:15:20Z</time>
      </trkpt>
      <trkpt lat="49.37536" lon="1.79359">
        <ele>114</ele>
        <time>2009-05-08T09:15:25Z</time>
      </trkpt>
      <trkpt lat="49.37547" lon="1.79378">
        <ele>115</ele>
        <time>2009-05-08T09:15:28Z</time>
      </trkpt>
      <trkpt lat="49.3756" lon="1.79414">
        <ele>115</ele>
        <time>2009-05-08T09:15:34Z</time>
      </trkpt>
      <trkpt lat="49.37604" lon="1.79496">
        <ele>116</ele>
        <time>2009-05-08T09:15:51Z</time>
      </trkpt>
      <trkpt lat="49.37652" lon="1.79613">
        <ele>117</ele>
        <time>2009-05-08T09:16:13Z</time>
      </trkpt>
      <trkpt lat="49.37672" lon="1.7966">
        <ele>117</ele>
        <time>2009-05-08T09:16:26Z</time>
      </trkpt>
      <trkpt lat="49.37677" lon="1.7966">
        <ele>117</ele>
        <time>2009-05-08T09:16:29Z</time>
      </trkpt>
      <trkpt lat="49.37681" lon="1.79653">
        <ele>117</ele>
        <time>2009-05-08T09:16:33Z</time>
      </trkpt>
      <trkpt lat="49.377" lon="1.79589">
        <ele>119</ele>
        <time>2009-05-08T09:16:51Z</time>
      </trkpt>
      <trkpt lat="49.37722" lon="1.79538">
        <ele>123</ele>
        <time>2009-05-08T09:17:06Z</time>
      </trkpt>
      <trkpt lat="49.37718" lon="1.7953">
        <ele>123</ele>
        <time>2009-05-08T09:17:10Z</time>
      </trkpt>
      <trkpt lat="49.37711" lon="1.79531">
        <ele>122</ele>
        <time>2009-05-08T09:17:21Z</time>
      </trkpt>
      <trkpt lat="49.37711" lon="1.79529">
        <ele>119</ele>
        <time>2009-05-08T09:18:16Z</time>
      </trkpt>
      <trkpt lat="49.3772" lon="1.79526">
        <ele>119</ele>
        <time>2009-05-08T09:18:26Z</time>
      </trkpt>
      <trkpt lat="49.37747" lon="1.79491">
        <ele>121</ele>
        <time>2009-05-08T09:18:37Z</time>
      </trkpt>
      <trkpt lat="49.37797" lon="1.79419">
        <ele>124</ele>
        <time>2009-05-08T09:18:58Z</time>
      </trkpt>
      <trkpt lat="49.37819" lon="1.79391">
        <ele>122</ele>
        <time>2009-05-08T09:19:09Z</time>
      </trkpt>
      <trkpt lat="49.37843" lon="1.7936">
        <ele>123</ele>
        <time>2009-05-08T09:19:19Z</time>
      </trkpt>
      <trkpt lat="49.37868" lon="1.79327">
        <ele>130</ele>
        <time>2009-05-08T09:19:29Z</time>
      </trkpt>
      <trkpt lat="49.37906" lon="1.79291">
        <ele>130</ele>
        <time>2009-05-08T09:19:43Z</time>
      </trkpt>
      <trkpt lat="49.37935" lon="1.79273">
        <ele>132</ele>
        <time>2009-05-08T09:19:54Z</time>
      </trkpt>
      <trkpt lat="49.37945" lon="1.79267">
        <ele>135</ele>
        <time>2009-05-08T09:19:59Z</time>
      </trkpt>
      <trkpt lat="49.37959" lon="1.79261">
        <ele>138</ele>
        <time>2009-05-08T09:20:06Z</time>
      </trkpt>
      <trkpt lat="49.37973" lon="1.79252">
        <ele>141</ele>
        <time>2009-05-08T09:20:13Z</time>
      </trkpt>
      <trkpt lat="49.38002" lon="1.7924">
        <ele>144</ele>
        <time>2009-05-08T09:20:27Z</time>
      </trkpt>
      <trkpt lat="49.38024" lon="1.79231">
        <ele>142</ele>
        <time>2009-05-08T09:20:37Z</time>
      </trkpt>
      <trkpt lat="49.38055" lon="1.79209">
        <ele>145</ele>
        <time>2009-05-08T09:20:51Z</time>
      </trkpt>
      <trkpt lat="49.38096" lon="1.79168">
        <ele>149</ele>
        <time>2009-05-08T09:21:09Z</time>
      </trkpt>
      <trkpt lat="49.38139" lon="1.7911">
        <ele>153</ele>
        <time>2009-05-08T09:21:31Z</time>
      </trkpt>
      <trkpt lat="49.38189" lon="1.79033">
        <ele>157</ele>
        <time>2009-05-08T09:21:56Z</time>
      </trkpt>
      <trkpt lat="49.3823" lon="1.78962">
        <ele>161</ele>
        <time>2009-05-08T09:22:17Z</time>
      </trkpt>
      <trkpt lat="49.38283" lon="1.78906">
        <ele>164</ele>
        <time>2009-05-08T09:22:36Z</time>
      </trkpt>
      <trkpt lat="49.38345" lon="1.78857">
        <ele>167</ele>
        <time>2009-05-08T09:22:57Z</time>
      </trkpt>
      <trkpt lat="49.38397" lon="1.78798">
        <ele>169</ele>
        <time>2009-05-08T09:23:16Z</time>
      </trkpt>
      <trkpt lat="49.38445" lon="1.78732">
        <ele>172</ele>
        <time>2009-05-08T09:23:35Z</time>
      </trkpt>
      <trkpt lat="49.38464" lon="1.78699">
        <ele>173</ele>
        <time>2009-05-08T09:23:49Z</time>
      </trkpt>
      <trkpt lat="49.38495" lon="1.78649">
        <ele>175</ele>
        <time>2009-05-08T09:24:04Z</time>
      </trkpt>
      <trkpt lat="49.38552" lon="1.78562">
        <ele>178</ele>
        <time>2009-05-08T09:24:27Z</time>
      </trkpt>
      <trkpt lat="49.38616" lon="1.78478">
        <ele>178</ele>
        <time>2009-05-08T09:24:49Z</time>
      </trkpt>
      <trkpt lat="49.38674" lon="1.78402">
        <ele>176</ele>
        <time>2009-05-08T09:25:06Z</time>
      </trkpt>
      <trkpt lat="49.38723" lon="1.78312">
        <ele>176</ele>
        <time>2009-05-08T09:25:24Z</time>
      </trkpt>
      <trkpt lat="49.38772" lon="1.78254">
        <ele>176</ele>
        <time>2009-05-08T09:25:42Z</time>
      </trkpt>
      <trkpt lat="49.38838" lon="1.78208">
        <ele>176</ele>
        <time>2009-05-08T09:26:00Z</time>
      </trkpt>
      <trkpt lat="49.38866" lon="1.78174">
        <ele>175</ele>
        <time>2009-05-08T09:26:08Z</time>
      </trkpt>
      <trkpt lat="49.38902" lon="1.78112">
        <ele>174</ele>
        <time>2009-05-08T09:26:22Z</time>
      </trkpt>
      <trkpt lat="49.38902" lon="1.78111">
        <ele>174</ele>
        <time>2009-05-08T09:26:43Z</time>
      </trkpt>
      <trkpt lat="49.38907" lon="1.78102">
        <ele>175</ele>
        <time>2009-05-08T09:28:58Z</time>
      </trkpt>
      <trkpt lat="49.38945" lon="1.78051">
        <ele>175</ele>
        <time>2009-05-08T09:29:14Z</time>
      </trkpt>
      <trkpt lat="49.39008" lon="1.77998">
        <ele>176</ele>
        <time>2009-05-08T09:29:33Z</time>
      </trkpt>
      <trkpt lat="49.39036" lon="1.77986">
        <ele>177</ele>
        <time>2009-05-08T09:29:46Z</time>
      </trkpt>
      <trkpt lat="49.3907" lon="1.77966">
        <ele>177</ele>
        <time>2009-05-08T09:30:01Z</time>
      </trkpt>
      <trkpt lat="49.39097" lon="1.77933">
        <ele>177</ele>
        <time>2009-05-08T09:30:15Z</time>
      </trkpt>
      <trkpt lat="49.39118" lon="1.77886">
        <ele>175</ele>
        <time>2009-05-08T09:30:28Z</time>
      </trkpt>
      <trkpt lat="49.39101" lon="1.77844">
        <ele>173</ele>
        <time>2009-05-08T09:30:39Z</time>
      </trkpt>
      <trkpt lat="49.39083" lon="1.77801">
        <ele>168</ele>
        <time>2009-05-08T09:30:54Z</time>
      </trkpt>
      <trkpt lat="49.39059" lon="1.77737">
        <ele>168</ele>
        <time>2009-05-08T09:31:11Z</time>
      </trkpt>
      <trkpt lat="49.39039" lon="1.7768">
        <ele>166</ele>
        <time>2009-05-08T09:31:23Z</time>
      </trkpt>
      <trkpt lat="49.39025" lon="1.77641">
        <ele>165</ele>
        <time>2009-05-08T09:31:30Z</time>
      </trkpt>
      <trkpt lat="49.39028" lon="1.77622">
        <ele>166</ele>
        <time>2009-05-08T09:31:33Z</time>
      </trkpt>
      <trkpt lat="49.39025" lon="1.77525">
        <ele>166</ele>
        <time>2009-05-08T09:31:46Z</time>
      </trkpt>
      <trkpt lat="49.39007" lon="1.77394">
        <ele>167</ele>
        <time>2009-05-08T09:32:03Z</time>
      </trkpt>
      <trkpt lat="49.38987" lon="1.77258">
        <ele>166</ele>
        <time>2009-05-08T09:32:20Z</time>
      </trkpt>
      <trkpt lat="49.38966" lon="1.77163">
        <ele>163</ele>
        <time>2009-05-08T09:32:31Z</time>
      </trkpt>
      <trkpt lat="49.38952" lon="1.77105">
        <ele>161</ele>
        <time>2009-05-08T09:32:40Z</time>
      </trkpt>
      <trkpt lat="49.38949" lon="1.7708">
        <ele>159</ele>
        <time>2009-05-08T09:32:44Z</time>
      </trkpt>
      <trkpt lat="49.38944" lon="1.77064">
        <ele>156</ele>
        <time>2009-05-08T09:32:46Z</time>
      </trkpt>
      <trkpt lat="49.38928" lon="1.77032">
        <ele>152</ele>
        <time>2009-05-08T09:32:50Z</time>
      </trkpt>
      <trkpt lat="49.38917" lon="1.77012">
        <ele>151</ele>
        <time>2009-05-08T09:32:52Z</time>
      </trkpt>
      <trkpt lat="49.38896" lon="1.76949">
        <ele>139</ele>
        <time>2009-05-08T09:33:00Z</time>
      </trkpt>
      <trkpt lat="49.38885" lon="1.76913">
        <ele>137</ele>
        <time>2009-05-08T09:33:05Z</time>
      </trkpt>
      <trkpt lat="49.38869" lon="1.76884">
        <ele>133</ele>
        <time>2009-05-08T09:33:09Z</time>
      </trkpt>
      <trkpt lat="49.3886" lon="1.76858">
        <ele>130</ele>
        <time>2009-05-08T09:33:13Z</time>
      </trkpt>
      <trkpt lat="49.38859" lon="1.76825">
        <ele>125</ele>
        <time>2009-05-08T09:33:17Z</time>
      </trkpt>
      <trkpt lat="49.3886" lon="1.76805">
        <ele>121</ele>
        <time>2009-05-08T09:33:20Z</time>
      </trkpt>
      <trkpt lat="49.3884" lon="1.76781">
        <ele>114</ele>
        <time>2009-05-08T09:33:26Z</time>
      </trkpt>
      <trkpt lat="49.38807" lon="1.76771">
        <ele>111</ele>
        <time>2009-05-08T09:33:32Z</time>
      </trkpt>
      <trkpt lat="49.38781" lon="1.7676">
        <ele>109</ele>
        <time>2009-05-08T09:33:36Z</time>
      </trkpt>
      <trkpt lat="49.38733" lon="1.76727">
        <ele>106</ele>
        <time>2009-05-08T09:33:43Z</time>
      </trkpt>
      <trkpt lat="49.38686" lon="1.76686">
        <ele>99</ele>
        <time>2009-05-08T09:33:51Z</time>
      </trkpt>
      <trkpt lat="49.38664" lon="1.76655">
        <ele>95</ele>
        <time>2009-05-08T09:33:59Z</time>
      </trkpt>
      <trkpt lat="49.38651" lon="1.76642">
        <ele>90</ele>
        <time>2009-05-08T09:34:08Z</time>
      </trkpt>
      <trkpt lat="49.38662" lon="1.76634">
        <ele>90</ele>
        <time>2009-05-08T09:34:16Z</time>
      </trkpt>
      <trkpt lat="49.38702" lon="1.76634">
        <ele>92</ele>
        <time>2009-05-08T09:34:34Z</time>
      </trkpt>
      <trkpt lat="49.38738" lon="1.76632">
        <ele>92</ele>
        <time>2009-05-08T09:34:50Z</time>
      </trkpt>
      <trkpt lat="49.38779" lon="1.76632">
        <ele>93</ele>
        <time>2009-05-08T09:35:06Z</time>
      </trkpt>
      <trkpt lat="49.38848" lon="1.76644">
        <ele>94</ele>
        <time>2009-05-08T09:35:25Z</time>
      </trkpt>
      <trkpt lat="49.38939" lon="1.76689">
        <ele>96</ele>
        <time>2009-05-08T09:35:47Z</time>
      </trkpt>
      <trkpt lat="49.39022" lon="1.7674">
        <ele>97</ele>
        <time>2009-05-08T09:36:06Z</time>
      </trkpt>
      <trkpt lat="49.39121" lon="1.76808">
        <ele>96</ele>
        <time>2009-05-08T09:36:28Z</time>
      </trkpt>
      <trkpt lat="49.39223" lon="1.76879">
        <ele>96</ele>
        <time>2009-05-08T09:36:51Z</time>
      </trkpt>
      <trkpt lat="49.39306" lon="1.76934">
        <ele>98</ele>
        <time>2009-05-08T09:37:11Z</time>
      </trkpt>
      <trkpt lat="49.39336" lon="1.76941">
        <ele>99</ele>
        <time>2009-05-08T09:37:23Z</time>
      </trkpt>
      <trkpt lat="49.39338" lon="1.76894">
        <ele>101</ele>
        <time>2009-05-08T09:37:35Z</time>
      </trkpt>
      <trkpt lat="49.39341" lon="1.76808">
        <ele>104</ele>
        <time>2009-05-08T09:37:54Z</time>
      </trkpt>
      <trkpt lat="49.3935" lon="1.76726">
        <ele>107</ele>
        <time>2009-05-08T09:38:14Z</time>
      </trkpt>
      <trkpt lat="49.3936" lon="1.76651">
        <ele>110</ele>
        <time>2009-05-08T09:38:33Z</time>
      </trkpt>
      <trkpt lat="49.39379" lon="1.76576">
        <ele>114</ele>
        <time>2009-05-08T09:38:53Z</time>
      </trkpt>
      <trkpt lat="49.39408" lon="1.76517">
        <ele>119</ele>
        <time>2009-05-08T09:39:10Z</time>
      </trkpt>
      <trkpt lat="49.39441" lon="1.76452">
        <ele>124</ele>
        <time>2009-05-08T09:39:30Z</time>
      </trkpt>
      <trkpt lat="49.39475" lon="1.76363">
        <ele>129</ele>
        <time>2009-05-08T09:39:54Z</time>
      </trkpt>
      <trkpt lat="49.39496" lon="1.76303">
        <ele>134</ele>
        <time>2009-05-08T09:40:10Z</time>
      </trkpt>
      <trkpt lat="49.39535" lon="1.76233">
        <ele>140</ele>
        <time>2009-05-08T09:40:31Z</time>
      </trkpt>
      <trkpt lat="49.39577" lon="1.76188">
        <ele>144</ele>
        <time>2009-05-08T09:40:49Z</time>
      </trkpt>
      <trkpt lat="49.39614" lon="1.76134">
        <ele>147</ele>
        <time>2009-05-08T09:41:07Z</time>
      </trkpt>
      <trkpt lat="49.39643" lon="1.76083">
        <ele>149</ele>
        <time>2009-05-08T09:41:22Z</time>
      </trkpt>
      <trkpt lat="49.39672" lon="1.76012">
        <ele>154</ele>
        <time>2009-05-08T09:41:41Z</time>
      </trkpt>
      <trkpt lat="49.39702" lon="1.75931">
        <ele>159</ele>
        <time>2009-05-08T09:42:02Z</time>
      </trkpt>
      <trkpt lat="49.39726" lon="1.7585">
        <ele>162</ele>
        <time>2009-05-08T09:42:22Z</time>
      </trkpt>
      <trkpt lat="49.39743" lon="1.75765">
        <ele>166</ele>
        <time>2009-05-08T09:42:41Z</time>
      </trkpt>
      <trkpt lat="49.39749" lon="1.757">
        <ele>166</ele>
        <time>2009-05-08T09:42:57Z</time>
      </trkpt>
      <trkpt lat="49.39754" lon="1.75647">
        <ele>167</ele>
        <time>2009-05-08T09:43:12Z</time>
      </trkpt>
      <trkpt lat="49.39754" lon="1.75593">
        <ele>168</ele>
        <time>2009-05-08T09:43:29Z</time>
      </trkpt>
      <trkpt lat="49.39753" lon="1.75579">
        <ele>168</ele>
        <time>2009-05-08T09:43:34Z</time>
      </trkpt>
      <trkpt lat="49.39753" lon="1.75576">
        <ele>169</ele>
        <time>2009-05-08T09:43:49Z</time>
      </trkpt>
      <trkpt lat="49.39754" lon="1.75582">
        <ele>170</ele>
        <time>2009-05-08T09:44:08Z</time>
      </trkpt>
      <trkpt lat="49.39752" lon="1.75584">
        <ele>170</ele>
        <time>2009-05-08T09:44:11Z</time>
      </trkpt>
      <trkpt lat="49.39751" lon="1.75578">
        <ele>170</ele>
        <time>2009-05-08T09:44:15Z</time>
      </trkpt>
      <trkpt lat="49.39749" lon="1.75572">
        <ele>170</ele>
        <time>2009-05-08T09:44:28Z</time>
      </trkpt>
      <trkpt lat="49.39749" lon="1.75571">
        <ele>171</ele>
        <time>2009-05-08T09:45:21Z</time>
      </trkpt>
      <trkpt lat="49.39746" lon="1.75541">
        <ele>172</ele>
        <time>2009-05-08T09:45:37Z</time>
      </trkpt>
      <trkpt lat="49.39732" lon="1.75463">
        <ele>173</ele>
        <time>2009-05-08T09:45:55Z</time>
      </trkpt>
      <trkpt lat="49.39692" lon="1.7541">
        <ele>177</ele>
        <time>2009-05-08T09:46:13Z</time>
      </trkpt>
      <trkpt lat="49.3963" lon="1.75382">
        <ele>180</ele>
        <time>2009-05-08T09:46:34Z</time>
      </trkpt>
      <trkpt lat="49.39588" lon="1.75376">
        <ele>181</ele>
        <time>2009-05-08T09:46:53Z</time>
      </trkpt>
      <trkpt lat="49.39588" lon="1.75362">
        <ele>181</ele>
        <time>2009-05-08T09:46:59Z</time>
      </trkpt>
      <trkpt lat="49.39649" lon="1.75338">
        <ele>181</ele>
        <time>2009-05-08T09:47:19Z</time>
      </trkpt>
      <trkpt lat="49.3972" lon="1.7531">
        <ele>182</ele>
        <time>2009-05-08T09:47:39Z</time>
      </trkpt>
      <trkpt lat="49.39794" lon="1.75287">
        <ele>183</ele>
        <time>2009-05-08T09:47:58Z</time>
      </trkpt>
      <trkpt lat="49.39847" lon="1.75273">
        <ele>184</ele>
        <time>2009-05-08T09:48:12Z</time>
      </trkpt>
      <trkpt lat="49.39916" lon="1.75251">
        <ele>185</ele>
        <time>2009-05-08T09:48:29Z</time>
      </trkpt>
      <trkpt lat="49.39944" lon="1.75239">
        <ele>184</ele>
        <time>2009-05-08T09:48:37Z</time>
      </trkpt>
      <trkpt lat="49.39961" lon="1.75228">
        <ele>184</ele>
        <time>2009-05-08T09:48:41Z</time>
      </trkpt>
      <trkpt lat="49.40006" lon="1.75162">
        <ele>183</ele>
        <time>2009-05-08T09:48:56Z</time>
      </trkpt>
      <trkpt lat="49.40073" lon="1.7508">
        <ele>185</ele>
        <time>2009-05-08T09:49:18Z</time>
      </trkpt>
      <trkpt lat="49.4015" lon="1.75006">
        <ele>188</ele>
        <time>2009-05-08T09:49:42Z</time>
      </trkpt>
      <trkpt lat="49.40222" lon="1.74938">
        <ele>190</ele>
        <time>2009-05-08T09:50:08Z</time>
      </trkpt>
      <trkpt lat="49.4025" lon="1.74958">
        <ele>190</ele>
        <time>2009-05-08T09:50:18Z</time>
      </trkpt>
      <trkpt lat="49.40296" lon="1.7503">
        <ele>189</ele>
        <time>2009-05-08T09:50:36Z</time>
      </trkpt>
      <trkpt lat="49.40326" lon="1.7508">
        <ele>189</ele>
        <time>2009-05-08T09:50:48Z</time>
      </trkpt>
      <trkpt lat="49.40382" lon="1.7517">
        <ele>185</ele>
        <time>2009-05-08T09:51:03Z</time>
      </trkpt>
      <trkpt lat="49.40444" lon="1.7529">
        <ele>186</ele>
        <time>2009-05-08T09:51:21Z</time>
      </trkpt>
      <trkpt lat="49.40491" lon="1.75458">
        <ele>186</ele>
        <time>2009-05-08T09:51:43Z</time>
      </trkpt>
      <trkpt lat="49.40516" lon="1.75585">
        <ele>185</ele>
        <time>2009-05-08T09:51:57Z</time>
      </trkpt>
      <trkpt lat="49.40521" lon="1.75643">
        <ele>186</ele>
        <time>2009-05-08T09:52:04Z</time>
      </trkpt>
      <trkpt lat="49.40531" lon="1.75669">
        <ele>187</ele>
        <time>2009-05-08T09:52:08Z</time>
      </trkpt>
      <trkpt lat="49.40537" lon="1.75679">
        <ele>188</ele>
        <time>2009-05-08T09:52:10Z</time>
      </trkpt>
      <trkpt lat="49.40608" lon="1.75754">
        <ele>191</ele>
        <time>2009-05-08T09:52:29Z</time>
      </trkpt>
      <trkpt lat="49.40658" lon="1.75803">
        <ele>194</ele>
        <time>2009-05-08T09:52:46Z</time>
      </trkpt>
      <trkpt lat="49.40698" lon="1.75845">
        <ele>196</ele>
        <time>2009-05-08T09:53:02Z</time>
      </trkpt>
      <trkpt lat="49.40764" lon="1.75911">
        <ele>198</ele>
        <time>2009-05-08T09:53:23Z</time>
      </trkpt>
      <trkpt lat="49.40833" lon="1.75973">
        <ele>197</ele>
        <time>2009-05-08T09:53:40Z</time>
      </trkpt>
      <trkpt lat="49.40924" lon="1.76057">
        <ele>190</ele>
        <time>2009-05-08T09:53:53Z</time>
      </trkpt>
      <trkpt lat="49.40997" lon="1.76145">
        <ele>190</ele>
        <time>2009-05-08T09:54:05Z</time>
      </trkpt>
      <trkpt lat="49.41002" lon="1.76148">
        <ele>190</ele>
        <time>2009-05-08T09:54:07Z</time>
      </trkpt>
      <trkpt lat="49.41009" lon="1.76129">
        <ele>190</ele>
        <time>2009-05-08T09:54:13Z</time>
      </trkpt>
      <trkpt lat="49.40999" lon="1.76069">
        <ele>190</ele>
        <time>2009-05-08T09:54:29Z</time>
      </trkpt>
      <trkpt lat="49.40985" lon="1.75986">
        <ele>190</ele>
        <time>2009-05-08T09:54:45Z</time>
      </trkpt>
      <trkpt lat="49.40997" lon="1.75881">
        <ele>191</ele>
        <time>2009-05-08T09:55:02Z</time>
      </trkpt>
      <trkpt lat="49.40996" lon="1.75754">
        <ele>195</ele>
        <time>2009-05-08T09:55:21Z</time>
      </trkpt>
      <trkpt lat="49.40989" lon="1.75617">
        <ele>198</ele>
        <time>2009-05-08T09:55:43Z</time>
      </trkpt>
      <trkpt lat="49.41003" lon="1.75513">
        <ele>200</ele>
        <time>2009-05-08T09:56:03Z</time>
      </trkpt>
      <trkpt lat="49.41014" lon="1.7543">
        <ele>202</ele>
        <time>2009-05-08T09:56:20Z</time>
      </trkpt>
      <trkpt lat="49.41016" lon="1.75363">
        <ele>202</ele>
        <time>2009-05-08T09:56:34Z</time>
      </trkpt>
      <trkpt lat="49.4102" lon="1.75264">
        <ele>204</ele>
        <time>2009-05-08T09:56:54Z</time>
      </trkpt>
      <trkpt lat="49.41021" lon="1.7515">
        <ele>206</ele>
        <time>2009-05-08T09:57:17Z</time>
      </trkpt>
      <trkpt lat="49.41027" lon="1.75044">
        <ele>206</ele>
        <time>2009-05-08T09:57:39Z</time>
      </trkpt>
      <trkpt lat="49.41032" lon="1.74936">
        <ele>204</ele>
        <time>2009-05-08T09:58:00Z</time>
      </trkpt>
      <trkpt lat="49.41025" lon="1.7483">
        <ele>202</ele>
        <time>2009-05-08T09:58:20Z</time>
      </trkpt>
      <trkpt lat="49.40994" lon="1.74744">
        <ele>200</ele>
        <time>2009-05-08T09:58:36Z</time>
      </trkpt>
      <trkpt lat="49.40949" lon="1.74633">
        <ele>199</ele>
        <time>2009-05-08T09:58:57Z</time>
      </trkpt>
      <trkpt lat="49.40924" lon="1.74573">
        <ele>197</ele>
        <time>2009-05-08T09:59:13Z</time>
      </trkpt>
      <trkpt lat="49.40913" lon="1.74551">
        <ele>197</ele>
        <time>2009-05-08T09:59:26Z</time>
      </trkpt>
      <trkpt lat="49.40891" lon="1.74497">
        <ele>196</ele>
        <time>2009-05-08T09:59:38Z</time>
      </trkpt>
      <trkpt lat="49.40883" lon="1.74478">
        <ele>195</ele>
        <time>2009-05-08T09:59:41Z</time>
      </trkpt>
      <trkpt lat="49.40844" lon="1.74404">
        <ele>192</ele>
        <time>2009-05-08T09:59:54Z</time>
      </trkpt>
      <trkpt lat="49.40825" lon="1.74356">
        <ele>190</ele>
        <time>2009-05-08T10:00:05Z</time>
      </trkpt>
      <trkpt lat="49.40866" lon="1.74295">
        <ele>193</ele>
        <time>2009-05-08T10:00:21Z</time>
      </trkpt>
      <trkpt lat="49.40893" lon="1.74259">
        <ele>196</ele>
        <time>2009-05-08T10:00:37Z</time>
      </trkpt>
      <trkpt lat="49.40927" lon="1.74217">
        <ele>199</ele>
        <time>2009-05-08T10:00:56Z</time>
      </trkpt>
      <trkpt lat="49.40976" lon="1.74144">
        <ele>201</ele>
        <time>2009-05-08T10:01:18Z</time>
      </trkpt>
      <trkpt lat="49.4103" lon="1.74076">
        <ele>201</ele>
        <time>2009-05-08T10:01:39Z</time>
      </trkpt>
      <trkpt lat="49.41084" lon="1.73997">
        <ele>198</ele>
        <time>2009-05-08T10:01:58Z</time>
      </trkpt>
      <trkpt lat="49.41088" lon="1.73987">
        <ele>197</ele>
        <time>2009-05-08T10:02:07Z</time>
      </trkpt>
      <trkpt lat="49.41095" lon="1.73975">
        <ele>197</ele>
        <time>2009-05-08T10:02:19Z</time>
      </trkpt>
      <trkpt lat="49.41167" lon="1.73948">
        <ele>195</ele>
        <time>2009-05-08T10:02:36Z</time>
      </trkpt>
      <trkpt lat="49.41241" lon="1.73937">
        <ele>197</ele>
        <time>2009-05-08T10:02:53Z</time>
      </trkpt>
      <trkpt lat="49.41305" lon="1.73874">
        <ele>199</ele>
        <time>2009-05-08T10:03:10Z</time>
      </trkpt>
      <trkpt lat="49.41361" lon="1.73794">
        <ele>203</ele>
        <time>2009-05-08T10:03:28Z</time>
      </trkpt>
      <trkpt lat="49.414" lon="1.73735">
        <ele>206</ele>
        <time>2009-05-08T10:03:42Z</time>
      </trkpt>
      <trkpt lat="49.41447" lon="1.73663">
        <ele>208</ele>
        <time>2009-05-08T10:04:02Z</time>
      </trkpt>
      <trkpt lat="49.41457" lon="1.73648">
        <ele>208</ele>
        <time>2009-05-08T10:04:08Z</time>
      </trkpt>
      <trkpt lat="49.41469" lon="1.7365">
        <ele>208</ele>
        <time>2009-05-08T10:04:17Z</time>
      </trkpt>
      <trkpt lat="49.41464" lon="1.73646">
        <ele>209</ele>
        <time>2009-05-08T10:04:30Z</time>
      </trkpt>
      <trkpt lat="49.41462" lon="1.73645">
        <ele>211</ele>
        <time>2009-05-08T10:05:19Z</time>
      </trkpt>
      <trkpt lat="49.41462" lon="1.73642">
        <ele>212</ele>
        <time>2009-05-08T10:06:02Z</time>
      </trkpt>
      <trkpt lat="49.41465" lon="1.73635">
        <ele>212</ele>
        <time>2009-05-08T10:06:06Z</time>
      </trkpt>
      <trkpt lat="49.415" lon="1.73572">
        <ele>210</ele>
        <time>2009-05-08T10:06:24Z</time>
      </trkpt>
      <trkpt lat="49.41528" lon="1.73528">
        <ele>206</ele>
        <time>2009-05-08T10:06:38Z</time>
      </trkpt>
      <trkpt lat="49.41539" lon="1.73509">
        <ele>205</ele>
        <time>2009-05-08T10:06:42Z</time>
      </trkpt>
      <trkpt lat="49.41553" lon="1.7349">
        <ele>203</ele>
        <time>2009-05-08T10:06:46Z</time>
      </trkpt>
      <trkpt lat="49.41573" lon="1.73472">
        <ele>202</ele>
        <time>2009-05-08T10:06:50Z</time>
      </trkpt>
      <trkpt lat="49.4163" lon="1.73433">
        <ele>196</ele>
        <time>2009-05-08T10:06:59Z</time>
      </trkpt>
      <trkpt lat="49.41668" lon="1.73422">
        <ele>194</ele>
        <time>2009-05-08T10:07:06Z</time>
      </trkpt>
      <trkpt lat="49.417" lon="1.73427">
        <ele>191</ele>
        <time>2009-05-08T10:07:15Z</time>
      </trkpt>
      <trkpt lat="49.41697" lon="1.7342">
        <ele>190</ele>
        <time>2009-05-08T10:07:17Z</time>
      </trkpt>
      <trkpt lat="49.41664" lon="1.73361">
        <ele>186</ele>
        <time>2009-05-08T10:07:27Z</time>
      </trkpt>
      <trkpt lat="49.41655" lon="1.73345">
        <ele>185</ele>
        <time>2009-05-08T10:07:30Z</time>
      </trkpt>
      <trkpt lat="49.41645" lon="1.73329">
        <ele>183</ele>
        <time>2009-05-08T10:07:33Z</time>
      </trkpt>
      <trkpt lat="49.41635" lon="1.73301">
        <ele>178</ele>
        <time>2009-05-08T10:07:37Z</time>
      </trkpt>
      <trkpt lat="49.41631" lon="1.73269">
        <ele>178</ele>
        <time>2009-05-08T10:07:40Z</time>
      </trkpt>
      <trkpt lat="49.41629" lon="1.73242">
        <ele>175</ele>
        <time>2009-05-08T10:07:43Z</time>
      </trkpt>
      <trkpt lat="49.4163" lon="1.73218">
        <ele>173</ele>
        <time>2009-05-08T10:07:46Z</time>
      </trkpt>
      <trkpt lat="49.41633" lon="1.73148">
        <ele>165</ele>
        <time>2009-05-08T10:07:54Z</time>
      </trkpt>
      <trkpt lat="49.4163" lon="1.73098">
        <ele>156</ele>
        <time>2009-05-08T10:08:01Z</time>
      </trkpt>
      <trkpt lat="49.41633" lon="1.73072">
        <ele>153</ele>
        <time>2009-05-08T10:08:05Z</time>
      </trkpt>
      <trkpt lat="49.41638" lon="1.73055">
        <ele>150</ele>
        <time>2009-05-08T10:08:08Z</time>
      </trkpt>
      <trkpt lat="49.41654" lon="1.73032">
        <ele>145</ele>
        <time>2009-05-08T10:08:13Z</time>
      </trkpt>
      <trkpt lat="49.41692" lon="1.72997">
        <ele>138</ele>
        <time>2009-05-08T10:08:21Z</time>
      </trkpt>
      <trkpt lat="49.4171" lon="1.72964">
        <ele>133</ele>
        <time>2009-05-08T10:08:26Z</time>
      </trkpt>
      <trkpt lat="49.41726" lon="1.72908">
        <ele>127</ele>
        <time>2009-05-08T10:08:32Z</time>
      </trkpt>
      <trkpt lat="49.41748" lon="1.72872">
        <ele>123</ele>
        <time>2009-05-08T10:08:38Z</time>
      </trkpt>
      <trkpt lat="49.41821" lon="1.72812">
        <ele>115</ele>
        <time>2009-05-08T10:08:51Z</time>
      </trkpt>
      <trkpt lat="49.41863" lon="1.72748">
        <ele>109</ele>
        <time>2009-05-08T10:08:58Z</time>
      </trkpt>
      <trkpt lat="49.41907" lon="1.72721">
        <ele>104</ele>
        <time>2009-05-08T10:09:04Z</time>
      </trkpt>
      <trkpt lat="49.4194" lon="1.72722">
        <ele>103</ele>
        <time>2009-05-08T10:09:08Z</time>
      </trkpt>
      <trkpt lat="49.41981" lon="1.72681">
        <ele>100</ele>
        <time>2009-05-08T10:09:15Z</time>
      </trkpt>
      <trkpt lat="49.42" lon="1.72629">
        <ele>98</ele>
        <time>2009-05-08T10:09:21Z</time>
      </trkpt>
      <trkpt lat="49.42021" lon="1.72611">
        <ele>97</ele>
        <time>2009-05-08T10:09:31Z</time>
      </trkpt>
      <trkpt lat="49.42022" lon="1.72614">
        <ele>97</ele>
        <time>2009-05-08T10:09:57Z</time>
      </trkpt>
      <trkpt lat="49.42054" lon="1.7264">
        <ele>97</ele>
        <time>2009-05-08T10:10:11Z</time>
      </trkpt>
      <trkpt lat="49.42103" lon="1.7266">
        <ele>96</ele>
        <time>2009-05-08T10:10:25Z</time>
      </trkpt>
      <trkpt lat="49.4213" lon="1.7266">
        <ele>95</ele>
        <time>2009-05-08T10:10:37Z</time>
      </trkpt>
      <trkpt lat="49.42153" lon="1.7266">
        <ele>94</ele>
        <time>2009-05-08T10:10:42Z</time>
      </trkpt>
      <trkpt lat="49.42179" lon="1.7263">
        <ele>92</ele>
        <time>2009-05-08T10:10:48Z</time>
      </trkpt>
      <trkpt lat="49.42199" lon="1.72561">
        <ele>89</ele>
        <time>2009-05-08T10:10:55Z</time>
      </trkpt>
      <trkpt lat="49.42223" lon="1.72523">
        <ele>86</ele>
        <time>2009-05-08T10:11:00Z</time>
      </trkpt>
      <trkpt lat="49.42235" lon="1.72516">
        <ele>85</ele>
        <time>2009-05-08T10:11:02Z</time>
      </trkpt>
      <trkpt lat="49.42263" lon="1.7251">
        <ele>83</ele>
        <time>2009-05-08T10:11:12Z</time>
      </trkpt>
      <trkpt lat="49.42264" lon="1.72506">
        <ele>84</ele>
        <time>2009-05-08T10:11:23Z</time>
      </trkpt>
      <trkpt lat="49.42258" lon="1.72494">
        <ele>83</ele>
        <time>2009-05-08T10:11:28Z</time>
      </trkpt>
      <trkpt lat="49.42252" lon="1.72488">
        <ele>82</ele>
        <time>2009-05-08T10:11:30Z</time>
      </trkpt>
      <trkpt lat="49.42237" lon="1.72455">
        <ele>82</ele>
        <time>2009-05-08T10:11:36Z</time>
      </trkpt>
      <trkpt lat="49.42231" lon="1.72385">
        <ele>83</ele>
        <time>2009-05-08T10:11:50Z</time>
      </trkpt>
      <trkpt lat="49.42232" lon="1.72315">
        <ele>83</ele>
        <time>2009-05-08T10:12:07Z</time>
      </trkpt>
      <trkpt lat="49.42236" lon="1.72217">
        <ele>82</ele>
        <time>2009-05-08T10:12:26Z</time>
      </trkpt>
      <trkpt lat="49.42246" lon="1.72167">
        <ele>82</ele>
        <time>2009-05-08T10:12:36Z</time>
      </trkpt>
      <trkpt lat="49.42248" lon="1.72099">
        <ele>83</ele>
        <time>2009-05-08T10:12:48Z</time>
      </trkpt>
      <trkpt lat="49.42241" lon="1.72016">
        <ele>84</ele>
        <time>2009-05-08T10:13:03Z</time>
      </trkpt>
      <trkpt lat="49.42246" lon="1.71912">
        <ele>85</ele>
        <time>2009-05-08T10:13:21Z</time>
      </trkpt>
      <trkpt lat="49.42246" lon="1.71795">
        <ele>87</ele>
        <time>2009-05-08T10:13:44Z</time>
      </trkpt>
      <trkpt lat="49.42232" lon="1.71748">
        <ele>88</ele>
        <time>2009-05-08T10:13:56Z</time>
      </trkpt>
      <trkpt lat="49.42229" lon="1.71733">
        <ele>88</ele>
        <time>2009-05-08T10:14:09Z</time>
      </trkpt>
      <trkpt lat="49.42228" lon="1.71726">
        <ele>88</ele>
        <time>2009-05-08T10:14:24Z</time>
      </trkpt>
      <trkpt lat="49.42236" lon="1.71717">
        <ele>87</ele>
        <time>2009-05-08T10:14:38Z</time>
      </trkpt>
      <trkpt lat="49.42237" lon="1.71717">
        <ele>87</ele>
        <time>2009-05-08T10:14:46Z</time>
      </trkpt>
      <trkpt lat="49.42236" lon="1.71683">
        <ele>89</ele>
        <time>2009-05-08T10:14:58Z</time>
      </trkpt>
      <trkpt lat="49.42236" lon="1.71679">
        <ele>89</ele>
        <time>2009-05-08T10:14:59Z</time>
      </trkpt>
      <trkpt lat="49.42242" lon="1.71604">
        <ele>91</ele>
        <time>2009-05-08T10:15:15Z</time>
      </trkpt>
      <trkpt lat="49.42247" lon="1.71536">
        <ele>93</ele>
        <time>2009-05-08T10:15:31Z</time>
      </trkpt>
      <trkpt lat="49.4225" lon="1.71469">
        <ele>95</ele>
        <time>2009-05-08T10:15:49Z</time>
      </trkpt>
      <trkpt lat="49.42219" lon="1.7146">
        <ele>98</ele>
        <time>2009-05-08T10:16:02Z</time>
      </trkpt>
      <trkpt lat="49.42186" lon="1.71481">
        <ele>101</ele>
        <time>2009-05-08T10:16:17Z</time>
      </trkpt>
      <trkpt lat="49.42144" lon="1.71487">
        <ele>102</ele>
        <time>2009-05-08T10:16:35Z</time>
      </trkpt>
      <trkpt lat="49.42101" lon="1.71451">
        <ele>96</ele>
        <time>2009-05-08T10:16:47Z</time>
      </trkpt>
      <trkpt lat="49.42083" lon="1.71424">
        <ele>93</ele>
        <time>2009-05-08T10:16:51Z</time>
      </trkpt>
      <trkpt lat="49.42078" lon="1.71373">
        <ele>92</ele>
        <time>2009-05-08T10:17:01Z</time>
      </trkpt>
      <trkpt lat="49.42101" lon="1.71298">
        <ele>93</ele>
        <time>2009-05-08T10:17:17Z</time>
      </trkpt>
      <trkpt lat="49.42124" lon="1.71224">
        <ele>95</ele>
        <time>2009-05-08T10:17:32Z</time>
      </trkpt>
      <trkpt lat="49.4215" lon="1.71151">
        <ele>96</ele>
        <time>2009-05-08T10:17:45Z</time>
      </trkpt>
      <trkpt lat="49.42168" lon="1.711">
        <ele>96</ele>
        <time>2009-05-08T10:17:54Z</time>
      </trkpt>
      <trkpt lat="49.42201" lon="1.70996">
        <ele>98</ele>
        <time>2009-05-08T10:18:13Z</time>
      </trkpt>
      <trkpt lat="49.42238" lon="1.70881">
        <ele>99</ele>
        <time>2009-05-08T10:18:37Z</time>
      </trkpt>
      <trkpt lat="49.42274" lon="1.7076">
        <ele>101</ele>
        <time>2009-05-08T10:19:00Z</time>
      </trkpt>
      <trkpt lat="49.42301" lon="1.70642">
        <ele>101</ele>
        <time>2009-05-08T10:19:20Z</time>
      </trkpt>
      <trkpt lat="49.42322" lon="1.70512">
        <ele>103</ele>
        <time>2009-05-08T10:19:43Z</time>
      </trkpt>
      <trkpt lat="49.42347" lon="1.70471">
        <ele>103</ele>
        <time>2009-05-08T10:19:52Z</time>
      </trkpt>
      <trkpt lat="49.42353" lon="1.70461">
        <ele>103</ele>
        <time>2009-05-08T10:19:54Z</time>
      </trkpt>
      <trkpt lat="49.42362" lon="1.7044">
        <ele>103</ele>
        <time>2009-05-08T10:19:58Z</time>
      </trkpt>
      <trkpt lat="49.42383" lon="1.70371">
        <ele>102</ele>
        <time>2009-05-08T10:20:11Z</time>
      </trkpt>
      <trkpt lat="49.42408" lon="1.70255">
        <ele>102</ele>
        <time>2009-05-08T10:20:30Z</time>
      </trkpt>
      <trkpt lat="49.42437" lon="1.7014">
        <ele>103</ele>
        <time>2009-05-08T10:20:50Z</time>
      </trkpt>
      <trkpt lat="49.42475" lon="1.70039">
        <ele>104</ele>
        <time>2009-05-08T10:21:10Z</time>
      </trkpt>
      <trkpt lat="49.42513" lon="1.69942">
        <ele>105</ele>
        <time>2009-05-08T10:21:29Z</time>
      </trkpt>
      <trkpt lat="49.42555" lon="1.69838">
        <ele>106</ele>
        <time>2009-05-08T10:21:50Z</time>
      </trkpt>
      <trkpt lat="49.42584" lon="1.69757">
        <ele>108</ele>
        <time>2009-05-08T10:22:06Z</time>
      </trkpt>
      <trkpt lat="49.4261" lon="1.69653">
        <ele>109</ele>
        <time>2009-05-08T10:22:26Z</time>
      </trkpt>
      <trkpt lat="49.42621" lon="1.69587">
        <ele>110</ele>
        <time>2009-05-08T10:22:41Z</time>
      </trkpt>
      <trkpt lat="49.4263" lon="1.6954">
        <ele>111</ele>
        <time>2009-05-08T10:22:53Z</time>
      </trkpt>
      <trkpt lat="49.42643" lon="1.69487">
        <ele>112</ele>
        <time>2009-05-08T10:23:05Z</time>
      </trkpt>
      <trkpt lat="49.42656" lon="1.69438">
        <ele>113</ele>
        <time>2009-05-08T10:23:17Z</time>
      </trkpt>
      <trkpt lat="49.42666" lon="1.69389">
        <ele>114</ele>
        <time>2009-05-08T10:23:29Z</time>
      </trkpt>
      <trkpt lat="49.42683" lon="1.69325">
        <ele>114</ele>
        <time>2009-05-08T10:23:45Z</time>
      </trkpt>
      <trkpt lat="49.42699" lon="1.69271">
        <ele>115</ele>
        <time>2009-05-08T10:24:00Z</time>
      </trkpt>
      <trkpt lat="49.42719" lon="1.69213">
        <ele>116</ele>
        <time>2009-05-08T10:24:17Z</time>
      </trkpt>
      <trkpt lat="49.4273" lon="1.69145">
        <ele>116</ele>
        <time>2009-05-08T10:24:35Z</time>
      </trkpt>
      <trkpt lat="49.42736" lon="1.69078">
        <ele>117</ele>
        <time>2009-05-08T10:24:52Z</time>
      </trkpt>
      <trkpt lat="49.42739" lon="1.69011">
        <ele>117</ele>
        <time>2009-05-08T10:25:09Z</time>
      </trkpt>
      <trkpt lat="49.42744" lon="1.68983">
        <ele>118</ele>
        <time>2009-05-08T10:25:17Z</time>
      </trkpt>
      <trkpt lat="49.42757" lon="1.68941">
        <ele>117</ele>
        <time>2009-05-08T10:25:28Z</time>
      </trkpt>
      <trkpt lat="49.4277" lon="1.68897">
        <ele>115</ele>
        <time>2009-05-08T10:25:40Z</time>
      </trkpt>
      <trkpt lat="49.42788" lon="1.68855">
        <ele>121</ele>
        <time>2009-05-08T10:25:55Z</time>
      </trkpt>
      <trkpt lat="49.42805" lon="1.68811">
        <ele>122</ele>
        <time>2009-05-08T10:26:10Z</time>
      </trkpt>
      <trkpt lat="49.42817" lon="1.68759">
        <ele>125</ele>
        <time>2009-05-08T10:26:25Z</time>
      </trkpt>
      <trkpt lat="49.42824" lon="1.68691">
        <ele>124</ele>
        <time>2009-05-08T10:26:44Z</time>
      </trkpt>
      <trkpt lat="49.42825" lon="1.68683">
        <ele>124</ele>
        <time>2009-05-08T10:26:46Z</time>
      </trkpt>
      <trkpt lat="49.42807" lon="1.68665">
        <ele>124</ele>
        <time>2009-05-08T10:26:55Z</time>
      </trkpt>
      <trkpt lat="49.42806" lon="1.68658">
        <ele>124</ele>
        <time>2009-05-08T10:26:57Z</time>
      </trkpt>
      <trkpt lat="49.42811" lon="1.68579">
        <ele>127</ele>
        <time>2009-05-08T10:27:16Z</time>
      </trkpt>
      <trkpt lat="49.42814" lon="1.68528">
        <ele>129</ele>
        <time>2009-05-08T10:27:28Z</time>
      </trkpt>
      <trkpt lat="49.42815" lon="1.68476">
        <ele>135</ele>
        <time>2009-05-08T10:27:39Z</time>
      </trkpt>
      <trkpt lat="49.42823" lon="1.68416">
        <ele>139</ele>
        <time>2009-05-08T10:27:50Z</time>
      </trkpt>
      <trkpt lat="49.42836" lon="1.68363">
        <ele>134</ele>
        <time>2009-05-08T10:27:59Z</time>
      </trkpt>
      <trkpt lat="49.42863" lon="1.68302">
        <ele>128</ele>
        <time>2009-05-08T10:28:14Z</time>
      </trkpt>
      <trkpt lat="49.42891" lon="1.68242">
        <ele>130</ele>
        <time>2009-05-08T10:28:30Z</time>
      </trkpt>
      <trkpt lat="49.42911" lon="1.68197">
        <ele>132</ele>
        <time>2009-05-08T10:28:42Z</time>
      </trkpt>
      <trkpt lat="49.42937" lon="1.68149">
        <ele>132</ele>
        <time>2009-05-08T10:28:50Z</time>
      </trkpt>
      <trkpt lat="49.42967" lon="1.68112">
        <ele>131</ele>
        <time>2009-05-08T10:29:00Z</time>
      </trkpt>
      <trkpt lat="49.43003" lon="1.6807">
        <ele>134</ele>
        <time>2009-05-08T10:29:13Z</time>
      </trkpt>
      <trkpt lat="49.43037" lon="1.68034">
        <ele>133</ele>
        <time>2009-05-08T10:29:25Z</time>
      </trkpt>
      <trkpt lat="49.43066" lon="1.68002">
        <ele>133</ele>
        <time>2009-05-08T10:29:36Z</time>
      </trkpt>
      <trkpt lat="49.43104" lon="1.67967">
        <ele>140</ele>
        <time>2009-05-08T10:29:49Z</time>
      </trkpt>
      <trkpt lat="49.43133" lon="1.67948">
        <ele>140</ele>
        <time>2009-05-08T10:29:59Z</time>
      </trkpt>
      <trkpt lat="49.43156" lon="1.67951">
        <ele>139</ele>
        <time>2009-05-08T10:30:11Z</time>
      </trkpt>
      <trkpt lat="49.4316" lon="1.67953">
        <ele>139</ele>
        <time>2009-05-08T10:30:14Z</time>
      </trkpt>
      <trkpt lat="49.4316" lon="1.67956">
        <ele>138</ele>
        <time>2009-05-08T10:30:32Z</time>
      </trkpt>
      <trkpt lat="49.43157" lon="1.67953">
        <ele>142</ele>
        <time>2009-05-08T10:31:19Z</time>
      </trkpt>
      <trkpt lat="49.43166" lon="1.67956">
        <ele>150</ele>
        <time>2009-05-08T10:32:18Z</time>
      </trkpt>
      <trkpt lat="49.43173" lon="1.67959">
        <ele>143</ele>
        <time>2009-05-08T10:33:12Z</time>
      </trkpt>
      <trkpt lat="49.43193" lon="1.67962">
        <ele>143</ele>
        <time>2009-05-08T10:33:22Z</time>
      </trkpt>
      <trkpt lat="49.43205" lon="1.67965">
        <ele>144</ele>
        <time>2009-05-08T10:33:27Z</time>
      </trkpt>
      <trkpt lat="49.43232" lon="1.67977">
        <ele>147</ele>
        <time>2009-05-08T10:33:38Z</time>
      </trkpt>
      <trkpt lat="49.43261" lon="1.67999">
        <ele>149</ele>
        <time>2009-05-08T10:33:51Z</time>
      </trkpt>
      <trkpt lat="49.43285" lon="1.68017">
        <ele>154</ele>
        <time>2009-05-08T10:34:03Z</time>
      </trkpt>
      <trkpt lat="49.43307" lon="1.68037">
        <ele>156</ele>
        <time>2009-05-08T10:34:15Z</time>
      </trkpt>
      <trkpt lat="49.43329" lon="1.68063">
        <ele>162</ele>
        <time>2009-05-08T10:34:28Z</time>
      </trkpt>
      <trkpt lat="49.43347" lon="1.6809">
        <ele>162</ele>
        <time>2009-05-08T10:34:41Z</time>
      </trkpt>
      <trkpt lat="49.43364" lon="1.68121">
        <ele>162</ele>
        <time>2009-05-08T10:34:53Z</time>
      </trkpt>
      <trkpt lat="49.43382" lon="1.68162">
        <ele>167</ele>
        <time>2009-05-08T10:35:07Z</time>
      </trkpt>
      <trkpt lat="49.43382" lon="1.68176">
        <ele>170</ele>
        <time>2009-05-08T10:35:11Z</time>
      </trkpt>
      <trkpt lat="49.43388" lon="1.68189">
        <ele>167</ele>
        <time>2009-05-08T10:35:16Z</time>
      </trkpt>
      <trkpt lat="49.43396" lon="1.68206">
        <ele>170</ele>
        <time>2009-05-08T10:35:23Z</time>
      </trkpt>
      <trkpt lat="49.43401" lon="1.68257">
        <ele>175</ele>
        <time>2009-05-08T10:35:39Z</time>
      </trkpt>
      <trkpt lat="49.4342" lon="1.68283">
        <ele>175</ele>
        <time>2009-05-08T10:35:52Z</time>
      </trkpt>
      <trkpt lat="49.43447" lon="1.68298">
        <ele>178</ele>
        <time>2009-05-08T10:36:05Z</time>
      </trkpt>
      <trkpt lat="49.43461" lon="1.68309">
        <ele>177</ele>
        <time>2009-05-08T10:36:13Z</time>
      </trkpt>
      <trkpt lat="49.43485" lon="1.68321">
        <ele>175</ele>
        <time>2009-05-08T10:36:27Z</time>
      </trkpt>
      <trkpt lat="49.43501" lon="1.68332">
        <ele>175</ele>
        <time>2009-05-08T10:36:37Z</time>
      </trkpt>
      <trkpt lat="49.43508" lon="1.68339">
        <ele>178</ele>
        <time>2009-05-08T10:36:42Z</time>
      </trkpt>
      <trkpt lat="49.43512" lon="1.68339">
        <ele>178</ele>
        <time>2009-05-08T10:36:44Z</time>
      </trkpt>
      <trkpt lat="49.4354" lon="1.68359">
        <ele>179</ele>
        <time>2009-05-08T10:36:59Z</time>
      </trkpt>
      <trkpt lat="49.43563" lon="1.68383">
        <ele>189</ele>
        <time>2009-05-08T10:37:12Z</time>
      </trkpt>
      <trkpt lat="49.43568" lon="1.68389">
        <ele>189</ele>
        <time>2009-05-08T10:37:16Z</time>
      </trkpt>
      <trkpt lat="49.43594" lon="1.6841">
        <ele>192</ele>
        <time>2009-05-08T10:37:31Z</time>
      </trkpt>
      <trkpt lat="49.43605" lon="1.68417">
        <ele>189</ele>
        <time>2009-05-08T10:37:37Z</time>
      </trkpt>
      <trkpt lat="49.43612" lon="1.68422">
        <ele>190</ele>
        <time>2009-05-08T10:37:41Z</time>
      </trkpt>
      <trkpt lat="49.43639" lon="1.68439">
        <ele>190</ele>
        <time>2009-05-08T10:37:55Z</time>
      </trkpt>
      <trkpt lat="49.43649" lon="1.68447">
        <ele>193</ele>
        <time>2009-05-08T10:38:01Z</time>
      </trkpt>
      <trkpt lat="49.43677" lon="1.68445">
        <ele>194</ele>
        <time>2009-05-08T10:38:14Z</time>
      </trkpt>
      <trkpt lat="49.43692" lon="1.68448">
        <ele>191</ele>
        <time>2009-05-08T10:38:23Z</time>
      </trkpt>
      <trkpt lat="49.43706" lon="1.68445">
        <ele>191</ele>
        <time>2009-05-08T10:38:30Z</time>
      </trkpt>
      <trkpt lat="49.43716" lon="1.6845">
        <ele>192</ele>
        <time>2009-05-08T10:38:35Z</time>
      </trkpt>
      <trkpt lat="49.43752" lon="1.68457">
        <ele>198</ele>
        <time>2009-05-08T10:38:51Z</time>
      </trkpt>
      <trkpt lat="49.43776" lon="1.68466">
        <ele>201</ele>
        <time>2009-05-08T10:39:03Z</time>
      </trkpt>
      <trkpt lat="49.43788" lon="1.68471">
        <ele>201</ele>
        <time>2009-05-08T10:39:09Z</time>
      </trkpt>
      <trkpt lat="49.43814" lon="1.68483">
        <ele>202</ele>
        <time>2009-05-08T10:39:21Z</time>
      </trkpt>
      <trkpt lat="49.4384" lon="1.68496">
        <ele>205</ele>
        <time>2009-05-08T10:39:33Z</time>
      </trkpt>
      <trkpt lat="49.43844" lon="1.68498">
        <ele>205</ele>
        <time>2009-05-08T10:39:35Z</time>
      </trkpt>
      <trkpt lat="49.43846" lon="1.68501">
        <ele>204</ele>
        <time>2009-05-08T10:39:37Z</time>
      </trkpt>
      <trkpt lat="49.43851" lon="1.68508">
        <ele>212</ele>
        <time>2009-05-08T10:39:55Z</time>
      </trkpt>
      <trkpt lat="49.4386" lon="1.68504">
        <ele>218</ele>
        <time>2009-05-08T10:40:25Z</time>
      </trkpt>
      <trkpt lat="49.43859" lon="1.68503">
        <ele>211</ele>
        <time>2009-05-08T10:41:24Z</time>
      </trkpt>
      <trkpt lat="49.43866" lon="1.68506">
        <ele>222</ele>
        <time>2009-05-08T10:43:38Z</time>
      </trkpt>
      <trkpt lat="49.43859" lon="1.68501">
        <ele>217</ele>
        <time>2009-05-08T10:43:42Z</time>
      </trkpt>
      <trkpt lat="49.43852" lon="1.68506">
        <ele>214</ele>
        <time>2009-05-08T10:43:47Z</time>
      </trkpt>
      <trkpt lat="49.43844" lon="1.68516">
        <ele>209</ele>
        <time>2009-05-08T10:44:00Z</time>
      </trkpt>
      <trkpt lat="49.43825" lon="1.68557">
        <ele>220</ele>
        <time>2009-05-08T10:44:18Z</time>
      </trkpt>
      <trkpt lat="49.43809" lon="1.68583">
        <ele>223</ele>
        <time>2009-05-08T10:44:31Z</time>
      </trkpt>
      <trkpt lat="49.43802" lon="1.68592">
        <ele>215</ele>
        <time>2009-05-08T10:44:43Z</time>
      </trkpt>
      <trkpt lat="49.43793" lon="1.68581">
        <ele>214</ele>
        <time>2009-05-08T10:44:59Z</time>
      </trkpt>
      <trkpt lat="49.43787" lon="1.68581">
        <ele>210</ele>
        <time>2009-05-08T10:45:23Z</time>
      </trkpt>
      <trkpt lat="49.43793" lon="1.68577">
        <ele>209</ele>
        <time>2009-05-08T10:45:34Z</time>
      </trkpt>
      <trkpt lat="49.43797" lon="1.6857">
        <ele>216</ele>
        <time>2009-05-08T10:45:51Z</time>
      </trkpt>
      <trkpt lat="49.43809" lon="1.68568">
        <ele>221</ele>
        <time>2009-05-08T10:46:29Z</time>
      </trkpt>
      <trkpt lat="49.43807" lon="1.68567">
        <ele>230</ele>
        <time>2009-05-08T10:51:39Z</time>
      </trkpt>
      <trkpt lat="49.43811" lon="1.68565">
        <ele>237</ele>
        <time>2009-05-08T10:53:41Z</time>
      </trkpt>
      <trkpt lat="49.43802" lon="1.68565">
        <ele>230</ele>
        <time>2009-05-08T10:55:13Z</time>
      </trkpt>
      <trkpt lat="49.43829" lon="1.68571">
        <ele>240</ele>
        <time>2009-05-08T10:57:25Z</time>
      </trkpt>
      <trkpt lat="49.43807" lon="1.6857">
        <ele>222</ele>
        <time>2009-05-08T11:07:08Z</time>
      </trkpt>
      <trkpt lat="49.43822" lon="1.68571">
        <ele>221</ele>
        <time>2009-05-08T11:12:14Z</time>
      </trkpt>
      <trkpt lat="49.43821" lon="1.68572">
        <ele>221</ele>
        <time>2009-05-08T11:13:34Z</time>
      </trkpt>
      <trkpt lat="49.4382" lon="1.68571">
        <ele>224</ele>
        <time>2009-05-08T11:14:56Z</time>
      </trkpt>
      <trkpt lat="49.43826" lon="1.68569">
        <ele>220</ele>
        <time>2009-05-08T11:16:18Z</time>
      </trkpt>
      <trkpt lat="49.43821" lon="1.68569">
        <ele>215</ele>
        <time>2009-05-08T11:17:00Z</time>
      </trkpt>
      <trkpt lat="49.43815" lon="1.68577">
        <ele>212</ele>
        <time>2009-05-08T11:17:55Z</time>
      </trkpt>
      <trkpt lat="49.43811" lon="1.68588">
        <ele>211</ele>
        <time>2009-05-08T11:18:11Z</time>
      </trkpt>
      <trkpt lat="49.43809" lon="1.68598">
        <ele>211</ele>
        <time>2009-05-08T11:18:31Z</time>
      </trkpt>
      <trkpt lat="49.43806" lon="1.68595">
        <ele>214</ele>
        <time>2009-05-08T11:19:02Z</time>
      </trkpt>
      <trkpt lat="49.43803" lon="1.68586">
        <ele>220</ele>
        <time>2009-05-08T11:19:36Z</time>
      </trkpt>
      <trkpt lat="49.438" lon="1.68574">
        <ele>228</ele>
        <time>2009-05-08T11:20:36Z</time>
      </trkpt>
      <trkpt lat="49.43805" lon="1.68583">
        <ele>222</ele>
        <time>2009-05-08T11:21:22Z</time>
      </trkpt>
      <trkpt lat="49.43809" lon="1.6859">
        <ele>214</ele>
        <time>2009-05-08T11:21:56Z</time>
      </trkpt>
      <trkpt lat="49.43811" lon="1.68587">
        <ele>208</ele>
        <time>2009-05-08T11:22:08Z</time>
      </trkpt>
      <trkpt lat="49.43816" lon="1.68573">
        <ele>205</ele>
        <time>2009-05-08T11:22:14Z</time>
      </trkpt>
      <trkpt lat="49.43824" lon="1.68553">
        <ele>205</ele>
        <time>2009-05-08T11:22:20Z</time>
      </trkpt>
      <trkpt lat="49.43848" lon="1.68511">
        <ele>204</ele>
        <time>2009-05-08T11:22:31Z</time>
      </trkpt>
      <trkpt lat="49.43865" lon="1.68463">
        <ele>205</ele>
        <time>2009-05-08T11:22:41Z</time>
      </trkpt>
      <trkpt lat="49.43885" lon="1.68411">
        <ele>204</ele>
        <time>2009-05-08T11:22:54Z</time>
      </trkpt>
      <trkpt lat="49.43911" lon="1.68352">
        <ele>207</ele>
        <time>2009-05-08T11:23:12Z</time>
      </trkpt>
      <trkpt lat="49.43934" lon="1.68293">
        <ele>208</ele>
        <time>2009-05-08T11:23:28Z</time>
      </trkpt>
      <trkpt lat="49.43956" lon="1.68217">
        <ele>209</ele>
        <time>2009-05-08T11:23:45Z</time>
      </trkpt>
      <trkpt lat="49.43977" lon="1.68132">
        <ele>210</ele>
        <time>2009-05-08T11:24:03Z</time>
      </trkpt>
      <trkpt lat="49.44012" lon="1.68042">
        <ele>212</ele>
        <time>2009-05-08T11:24:22Z</time>
      </trkpt>
      <trkpt lat="49.44019" lon="1.67945">
        <ele>212</ele>
        <time>2009-05-08T11:24:38Z</time>
      </trkpt>
      <trkpt lat="49.44024" lon="1.67856">
        <ele>212</ele>
        <time>2009-05-08T11:24:52Z</time>
      </trkpt>
      <trkpt lat="49.44045" lon="1.67849">
        <ele>212</ele>
        <time>2009-05-08T11:24:58Z</time>
      </trkpt>
      <trkpt lat="49.44109" lon="1.67871">
        <ele>210</ele>
        <time>2009-05-08T11:25:14Z</time>
      </trkpt>
      <trkpt lat="49.4419" lon="1.67914">
        <ele>208</ele>
        <time>2009-05-08T11:25:31Z</time>
      </trkpt>
      <trkpt lat="49.44287" lon="1.67947">
        <ele>208</ele>
        <time>2009-05-08T11:25:50Z</time>
      </trkpt>
      <trkpt lat="49.44353" lon="1.67983">
        <ele>212</ele>
        <time>2009-05-08T11:26:07Z</time>
      </trkpt>
      <trkpt lat="49.44369" lon="1.68012">
        <ele>213</ele>
        <time>2009-05-08T11:26:15Z</time>
      </trkpt>
      <trkpt lat="49.44387" lon="1.6804">
        <ele>214</ele>
        <time>2009-05-08T11:26:30Z</time>
      </trkpt>
      <trkpt lat="49.44399" lon="1.68059">
        <ele>214</ele>
        <time>2009-05-08T11:26:42Z</time>
      </trkpt>
      <trkpt lat="49.44415" lon="1.68084">
        <ele>214</ele>
        <time>2009-05-08T11:26:54Z</time>
      </trkpt>
      <trkpt lat="49.44418" lon="1.68086">
        <ele>215</ele>
        <time>2009-05-08T11:26:55Z</time>
      </trkpt>
      <trkpt lat="49.44431" lon="1.68115">
        <ele>213</ele>
        <time>2009-05-08T11:27:05Z</time>
      </trkpt>
      <trkpt lat="49.44439" lon="1.68141">
        <ele>214</ele>
        <time>2009-05-08T11:27:21Z</time>
      </trkpt>
      <trkpt lat="49.44442" lon="1.6815">
        <ele>214</ele>
        <time>2009-05-08T11:27:41Z</time>
      </trkpt>
      <trkpt lat="49.44444" lon="1.68157">
        <ele>215</ele>
        <time>2009-05-08T11:28:00Z</time>
      </trkpt>
      <trkpt lat="49.44447" lon="1.68165">
        <ele>216</ele>
        <time>2009-05-08T11:28:21Z</time>
      </trkpt>
      <trkpt lat="49.4445" lon="1.68172">
        <ele>216</ele>
        <time>2009-05-08T11:28:34Z</time>
      </trkpt>
      <trkpt lat="49.44457" lon="1.68194">
        <ele>215</ele>
        <time>2009-05-08T11:28:55Z</time>
      </trkpt>
      <trkpt lat="49.44467" lon="1.68223">
        <ele>214</ele>
        <time>2009-05-08T11:29:11Z</time>
      </trkpt>
      <trkpt lat="49.44469" lon="1.68231">
        <ele>214</ele>
        <time>2009-05-08T11:29:24Z</time>
      </trkpt>
      <trkpt lat="49.44472" lon="1.68242">
        <ele>215</ele>
        <time>2009-05-08T11:30:02Z</time>
      </trkpt>
      <trkpt lat="49.44478" lon="1.68264">
        <ele>216</ele>
        <time>2009-05-08T11:30:18Z</time>
      </trkpt>
      <trkpt lat="49.44481" lon="1.68276">
        <ele>216</ele>
        <time>2009-05-08T11:30:31Z</time>
      </trkpt>
      <trkpt lat="49.44489" lon="1.68308">
        <ele>216</ele>
        <time>2009-05-08T11:30:48Z</time>
      </trkpt>
      <trkpt lat="49.44493" lon="1.68322">
        <ele>216</ele>
        <time>2009-05-08T11:30:59Z</time>
      </trkpt>
      <trkpt lat="49.44494" lon="1.68326">
        <ele>216</ele>
        <time>2009-05-08T11:31:01Z</time>
      </trkpt>
      <trkpt lat="49.44495" lon="1.68328">
        <ele>216</ele>
        <time>2009-05-08T11:31:03Z</time>
      </trkpt>
      <trkpt lat="49.44502" lon="1.68361">
        <ele>215</ele>
        <time>2009-05-08T11:31:19Z</time>
      </trkpt>
      <trkpt lat="49.44509" lon="1.68383">
        <ele>215</ele>
        <time>2009-05-08T11:31:33Z</time>
      </trkpt>
      <trkpt lat="49.44511" lon="1.68387">
        <ele>215</ele>
        <time>2009-05-08T11:31:47Z</time>
      </trkpt>
      <trkpt lat="49.44515" lon="1.68413">
        <ele>214</ele>
        <time>2009-05-08T11:32:00Z</time>
      </trkpt>
      <trkpt lat="49.44528" lon="1.68444">
        <ele>217</ele>
        <time>2009-05-08T11:32:12Z</time>
      </trkpt>
      <trkpt lat="49.44544" lon="1.68471">
        <ele>220</ele>
        <time>2009-05-08T11:32:24Z</time>
      </trkpt>
      <trkpt lat="49.44554" lon="1.6849">
        <ele>221</ele>
        <time>2009-05-08T11:32:33Z</time>
      </trkpt>
      <trkpt lat="49.44559" lon="1.68502">
        <ele>221</ele>
        <time>2009-05-08T11:32:38Z</time>
      </trkpt>
      <trkpt lat="49.44575" lon="1.68528">
        <ele>221</ele>
        <time>2009-05-08T11:32:51Z</time>
      </trkpt>
      <trkpt lat="49.44583" lon="1.68537">
        <ele>223</ele>
        <time>2009-05-08T11:33:05Z</time>
      </trkpt>
      <trkpt lat="49.44586" lon="1.68543">
        <ele>220</ele>
        <time>2009-05-08T11:33:36Z</time>
      </trkpt>
      <trkpt lat="49.4459" lon="1.68545">
        <ele>217</ele>
        <time>2009-05-08T11:33:55Z</time>
      </trkpt>
      <trkpt lat="49.44608" lon="1.68582">
        <ele>217</ele>
        <time>2009-05-08T11:34:09Z</time>
      </trkpt>
      <trkpt lat="49.4463" lon="1.68628">
        <ele>217</ele>
        <time>2009-05-08T11:34:23Z</time>
      </trkpt>
      <trkpt lat="49.44651" lon="1.68679">
        <ele>216</ele>
        <time>2009-05-08T11:34:39Z</time>
      </trkpt>
      <trkpt lat="49.44667" lon="1.68728">
        <ele>216</ele>
        <time>2009-05-08T11:34:53Z</time>
      </trkpt>
      <trkpt lat="49.44683" lon="1.68782">
        <ele>215</ele>
        <time>2009-05-08T11:35:08Z</time>
      </trkpt>
      <trkpt lat="49.44699" lon="1.68843">
        <ele>215</ele>
        <time>2009-05-08T11:35:24Z</time>
      </trkpt>
      <trkpt lat="49.44713" lon="1.68904">
        <ele>210</ele>
        <time>2009-05-08T11:35:38Z</time>
      </trkpt>
      <trkpt lat="49.44735" lon="1.68972">
        <ele>211</ele>
        <time>2009-05-08T11:35:53Z</time>
      </trkpt>
      <trkpt lat="49.44745" lon="1.69009">
        <ele>210</ele>
        <time>2009-05-08T11:36:04Z</time>
      </trkpt>
      <trkpt lat="49.44748" lon="1.69013">
        <ele>211</ele>
        <time>2009-05-08T11:36:20Z</time>
      </trkpt>
      <trkpt lat="49.44752" lon="1.69012">
        <ele>217</ele>
        <time>2009-05-08T11:36:47Z</time>
      </trkpt>
      <trkpt lat="49.44752" lon="1.69019">
        <ele>216</ele>
        <time>2009-05-08T11:37:14Z</time>
      </trkpt>
      <trkpt lat="49.44751" lon="1.69023">
        <ele>212</ele>
        <time>2009-05-08T11:37:28Z</time>
      </trkpt>
      <trkpt lat="49.44781" lon="1.69029">
        <ele>211</ele>
        <time>2009-05-08T11:37:41Z</time>
      </trkpt>
      <trkpt lat="49.4483" lon="1.69005">
        <ele>214</ele>
        <time>2009-05-08T11:37:57Z</time>
      </trkpt>
      <trkpt lat="49.44882" lon="1.68956">
        <ele>214</ele>
        <time>2009-05-08T11:38:14Z</time>
      </trkpt>
      <trkpt lat="49.44929" lon="1.68877">
        <ele>214</ele>
        <time>2009-05-08T11:38:31Z</time>
      </trkpt>
      <trkpt lat="49.44967" lon="1.68818">
        <ele>214</ele>
        <time>2009-05-08T11:38:47Z</time>
      </trkpt>
      <trkpt lat="49.4501" lon="1.68755">
        <ele>214</ele>
        <time>2009-05-08T11:39:04Z</time>
      </trkpt>
      <trkpt lat="49.45057" lon="1.68691">
        <ele>214</ele>
        <time>2009-05-08T11:39:22Z</time>
      </trkpt>
      <trkpt lat="49.45075" lon="1.68673">
        <ele>214</ele>
        <time>2009-05-08T11:39:29Z</time>
      </trkpt>
      <trkpt lat="49.45096" lon="1.68685">
        <ele>213</ele>
        <time>2009-05-08T11:39:36Z</time>
      </trkpt>
      <trkpt lat="49.45133" lon="1.68693">
        <ele>211</ele>
        <time>2009-05-08T11:39:48Z</time>
      </trkpt>
      <trkpt lat="49.45171" lon="1.68706">
        <ele>210</ele>
        <time>2009-05-08T11:40:03Z</time>
      </trkpt>
      <trkpt lat="49.45176" lon="1.68708">
        <ele>209</ele>
        <time>2009-05-08T11:40:16Z</time>
      </trkpt>
      <trkpt lat="49.45178" lon="1.68709">
        <ele>210</ele>
        <time>2009-05-08T11:41:13Z</time>
      </trkpt>
      <trkpt lat="49.45181" lon="1.68711">
        <ele>210</ele>
        <time>2009-05-08T11:41:33Z</time>
      </trkpt>
      <trkpt lat="49.45202" lon="1.6873">
        <ele>209</ele>
        <time>2009-05-08T11:42:06Z</time>
      </trkpt>
      <trkpt lat="49.45264" lon="1.68791">
        <ele>202</ele>
        <time>2009-05-08T11:42:18Z</time>
      </trkpt>
      <trkpt lat="49.45283" lon="1.68807">
        <ele>199</ele>
        <time>2009-05-08T11:42:21Z</time>
      </trkpt>
      <trkpt lat="49.45326" lon="1.68803">
        <ele>195</ele>
        <time>2009-05-08T11:42:27Z</time>
      </trkpt>
      <trkpt lat="49.45382" lon="1.68689">
        <ele>189</ele>
        <time>2009-05-08T11:42:38Z</time>
      </trkpt>
      <trkpt lat="49.45395" lon="1.68609">
        <ele>184</ele>
        <time>2009-05-08T11:42:47Z</time>
      </trkpt>
      <trkpt lat="49.45398" lon="1.68594">
        <ele>183</ele>
        <time>2009-05-08T11:42:59Z</time>
      </trkpt>
      <trkpt lat="49.45419" lon="1.68576">
        <ele>180</ele>
        <time>2009-05-08T11:43:08Z</time>
      </trkpt>
      <trkpt lat="49.45493" lon="1.68525">
        <ele>175</ele>
        <time>2009-05-08T11:43:20Z</time>
      </trkpt>
      <trkpt lat="49.45574" lon="1.6843">
        <ele>168</ele>
        <time>2009-05-08T11:43:32Z</time>
      </trkpt>
      <trkpt lat="49.45663" lon="1.68402">
        <ele>162</ele>
        <time>2009-05-08T11:43:42Z</time>
      </trkpt>
      <trkpt lat="49.45678" lon="1.68406">
        <ele>161</ele>
        <time>2009-05-08T11:43:44Z</time>
      </trkpt>
      <trkpt lat="49.45694" lon="1.68388">
        <ele>159</ele>
        <time>2009-05-08T11:43:49Z</time>
      </trkpt>
      <trkpt lat="49.45718" lon="1.68238">
        <ele>153</ele>
        <time>2009-05-08T11:44:03Z</time>
      </trkpt>
      <trkpt lat="49.45755" lon="1.68071">
        <ele>152</ele>
        <time>2009-05-08T11:44:19Z</time>
      </trkpt>
      <trkpt lat="49.4581" lon="1.67945">
        <ele>152</ele>
        <time>2009-05-08T11:44:36Z</time>
      </trkpt>
      <trkpt lat="49.4586" lon="1.67853">
        <ele>154</ele>
        <time>2009-05-08T11:44:52Z</time>
      </trkpt>
      <trkpt lat="49.45893" lon="1.67783">
        <ele>156</ele>
        <time>2009-05-08T11:45:11Z</time>
      </trkpt>
      <trkpt lat="49.45921" lon="1.67691">
        <ele>160</ele>
        <time>2009-05-08T11:45:33Z</time>
      </trkpt>
      <trkpt lat="49.45945" lon="1.67615">
        <ele>162</ele>
        <time>2009-05-08T11:45:53Z</time>
      </trkpt>
      <trkpt lat="49.45974" lon="1.6753">
        <ele>164</ele>
        <time>2009-05-08T11:46:12Z</time>
      </trkpt>
      <trkpt lat="49.4601" lon="1.67464">
        <ele>165</ele>
        <time>2009-05-08T11:46:31Z</time>
      </trkpt>
      <trkpt lat="49.46042" lon="1.67407">
        <ele>167</ele>
        <time>2009-05-08T11:46:50Z</time>
      </trkpt>
      <trkpt lat="49.46054" lon="1.67389">
        <ele>168</ele>
        <time>2009-05-08T11:47:02Z</time>
      </trkpt>
      <trkpt lat="49.46055" lon="1.67384">
        <ele>169</ele>
        <time>2009-05-08T11:47:15Z</time>
      </trkpt>
      <trkpt lat="49.46068" lon="1.67359">
        <ele>171</ele>
        <time>2009-05-08T11:47:30Z</time>
      </trkpt>
      <trkpt lat="49.46069" lon="1.67358">
        <ele>171</ele>
        <time>2009-05-08T11:47:32Z</time>
      </trkpt>
      <trkpt lat="49.4607" lon="1.67354">
        <ele>171</ele>
        <time>2009-05-08T11:47:51Z</time>
      </trkpt>
      <trkpt lat="49.4607" lon="1.67357">
        <ele>170</ele>
        <time>2009-05-08T11:49:08Z</time>
      </trkpt>
      <trkpt lat="49.4607" lon="1.67358">
        <ele>171</ele>
        <time>2009-05-08T11:49:55Z</time>
      </trkpt>
      <trkpt lat="49.46069" lon="1.67358">
        <ele>171</ele>
        <time>2009-05-08T11:50:44Z</time>
      </trkpt>
      <trkpt lat="49.4607" lon="1.67359">
        <ele>170</ele>
        <time>2009-05-08T11:52:14Z</time>
      </trkpt>
      <trkpt lat="49.46066" lon="1.67366">
        <ele>170</ele>
        <time>2009-05-08T11:53:04Z</time>
      </trkpt>
      <trkpt lat="49.46066" lon="1.67366">
        <ele>170</ele>
        <time>2009-05-08T11:53:50Z</time>
      </trkpt>
      <trkpt lat="49.46066" lon="1.67364">
        <ele>168</ele>
        <time>2009-05-08T11:56:57Z</time>
      </trkpt>
      <trkpt lat="49.46065" lon="1.67366">
        <ele>169</ele>
        <time>2009-05-08T11:58:19Z</time>
      </trkpt>
      <trkpt lat="49.46065" lon="1.67366">
        <ele>169</ele>
        <time>2009-05-08T11:58:28Z</time>
      </trkpt>
      <trkpt lat="49.46066" lon="1.67366">
        <ele>169</ele>
        <time>2009-05-08T11:58:38Z</time>
      </trkpt>
      <trkpt lat="49.46067" lon="1.67367">
        <ele>169</ele>
        <time>2009-05-08T11:58:51Z</time>
      </trkpt>
      <trkpt lat="49.4607" lon="1.67367">
        <ele>169</ele>
        <time>2009-05-08T11:58:53Z</time>
      </trkpt>
      <trkpt lat="49.46073" lon="1.67362">
        <ele>169</ele>
        <time>2009-05-08T11:59:06Z</time>
      </trkpt>
      <trkpt lat="49.4608" lon="1.67326">
        <ele>171</ele>
        <time>2009-05-08T11:59:21Z</time>
      </trkpt>
      <trkpt lat="49.46099" lon="1.67272">
        <ele>171</ele>
        <time>2009-05-08T11:59:38Z</time>
      </trkpt>
      <trkpt lat="49.4612" lon="1.67223">
        <ele>170</ele>
        <time>2009-05-08T11:59:52Z</time>
      </trkpt>
      <trkpt lat="49.46149" lon="1.67178">
        <ele>170</ele>
        <time>2009-05-08T12:00:08Z</time>
      </trkpt>
      <trkpt lat="49.46181" lon="1.6713">
        <ele>170</ele>
        <time>2009-05-08T12:00:27Z</time>
      </trkpt>
      <trkpt lat="49.46214" lon="1.67087">
        <ele>165</ele>
        <time>2009-05-08T12:00:38Z</time>
      </trkpt>
      <trkpt lat="49.4631" lon="1.67006">
        <ele>160</ele>
        <time>2009-05-08T12:00:53Z</time>
      </trkpt>
      <trkpt lat="49.46369" lon="1.66957">
        <ele>159</ele>
        <time>2009-05-08T12:01:06Z</time>
      </trkpt>
      <trkpt lat="49.4642" lon="1.66875">
        <ele>156</ele>
        <time>2009-05-08T12:01:19Z</time>
      </trkpt>
      <trkpt lat="49.46449" lon="1.66806">
        <ele>158</ele>
        <time>2009-05-08T12:01:33Z</time>
      </trkpt>
      <trkpt lat="49.46471" lon="1.66754">
        <ele>161</ele>
        <time>2009-05-08T12:01:50Z</time>
      </trkpt>
      <trkpt lat="49.46493" lon="1.66709">
        <ele>164</ele>
        <time>2009-05-08T12:02:07Z</time>
      </trkpt>
      <trkpt lat="49.46503" lon="1.66685">
        <ele>163</ele>
        <time>2009-05-08T12:02:14Z</time>
      </trkpt>
      <trkpt lat="49.4653" lon="1.66636">
        <ele>160</ele>
        <time>2009-05-08T12:02:22Z</time>
      </trkpt>
      <trkpt lat="49.46547" lon="1.66597">
        <ele>160</ele>
        <time>2009-05-08T12:02:28Z</time>
      </trkpt>
      <trkpt lat="49.46584" lon="1.66518">
        <ele>160</ele>
        <time>2009-05-08T12:02:45Z</time>
      </trkpt>
      <trkpt lat="49.46615" lon="1.66457">
        <ele>163</ele>
        <time>2009-05-08T12:03:01Z</time>
      </trkpt>
      <trkpt lat="49.46644" lon="1.66399">
        <ele>166</ele>
        <time>2009-05-08T12:03:17Z</time>
      </trkpt>
      <trkpt lat="49.4667" lon="1.66356">
        <ele>166</ele>
        <time>2009-05-08T12:03:33Z</time>
      </trkpt>
      <trkpt lat="49.46676" lon="1.66342">
        <ele>165</ele>
        <time>2009-05-08T12:03:37Z</time>
      </trkpt>
      <trkpt lat="49.46732" lon="1.66253">
        <ele>160</ele>
        <time>2009-05-08T12:03:51Z</time>
      </trkpt>
      <trkpt lat="49.46787" lon="1.66176">
        <ele>158</ele>
        <time>2009-05-08T12:04:06Z</time>
      </trkpt>
      <trkpt lat="49.46838" lon="1.66079">
        <ele>156</ele>
        <time>2009-05-08T12:04:23Z</time>
      </trkpt>
      <trkpt lat="49.4689" lon="1.6602">
        <ele>156</ele>
        <time>2009-05-08T12:04:40Z</time>
      </trkpt>
      <trkpt lat="49.46957" lon="1.6595">
        <ele>156</ele>
        <time>2009-05-08T12:04:59Z</time>
      </trkpt>
      <trkpt lat="49.47026" lon="1.65872">
        <ele>156</ele>
        <time>2009-05-08T12:05:20Z</time>
      </trkpt>
      <trkpt lat="49.47061" lon="1.65803">
        <ele>159</ele>
        <time>2009-05-08T12:05:36Z</time>
      </trkpt>
      <trkpt lat="49.47094" lon="1.65729">
        <ele>162</ele>
        <time>2009-05-08T12:05:55Z</time>
      </trkpt>
      <trkpt lat="49.47093" lon="1.65671">
        <ele>164</ele>
        <time>2009-05-08T12:06:09Z</time>
      </trkpt>
      <trkpt lat="49.47075" lon="1.65605">
        <ele>166</ele>
        <time>2009-05-08T12:06:27Z</time>
      </trkpt>
      <trkpt lat="49.47097" lon="1.65546">
        <ele>165</ele>
        <time>2009-05-08T12:06:40Z</time>
      </trkpt>
      <trkpt lat="49.4715" lon="1.65475">
        <ele>165</ele>
        <time>2009-05-08T12:06:58Z</time>
      </trkpt>
      <trkpt lat="49.47192" lon="1.6541">
        <ele>167</ele>
        <time>2009-05-08T12:07:14Z</time>
      </trkpt>
      <trkpt lat="49.47228" lon="1.65347">
        <ele>169</ele>
        <time>2009-05-08T12:07:30Z</time>
      </trkpt>
      <trkpt lat="49.47251" lon="1.65316">
        <ele>172</ele>
        <time>2009-05-08T12:07:43Z</time>
      </trkpt>
      <trkpt lat="49.47294" lon="1.65281">
        <ele>170</ele>
        <time>2009-05-08T12:07:58Z</time>
      </trkpt>
      <trkpt lat="49.47351" lon="1.65233">
        <ele>166</ele>
        <time>2009-05-08T12:08:14Z</time>
      </trkpt>
      <trkpt lat="49.47422" lon="1.65171">
        <ele>164</ele>
        <time>2009-05-08T12:08:29Z</time>
      </trkpt>
      <trkpt lat="49.4743" lon="1.65165">
        <ele>164</ele>
        <time>2009-05-08T12:08:31Z</time>
      </trkpt>
      <trkpt lat="49.4749" lon="1.65127">
        <ele>163</ele>
        <time>2009-05-08T12:08:48Z</time>
      </trkpt>
      <trkpt lat="49.47517" lon="1.65104">
        <ele>165</ele>
        <time>2009-05-08T12:08:59Z</time>
      </trkpt>
      <trkpt lat="49.47549" lon="1.65076">
        <ele>167</ele>
        <time>2009-05-08T12:09:14Z</time>
      </trkpt>
      <trkpt lat="49.47593" lon="1.65054">
        <ele>170</ele>
        <time>2009-05-08T12:09:31Z</time>
      </trkpt>
      <trkpt lat="49.47651" lon="1.65046">
        <ele>169</ele>
        <time>2009-05-08T12:09:50Z</time>
      </trkpt>
      <trkpt lat="49.47713" lon="1.65007">
        <ele>166</ele>
        <time>2009-05-08T12:10:06Z</time>
      </trkpt>
      <trkpt lat="49.47721" lon="1.64997">
        <ele>166</ele>
        <time>2009-05-08T12:10:09Z</time>
      </trkpt>
      <trkpt lat="49.47766" lon="1.64899">
        <ele>164</ele>
        <time>2009-05-08T12:10:26Z</time>
      </trkpt>
      <trkpt lat="49.47823" lon="1.64783">
        <ele>162</ele>
        <time>2009-05-08T12:10:46Z</time>
      </trkpt>
      <trkpt lat="49.47884" lon="1.64653">
        <ele>158</ele>
        <time>2009-05-08T12:11:07Z</time>
      </trkpt>
      <trkpt lat="49.4796" lon="1.64543">
        <ele>153</ele>
        <time>2009-05-08T12:11:25Z</time>
      </trkpt>
      <trkpt lat="49.48063" lon="1.64432">
        <ele>146</ele>
        <time>2009-05-08T12:11:43Z</time>
      </trkpt>
      <trkpt lat="49.48165" lon="1.64333">
        <ele>140</ele>
        <time>2009-05-08T12:11:59Z</time>
      </trkpt>
      <trkpt lat="49.48248" lon="1.64255">
        <ele>140</ele>
        <time>2009-05-08T12:12:16Z</time>
      </trkpt>
      <trkpt lat="49.48323" lon="1.64157">
        <ele>140</ele>
        <time>2009-05-08T12:12:34Z</time>
      </trkpt>
      <trkpt lat="49.48386" lon="1.64085">
        <ele>143</ele>
        <time>2009-05-08T12:12:51Z</time>
      </trkpt>
      <trkpt lat="49.48449" lon="1.64006">
        <ele>146</ele>
        <time>2009-05-08T12:13:11Z</time>
      </trkpt>
      <trkpt lat="49.4852" lon="1.63906">
        <ele>146</ele>
        <time>2009-05-08T12:13:33Z</time>
      </trkpt>
      <trkpt lat="49.48574" lon="1.63837">
        <ele>145</ele>
        <time>2009-05-08T12:13:48Z</time>
      </trkpt>
      <trkpt lat="49.48651" lon="1.6383">
        <ele>142</ele>
        <time>2009-05-08T12:14:02Z</time>
      </trkpt>
      <trkpt lat="49.4866" lon="1.63834">
        <ele>141</ele>
        <time>2009-05-08T12:14:04Z</time>
      </trkpt>
      <trkpt lat="49.48677" lon="1.63807">
        <ele>140</ele>
        <time>2009-05-08T12:14:12Z</time>
      </trkpt>
      <trkpt lat="49.48677" lon="1.63799">
        <ele>139</ele>
        <time>2009-05-08T12:14:13Z</time>
      </trkpt>
      <trkpt lat="49.4868" lon="1.63758">
        <ele>138</ele>
        <time>2009-05-08T12:14:18Z</time>
      </trkpt>
      <trkpt lat="49.48688" lon="1.6372">
        <ele>136</ele>
        <time>2009-05-08T12:14:22Z</time>
      </trkpt>
      <trkpt lat="49.48716" lon="1.63667">
        <ele>134</ele>
        <time>2009-05-08T12:14:28Z</time>
      </trkpt>
      <trkpt lat="49.4875" lon="1.63549">
        <ele>133</ele>
        <time>2009-05-08T12:14:41Z</time>
      </trkpt>
      <trkpt lat="49.48761" lon="1.63455">
        <ele>134</ele>
        <time>2009-05-08T12:14:56Z</time>
      </trkpt>
      <trkpt lat="49.4878" lon="1.63354">
        <ele>135</ele>
        <time>2009-05-08T12:15:15Z</time>
      </trkpt>
      <trkpt lat="49.48808" lon="1.63258">
        <ele>137</ele>
        <time>2009-05-08T12:15:34Z</time>
      </trkpt>
      <trkpt lat="49.48831" lon="1.63193">
        <ele>138</ele>
        <time>2009-05-08T12:15:49Z</time>
      </trkpt>
      <trkpt lat="49.48868" lon="1.63118">
        <ele>140</ele>
        <time>2009-05-08T12:16:07Z</time>
      </trkpt>
      <trkpt lat="49.48916" lon="1.63042">
        <ele>142</ele>
        <time>2009-05-08T12:16:29Z</time>
      </trkpt>
      <trkpt lat="49.48944" lon="1.63013">
        <ele>143</ele>
        <time>2009-05-08T12:16:43Z</time>
      </trkpt>
      <trkpt lat="49.48959" lon="1.63001">
        <ele>143</ele>
        <time>2009-05-08T12:16:50Z</time>
      </trkpt>
      <trkpt lat="49.4895" lon="1.62906">
        <ele>143</ele>
        <time>2009-05-08T12:17:08Z</time>
      </trkpt>
      <trkpt lat="49.48935" lon="1.62817">
        <ele>144</ele>
        <time>2009-05-08T12:17:26Z</time>
      </trkpt>
      <trkpt lat="49.48908" lon="1.62737">
        <ele>146</ele>
        <time>2009-05-08T12:17:43Z</time>
      </trkpt>
      <trkpt lat="49.48875" lon="1.62651">
        <ele>148</ele>
        <time>2009-05-08T12:18:02Z</time>
      </trkpt>
      <trkpt lat="49.48833" lon="1.62561">
        <ele>152</ele>
        <time>2009-05-08T12:18:25Z</time>
      </trkpt>
      <trkpt lat="49.48804" lon="1.62479">
        <ele>155</ele>
        <time>2009-05-08T12:18:45Z</time>
      </trkpt>
      <trkpt lat="49.48774" lon="1.62408">
        <ele>159</ele>
        <time>2009-05-08T12:19:04Z</time>
      </trkpt>
      <trkpt lat="49.48734" lon="1.62327">
        <ele>163</ele>
        <time>2009-05-08T12:19:27Z</time>
      </trkpt>
      <trkpt lat="49.48703" lon="1.62249">
        <ele>167</ele>
        <time>2009-05-08T12:19:48Z</time>
      </trkpt>
      <trkpt lat="49.4868" lon="1.62196">
        <ele>169</ele>
        <time>2009-05-08T12:20:04Z</time>
      </trkpt>
      <trkpt lat="49.48666" lon="1.62163">
        <ele>171</ele>
        <time>2009-05-08T12:20:16Z</time>
      </trkpt>
      <trkpt lat="49.48646" lon="1.6212">
        <ele>174</ele>
        <time>2009-05-08T12:20:31Z</time>
      </trkpt>
      <trkpt lat="49.48643" lon="1.62103">
        <ele>175</ele>
        <time>2009-05-08T12:20:37Z</time>
      </trkpt>
      <trkpt lat="49.48665" lon="1.62054">
        <ele>172</ele>
        <time>2009-05-08T12:20:51Z</time>
      </trkpt>
      <trkpt lat="49.48692" lon="1.61991">
        <ele>168</ele>
        <time>2009-05-08T12:21:07Z</time>
      </trkpt>
      <trkpt lat="49.48721" lon="1.61923">
        <ele>173</ele>
        <time>2009-05-08T12:21:23Z</time>
      </trkpt>
      <trkpt lat="49.4874" lon="1.61883">
        <ele>176</ele>
        <time>2009-05-08T12:21:38Z</time>
      </trkpt>
      <trkpt lat="49.48754" lon="1.61879">
        <ele>175</ele>
        <time>2009-05-08T12:21:47Z</time>
      </trkpt>
      <trkpt lat="49.48759" lon="1.61864">
        <ele>176</ele>
        <time>2009-05-08T12:21:52Z</time>
      </trkpt>
      <trkpt lat="49.48774" lon="1.61819">
        <ele>178</ele>
        <time>2009-05-08T12:22:08Z</time>
      </trkpt>
      <trkpt lat="49.48774" lon="1.61818">
        <ele>180</ele>
        <time>2009-05-08T12:22:19Z</time>
      </trkpt>
      <trkpt lat="49.48792" lon="1.61778">
        <ele>181</ele>
        <time>2009-05-08T12:22:35Z</time>
      </trkpt>
      <trkpt lat="49.48794" lon="1.61775">
        <ele>181</ele>
        <time>2009-05-08T12:22:36Z</time>
      </trkpt>
      <trkpt lat="49.48793" lon="1.6176">
        <ele>183</ele>
        <time>2009-05-08T12:22:46Z</time>
      </trkpt>
      <trkpt lat="49.48793" lon="1.61759">
        <ele>183</ele>
        <time>2009-05-08T12:22:47Z</time>
      </trkpt>
      <trkpt lat="49.48796" lon="1.61752">
        <ele>183</ele>
        <time>2009-05-08T12:22:51Z</time>
      </trkpt>
      <trkpt lat="49.48813" lon="1.61711">
        <ele>180</ele>
        <time>2009-05-08T12:23:09Z</time>
      </trkpt>
      <trkpt lat="49.48829" lon="1.61674">
        <ele>183</ele>
        <time>2009-05-08T12:23:25Z</time>
      </trkpt>
      <trkpt lat="49.48831" lon="1.6166">
        <ele>185</ele>
        <time>2009-05-08T12:23:30Z</time>
      </trkpt>
      <trkpt lat="49.48835" lon="1.61646">
        <ele>188</ele>
        <time>2009-05-08T12:23:35Z</time>
      </trkpt>
      <trkpt lat="49.4884" lon="1.61629">
        <ele>190</ele>
        <time>2009-05-08T12:23:41Z</time>
      </trkpt>
      <trkpt lat="49.48847" lon="1.61592">
        <ele>192</ele>
        <time>2009-05-08T12:23:54Z</time>
      </trkpt>
      <trkpt lat="49.48847" lon="1.61553">
        <ele>195</ele>
        <time>2009-05-08T12:24:06Z</time>
      </trkpt>
      <trkpt lat="49.48837" lon="1.61516">
        <ele>201</ele>
        <time>2009-05-08T12:24:19Z</time>
      </trkpt>
      <trkpt lat="49.48821" lon="1.61478">
        <ele>205</ele>
        <time>2009-05-08T12:24:33Z</time>
      </trkpt>
      <trkpt lat="49.48817" lon="1.61467">
        <ele>203</ele>
        <time>2009-05-08T12:24:38Z</time>
      </trkpt>
      <trkpt lat="49.48809" lon="1.61454">
        <ele>202</ele>
        <time>2009-05-08T12:24:50Z</time>
      </trkpt>
      <trkpt lat="49.48797" lon="1.61433">
        <ele>201</ele>
        <time>2009-05-08T12:25:03Z</time>
      </trkpt>
      <trkpt lat="49.48789" lon="1.61413">
        <ele>198</ele>
        <time>2009-05-08T12:25:16Z</time>
      </trkpt>
      <trkpt lat="49.48793" lon="1.61407">
        <ele>200</ele>
        <time>2009-05-08T12:25:34Z</time>
      </trkpt>
      <trkpt lat="49.48795" lon="1.61412">
        <ele>207</ele>
        <time>2009-05-08T12:26:03Z</time>
      </trkpt>
      <trkpt lat="49.48791" lon="1.61411">
        <ele>205</ele>
        <time>2009-05-08T12:27:04Z</time>
      </trkpt>
      <trkpt lat="49.48799" lon="1.61415">
        <ele>216</ele>
        <time>2009-05-08T12:29:02Z</time>
      </trkpt>
      <trkpt lat="49.48796" lon="1.61416">
        <ele>214</ele>
        <time>2009-05-08T12:32:08Z</time>
      </trkpt>
      <trkpt lat="49.48795" lon="1.61414">
        <ele>213</ele>
        <time>2009-05-08T12:32:51Z</time>
      </trkpt>
      <trkpt lat="49.48796" lon="1.61416">
        <ele>212</ele>
        <time>2009-05-08T12:33:08Z</time>
      </trkpt>
      <trkpt lat="49.48795" lon="1.61412">
        <ele>217</ele>
        <time>2009-05-08T12:34:07Z</time>
      </trkpt>
      <trkpt lat="49.48792" lon="1.61412">
        <ele>215</ele>
        <time>2009-05-08T12:34:12Z</time>
      </trkpt>
      <trkpt lat="49.48773" lon="1.61402">
        <ele>208</ele>
        <time>2009-05-08T12:34:26Z</time>
      </trkpt>
      <trkpt lat="49.48769" lon="1.614">
        <ele>206</ele>
        <time>2009-05-08T12:34:29Z</time>
      </trkpt>
      <trkpt lat="49.48753" lon="1.61396">
        <ele>203</ele>
        <time>2009-05-08T12:34:43Z</time>
      </trkpt>
      <trkpt lat="49.4874" lon="1.61392">
        <ele>205</ele>
        <time>2009-05-08T12:34:58Z</time>
      </trkpt>
      <trkpt lat="49.48726" lon="1.61392">
        <ele>206</ele>
        <time>2009-05-08T12:35:12Z</time>
      </trkpt>
      <trkpt lat="49.48715" lon="1.61392">
        <ele>207</ele>
        <time>2009-05-08T12:35:24Z</time>
      </trkpt>
      <trkpt lat="49.48705" lon="1.61397">
        <ele>211</ele>
        <time>2009-05-08T12:35:37Z</time>
      </trkpt>
      <trkpt lat="49.48694" lon="1.61405">
        <ele>219</ele>
        <time>2009-05-08T12:35:52Z</time>
      </trkpt>
      <trkpt lat="49.48682" lon="1.61406">
        <ele>216</ele>
        <time>2009-05-08T12:36:03Z</time>
      </trkpt>
      <trkpt lat="49.48673" lon="1.61405">
        <ele>216</ele>
        <time>2009-05-08T12:36:11Z</time>
      </trkpt>
      <trkpt lat="49.4866" lon="1.61391">
        <ele>215</ele>
        <time>2009-05-08T12:36:24Z</time>
      </trkpt>
      <trkpt lat="49.48631" lon="1.61359">
        <ele>217</ele>
        <time>2009-05-08T12:36:39Z</time>
      </trkpt>
      <trkpt lat="49.48585" lon="1.61323">
        <ele>218</ele>
        <time>2009-05-08T12:36:58Z</time>
      </trkpt>
      <trkpt lat="49.48522" lon="1.61261">
        <ele>220</ele>
        <time>2009-05-08T12:37:24Z</time>
      </trkpt>
      <trkpt lat="49.48477" lon="1.6121">
        <ele>220</ele>
        <time>2009-05-08T12:37:40Z</time>
      </trkpt>
      <trkpt lat="49.48413" lon="1.61138">
        <ele>220</ele>
        <time>2009-05-08T12:38:00Z</time>
      </trkpt>
      <trkpt lat="49.48346" lon="1.6106">
        <ele>218</ele>
        <time>2009-05-08T12:38:18Z</time>
      </trkpt>
      <trkpt lat="49.4828" lon="1.60974">
        <ele>218</ele>
        <time>2009-05-08T12:38:35Z</time>
      </trkpt>
      <trkpt lat="49.48188" lon="1.60855">
        <ele>219</ele>
        <time>2009-05-08T12:38:57Z</time>
      </trkpt>
      <trkpt lat="49.48129" lon="1.60779">
        <ele>218</ele>
        <time>2009-05-08T12:39:11Z</time>
      </trkpt>
      <trkpt lat="49.4813" lon="1.60748">
        <ele>217</ele>
        <time>2009-05-08T12:39:16Z</time>
      </trkpt>
      <trkpt lat="49.48174" lon="1.60662">
        <ele>216</ele>
        <time>2009-05-08T12:39:33Z</time>
      </trkpt>
      <trkpt lat="49.48197" lon="1.60609">
        <ele>216</ele>
        <time>2009-05-08T12:39:47Z</time>
      </trkpt>
      <trkpt lat="49.48202" lon="1.60603">
        <ele>217</ele>
        <time>2009-05-08T12:40:00Z</time>
      </trkpt>
      <trkpt lat="49.48203" lon="1.60601">
        <ele>217</ele>
        <time>2009-05-08T12:40:05Z</time>
      </trkpt>
      <trkpt lat="49.48205" lon="1.60599">
        <ele>217</ele>
        <time>2009-05-08T12:40:07Z</time>
      </trkpt>
      <trkpt lat="49.48211" lon="1.60585">
        <ele>217</ele>
        <time>2009-05-08T12:40:13Z</time>
      </trkpt>
      <trkpt lat="49.48242" lon="1.60512">
        <ele>218</ele>
        <time>2009-05-08T12:40:32Z</time>
      </trkpt>
      <trkpt lat="49.48289" lon="1.60407">
        <ele>214</ele>
        <time>2009-05-08T12:40:52Z</time>
      </trkpt>
      <trkpt lat="49.48326" lon="1.60323">
        <ele>212</ele>
        <time>2009-05-08T12:41:08Z</time>
      </trkpt>
      <trkpt lat="49.48356" lon="1.60252">
        <ele>204</ele>
        <time>2009-05-08T12:41:24Z</time>
      </trkpt>
      <trkpt lat="49.48379" lon="1.6019">
        <ele>201</ele>
        <time>2009-05-08T12:41:39Z</time>
      </trkpt>
      <trkpt lat="49.48401" lon="1.6014">
        <ele>209</ele>
        <time>2009-05-08T12:41:56Z</time>
      </trkpt>
      <trkpt lat="49.48423" lon="1.60087">
        <ele>213</ele>
        <time>2009-05-08T12:42:14Z</time>
      </trkpt>
      <trkpt lat="49.48439" lon="1.6004">
        <ele>214</ele>
        <time>2009-05-08T12:42:29Z</time>
      </trkpt>
      <trkpt lat="49.48463" lon="1.59988">
        <ele>216</ele>
        <time>2009-05-08T12:42:46Z</time>
      </trkpt>
      <trkpt lat="49.48488" lon="1.59932">
        <ele>217</ele>
        <time>2009-05-08T12:43:05Z</time>
      </trkpt>
      <trkpt lat="49.48517" lon="1.59872">
        <ele>217</ele>
        <time>2009-05-08T12:43:24Z</time>
      </trkpt>
      <trkpt lat="49.48528" lon="1.59813">
        <ele>216</ele>
        <time>2009-05-08T12:43:41Z</time>
      </trkpt>
      <trkpt lat="49.4851" lon="1.59746">
        <ele>214</ele>
        <time>2009-05-08T12:43:56Z</time>
      </trkpt>
      <trkpt lat="49.48493" lon="1.5966">
        <ele>213</ele>
        <time>2009-05-08T12:44:14Z</time>
      </trkpt>
      <trkpt lat="49.48501" lon="1.59581">
        <ele>213</ele>
        <time>2009-05-08T12:44:32Z</time>
      </trkpt>
      <trkpt lat="49.48516" lon="1.59465">
        <ele>216</ele>
        <time>2009-05-08T12:44:58Z</time>
      </trkpt>
      <trkpt lat="49.48526" lon="1.59359">
        <ele>217</ele>
        <time>2009-05-08T12:45:21Z</time>
      </trkpt>
      <trkpt lat="49.48537" lon="1.59272">
        <ele>215</ele>
        <time>2009-05-08T12:45:39Z</time>
      </trkpt>
      <trkpt lat="49.48556" lon="1.59193">
        <ele>214</ele>
        <time>2009-05-08T12:45:55Z</time>
      </trkpt>
      <trkpt lat="49.48585" lon="1.59108">
        <ele>213</ele>
        <time>2009-05-08T12:46:15Z</time>
      </trkpt>
      <trkpt lat="49.48595" lon="1.59073">
        <ele>212</ele>
        <time>2009-05-08T12:46:27Z</time>
      </trkpt>
      <trkpt lat="49.48594" lon="1.59069">
        <ele>212</ele>
        <time>2009-05-08T12:46:34Z</time>
      </trkpt>
      <trkpt lat="49.48585" lon="1.59051">
        <ele>211</ele>
        <time>2009-05-08T12:46:48Z</time>
      </trkpt>
      <trkpt lat="49.48586" lon="1.59059">
        <ele>212</ele>
        <time>2009-05-08T12:47:03Z</time>
      </trkpt>
      <trkpt lat="49.48587" lon="1.5906">
        <ele>212</ele>
        <time>2009-05-08T12:47:19Z</time>
      </trkpt>
      <trkpt lat="49.48588" lon="1.59061">
        <ele>212</ele>
        <time>2009-05-08T12:47:21Z</time>
      </trkpt>
      <trkpt lat="49.48591" lon="1.59067">
        <ele>212</ele>
        <time>2009-05-08T12:47:43Z</time>
      </trkpt>
      <trkpt lat="49.48591" lon="1.59068">
        <ele>213</ele>
        <time>2009-05-08T12:47:53Z</time>
      </trkpt>
      <trkpt lat="49.48594" lon="1.5905">
        <ele>212</ele>
        <time>2009-05-08T12:48:02Z</time>
      </trkpt>
      <trkpt lat="49.48642" lon="1.58977">
        <ele>212</ele>
        <time>2009-05-08T12:48:23Z</time>
      </trkpt>
      <trkpt lat="49.48688" lon="1.589">
        <ele>213</ele>
        <time>2009-05-08T12:48:43Z</time>
      </trkpt>
      <trkpt lat="49.48722" lon="1.58815">
        <ele>213</ele>
        <time>2009-05-08T12:49:03Z</time>
      </trkpt>
      <trkpt lat="49.4873" lon="1.58793">
        <ele>213</ele>
        <time>2009-05-08T12:49:13Z</time>
      </trkpt>
      <trkpt lat="49.48731" lon="1.58788">
        <ele>213</ele>
        <time>2009-05-08T12:49:16Z</time>
      </trkpt>
      <trkpt lat="49.48728" lon="1.58795">
        <ele>213</ele>
        <time>2009-05-08T12:49:26Z</time>
      </trkpt>
      <trkpt lat="49.48735" lon="1.58786">
        <ele>213</ele>
        <time>2009-05-08T12:49:36Z</time>
      </trkpt>
      <trkpt lat="49.48732" lon="1.58778">
        <ele>214</ele>
        <time>2009-05-08T12:49:57Z</time>
      </trkpt>
      <trkpt lat="49.48729" lon="1.58773">
        <ele>214</ele>
        <time>2009-05-08T12:50:13Z</time>
      </trkpt>
      <trkpt lat="49.48728" lon="1.58766">
        <ele>214</ele>
        <time>2009-05-08T12:50:31Z</time>
      </trkpt>
      <trkpt lat="49.48724" lon="1.5876">
        <ele>214</ele>
        <time>2009-05-08T12:50:50Z</time>
      </trkpt>
      <trkpt lat="49.48722" lon="1.58754">
        <ele>213</ele>
        <time>2009-05-08T12:50:59Z</time>
      </trkpt>
      <trkpt lat="49.48719" lon="1.5874">
        <ele>213</ele>
        <time>2009-05-08T12:51:17Z</time>
      </trkpt>
      <trkpt lat="49.48718" lon="1.58737">
        <ele>213</ele>
        <time>2009-05-08T12:51:19Z</time>
      </trkpt>
      <trkpt lat="49.48718" lon="1.58693">
        <ele>213</ele>
        <time>2009-05-08T12:51:34Z</time>
      </trkpt>
      <trkpt lat="49.48727" lon="1.58627">
        <ele>215</ele>
        <time>2009-05-08T12:51:52Z</time>
      </trkpt>
      <trkpt lat="49.48734" lon="1.58558">
        <ele>215</ele>
        <time>2009-05-08T12:52:09Z</time>
      </trkpt>
      <trkpt lat="49.48739" lon="1.5848">
        <ele>216</ele>
        <time>2009-05-08T12:52:28Z</time>
      </trkpt>
      <trkpt lat="49.48747" lon="1.58403">
        <ele>217</ele>
        <time>2009-05-08T12:52:46Z</time>
      </trkpt>
      <trkpt lat="49.48753" lon="1.58366">
        <ele>217</ele>
        <time>2009-05-08T12:52:55Z</time>
      </trkpt>
      <trkpt lat="49.48757" lon="1.58318">
        <ele>217</ele>
        <time>2009-05-08T12:53:08Z</time>
      </trkpt>
      <trkpt lat="49.48763" lon="1.58257">
        <ele>217</ele>
        <time>2009-05-08T12:53:23Z</time>
      </trkpt>
      <trkpt lat="49.48772" lon="1.58192">
        <ele>218</ele>
        <time>2009-05-08T12:53:40Z</time>
      </trkpt>
      <trkpt lat="49.48778" lon="1.58146">
        <ele>217</ele>
        <time>2009-05-08T12:53:53Z</time>
      </trkpt>
      <trkpt lat="49.48782" lon="1.58095">
        <ele>217</ele>
        <time>2009-05-08T12:54:07Z</time>
      </trkpt>
      <trkpt lat="49.48789" lon="1.58047">
        <ele>217</ele>
        <time>2009-05-08T12:54:21Z</time>
      </trkpt>
      <trkpt lat="49.48792" lon="1.58022">
        <ele>218</ele>
        <time>2009-05-08T12:54:32Z</time>
      </trkpt>
      <trkpt lat="49.4879" lon="1.5801">
        <ele>217</ele>
        <time>2009-05-08T12:54:37Z</time>
      </trkpt>
      <trkpt lat="49.48799" lon="1.57941">
        <ele>217</ele>
        <time>2009-05-08T12:54:53Z</time>
      </trkpt>
      <trkpt lat="49.48802" lon="1.57922">
        <ele>217</ele>
        <time>2009-05-08T12:54:58Z</time>
      </trkpt>
      <trkpt lat="49.488" lon="1.57906">
        <ele>218</ele>
        <time>2009-05-08T12:55:03Z</time>
      </trkpt>
      <trkpt lat="49.48802" lon="1.57902">
        <ele>219</ele>
        <time>2009-05-08T12:55:20Z</time>
      </trkpt>
      <trkpt lat="49.48802" lon="1.57903">
        <ele>219</ele>
        <time>2009-05-08T12:55:34Z</time>
      </trkpt>
      <trkpt lat="49.48808" lon="1.57905">
        <ele>218</ele>
        <time>2009-05-08T12:55:38Z</time>
      </trkpt>
      <trkpt lat="49.48855" lon="1.57917">
        <ele>219</ele>
        <time>2009-05-08T12:55:56Z</time>
      </trkpt>
      <trkpt lat="49.48857" lon="1.57917">
        <ele>219</ele>
        <time>2009-05-08T12:55:57Z</time>
      </trkpt>
      <trkpt lat="49.48865" lon="1.57894">
        <ele>219</ele>
        <time>2009-05-08T12:56:06Z</time>
      </trkpt>
      <trkpt lat="49.4888" lon="1.57843">
        <ele>219</ele>
        <time>2009-05-08T12:56:23Z</time>
      </trkpt>
      <trkpt lat="49.48892" lon="1.57799">
        <ele>219</ele>
        <time>2009-05-08T12:56:39Z</time>
      </trkpt>
      <trkpt lat="49.48901" lon="1.57772">
        <ele>219</ele>
        <time>2009-05-08T12:56:50Z</time>
      </trkpt>
      <trkpt lat="49.48903" lon="1.57764">
        <ele>219</ele>
        <time>2009-05-08T12:57:07Z</time>
      </trkpt>
      <trkpt lat="49.48904" lon="1.57761">
        <ele>219</ele>
        <time>2009-05-08T12:57:19Z</time>
      </trkpt>
      <trkpt lat="49.4891" lon="1.57743">
        <ele>218</ele>
        <time>2009-05-08T12:57:38Z</time>
      </trkpt>
      <trkpt lat="49.48915" lon="1.5772">
        <ele>218</ele>
        <time>2009-05-08T12:57:57Z</time>
      </trkpt>
      <trkpt lat="49.48919" lon="1.57706">
        <ele>219</ele>
        <time>2009-05-08T12:58:12Z</time>
      </trkpt>
      <trkpt lat="49.48925" lon="1.57688">
        <ele>219</ele>
        <time>2009-05-08T12:58:28Z</time>
      </trkpt>
      <trkpt lat="49.48926" lon="1.57677">
        <ele>220</ele>
        <time>2009-05-08T12:58:53Z</time>
      </trkpt>
      <trkpt lat="49.4894" lon="1.57625">
        <ele>220</ele>
        <time>2009-05-08T12:59:07Z</time>
      </trkpt>
      <trkpt lat="49.48959" lon="1.57557">
        <ele>219</ele>
        <time>2009-05-08T12:59:23Z</time>
      </trkpt>
      <trkpt lat="49.4898" lon="1.57485">
        <ele>218</ele>
        <time>2009-05-08T12:59:42Z</time>
      </trkpt>
      <trkpt lat="49.48992" lon="1.57438">
        <ele>219</ele>
        <time>2009-05-08T12:59:59Z</time>
      </trkpt>
      <trkpt lat="49.49006" lon="1.57386">
        <ele>218</ele>
        <time>2009-05-08T13:00:15Z</time>
      </trkpt>
      <trkpt lat="49.49025" lon="1.57319">
        <ele>214</ele>
        <time>2009-05-08T13:00:29Z</time>
      </trkpt>
      <trkpt lat="49.49041" lon="1.57258">
        <ele>212</ele>
        <time>2009-05-08T13:00:41Z</time>
      </trkpt>
      <trkpt lat="49.49042" lon="1.57252">
        <ele>212</ele>
        <time>2009-05-08T13:00:43Z</time>
      </trkpt>
      <trkpt lat="49.49052" lon="1.57255">
        <ele>212</ele>
        <time>2009-05-08T13:00:49Z</time>
      </trkpt>
      <trkpt lat="49.49101" lon="1.57327">
        <ele>213</ele>
        <time>2009-05-08T13:01:08Z</time>
      </trkpt>
      <trkpt lat="49.49142" lon="1.57369">
        <ele>213</ele>
        <time>2009-05-08T13:01:24Z</time>
      </trkpt>
      <trkpt lat="49.49188" lon="1.57417">
        <ele>215</ele>
        <time>2009-05-08T13:01:44Z</time>
      </trkpt>
      <trkpt lat="49.49226" lon="1.57451">
        <ele>217</ele>
        <time>2009-05-08T13:01:59Z</time>
      </trkpt>
      <trkpt lat="49.49274" lon="1.57486">
        <ele>219</ele>
        <time>2009-05-08T13:02:15Z</time>
      </trkpt>
      <trkpt lat="49.49336" lon="1.5753">
        <ele>221</ele>
        <time>2009-05-08T13:02:35Z</time>
      </trkpt>
      <trkpt lat="49.49388" lon="1.57567">
        <ele>221</ele>
        <time>2009-05-08T13:02:52Z</time>
      </trkpt>
      <trkpt lat="49.49451" lon="1.57613">
        <ele>221</ele>
        <time>2009-05-08T13:03:11Z</time>
      </trkpt>
      <trkpt lat="49.49506" lon="1.57654">
        <ele>218</ele>
        <time>2009-05-08T13:03:24Z</time>
      </trkpt>
      <trkpt lat="49.49569" lon="1.57707">
        <ele>218</ele>
        <time>2009-05-08T13:03:41Z</time>
      </trkpt>
      <trkpt lat="49.49612" lon="1.5774">
        <ele>219</ele>
        <time>2009-05-08T13:03:55Z</time>
      </trkpt>
      <trkpt lat="49.49649" lon="1.57776">
        <ele>220</ele>
        <time>2009-05-08T13:04:09Z</time>
      </trkpt>
      <trkpt lat="49.4968" lon="1.57799">
        <ele>220</ele>
        <time>2009-05-08T13:04:23Z</time>
      </trkpt>
      <trkpt lat="49.49688" lon="1.57791">
        <ele>220</ele>
        <time>2009-05-08T13:04:27Z</time>
      </trkpt>
      <trkpt lat="49.49714" lon="1.57731">
        <ele>222</ele>
        <time>2009-05-08T13:04:43Z</time>
      </trkpt>
      <trkpt lat="49.49749" lon="1.57647">
        <ele>225</ele>
        <time>2009-05-08T13:05:02Z</time>
      </trkpt>
      <trkpt lat="49.49796" lon="1.57535">
        <ele>226</ele>
        <time>2009-05-08T13:05:25Z</time>
      </trkpt>
      <trkpt lat="49.49837" lon="1.57442">
        <ele>226</ele>
        <time>2009-05-08T13:05:45Z</time>
      </trkpt>
      <trkpt lat="49.49864" lon="1.57451">
        <ele>225</ele>
        <time>2009-05-08T13:05:53Z</time>
      </trkpt>
      <trkpt lat="49.49931" lon="1.57492">
        <ele>224</ele>
        <time>2009-05-08T13:06:11Z</time>
      </trkpt>
      <trkpt lat="49.49981" lon="1.57539">
        <ele>223</ele>
        <time>2009-05-08T13:06:28Z</time>
      </trkpt>
      <trkpt lat="49.50021" lon="1.57585">
        <ele>223</ele>
        <time>2009-05-08T13:06:41Z</time>
      </trkpt>
      <trkpt lat="49.50056" lon="1.57627">
        <ele>223</ele>
        <time>2009-05-08T13:06:51Z</time>
      </trkpt>
      <trkpt lat="49.50137" lon="1.57706">
        <ele>221</ele>
        <time>2009-05-08T13:07:09Z</time>
      </trkpt>
      <trkpt lat="49.50227" lon="1.57774">
        <ele>219</ele>
        <time>2009-05-08T13:07:28Z</time>
      </trkpt>
      <trkpt lat="49.50232" lon="1.57776">
        <ele>219</ele>
        <time>2009-05-08T13:07:29Z</time>
      </trkpt>
      <trkpt lat="49.50297" lon="1.57777">
        <ele>218</ele>
        <time>2009-05-08T13:07:42Z</time>
      </trkpt>
      <trkpt lat="49.50319" lon="1.57784">
        <ele>218</ele>
        <time>2009-05-08T13:07:46Z</time>
      </trkpt>
      <trkpt lat="49.50403" lon="1.57865">
        <ele>219</ele>
        <time>2009-05-08T13:08:04Z</time>
      </trkpt>
      <trkpt lat="49.50459" lon="1.57961">
        <ele>222</ele>
        <time>2009-05-08T13:08:24Z</time>
      </trkpt>
      <trkpt lat="49.50503" lon="1.58013">
        <ele>222</ele>
        <time>2009-05-08T13:08:41Z</time>
      </trkpt>
      <trkpt lat="49.50518" lon="1.57967">
        <ele>221</ele>
        <time>2009-05-08T13:08:53Z</time>
      </trkpt>
      <trkpt lat="49.50547" lon="1.57918">
        <ele>220</ele>
        <time>2009-05-08T13:09:05Z</time>
      </trkpt>
      <trkpt lat="49.50555" lon="1.57906">
        <ele>219</ele>
        <time>2009-05-08T13:09:08Z</time>
      </trkpt>
      <trkpt lat="49.50577" lon="1.57888">
        <ele>219</ele>
        <time>2009-05-08T13:09:14Z</time>
      </trkpt>
      <trkpt lat="49.50626" lon="1.57888">
        <ele>218</ele>
        <time>2009-05-08T13:09:25Z</time>
      </trkpt>
      <trkpt lat="49.5064" lon="1.57891">
        <ele>218</ele>
        <time>2009-05-08T13:09:28Z</time>
      </trkpt>
      <trkpt lat="49.50693" lon="1.57897">
        <ele>215</ele>
        <time>2009-05-08T13:09:42Z</time>
      </trkpt>
      <trkpt lat="49.50714" lon="1.57909">
        <ele>214</ele>
        <time>2009-05-08T13:09:49Z</time>
      </trkpt>
      <trkpt lat="49.50737" lon="1.57937">
        <ele>217</ele>
        <time>2009-05-08T13:09:59Z</time>
      </trkpt>
      <trkpt lat="49.5078" lon="1.57975">
        <ele>220</ele>
        <time>2009-05-08T13:10:18Z</time>
      </trkpt>
      <trkpt lat="49.50804" lon="1.57986">
        <ele>219</ele>
        <time>2009-05-08T13:10:27Z</time>
      </trkpt>
      <trkpt lat="49.50827" lon="1.58002">
        <ele>216</ele>
        <time>2009-05-08T13:10:40Z</time>
      </trkpt>
      <trkpt lat="49.50843" lon="1.58017">
        <ele>210</ele>
        <time>2009-05-08T13:10:53Z</time>
      </trkpt>
      <trkpt lat="49.50863" lon="1.58036">
        <ele>203</ele>
        <time>2009-05-08T13:11:02Z</time>
      </trkpt>
      <trkpt lat="49.50897" lon="1.58059">
        <ele>198</ele>
        <time>2009-05-08T13:11:12Z</time>
      </trkpt>
      <trkpt lat="49.50926" lon="1.58069">
        <ele>200</ele>
        <time>2009-05-08T13:11:18Z</time>
      </trkpt>
      <trkpt lat="49.50943" lon="1.58086">
        <ele>200</ele>
        <time>2009-05-08T13:11:22Z</time>
      </trkpt>
      <trkpt lat="49.50951" lon="1.58103">
        <ele>199</ele>
        <time>2009-05-08T13:11:25Z</time>
      </trkpt>
      <trkpt lat="49.50968" lon="1.58097">
        <ele>194</ele>
        <time>2009-05-08T13:11:30Z</time>
      </trkpt>
      <trkpt lat="49.51008" lon="1.58068">
        <ele>191</ele>
        <time>2009-05-08T13:11:38Z</time>
      </trkpt>
      <trkpt lat="49.51047" lon="1.58086">
        <ele>184</ele>
        <time>2009-05-08T13:11:49Z</time>
      </trkpt>
      <trkpt lat="49.51085" lon="1.58133">
        <ele>182</ele>
        <time>2009-05-08T13:12:00Z</time>
      </trkpt>
      <trkpt lat="49.51092" lon="1.58141">
        <ele>182</ele>
        <time>2009-05-08T13:12:02Z</time>
      </trkpt>
      <trkpt lat="49.51102" lon="1.58157">
        <ele>182</ele>
        <time>2009-05-08T13:12:05Z</time>
      </trkpt>
      <trkpt lat="49.51152" lon="1.582">
        <ele>177</ele>
        <time>2009-05-08T13:12:17Z</time>
      </trkpt>
      <trkpt lat="49.51156" lon="1.58204">
        <ele>176</ele>
        <time>2009-05-08T13:12:19Z</time>
      </trkpt>
      <trkpt lat="49.51161" lon="1.58209">
        <ele>177</ele>
        <time>2009-05-08T13:12:32Z</time>
      </trkpt>
      <trkpt lat="49.51163" lon="1.58209">
        <ele>179</ele>
        <time>2009-05-08T13:13:12Z</time>
      </trkpt>
      <trkpt lat="49.51186" lon="1.58251">
        <ele>177</ele>
        <time>2009-05-08T13:13:25Z</time>
      </trkpt>
      <trkpt lat="49.51238" lon="1.58356">
        <ele>173</ele>
        <time>2009-05-08T13:13:43Z</time>
      </trkpt>
      <trkpt lat="49.51247" lon="1.58374">
        <ele>173</ele>
        <time>2009-05-08T13:13:46Z</time>
      </trkpt>
      <trkpt lat="49.5127" lon="1.58426">
        <ele>172</ele>
        <time>2009-05-08T13:14:00Z</time>
      </trkpt>
      <trkpt lat="49.51268" lon="1.58424">
        <ele>169</ele>
        <time>2009-05-08T13:15:32Z</time>
      </trkpt>
      <trkpt lat="49.51271" lon="1.58426">
        <ele>172</ele>
        <time>2009-05-08T13:16:47Z</time>
      </trkpt>
      <trkpt lat="49.51272" lon="1.58426">
        <ele>172</ele>
        <time>2009-05-08T13:16:52Z</time>
      </trkpt>
      <trkpt lat="49.51276" lon="1.58418">
        <ele>172</ele>
        <time>2009-05-08T13:16:57Z</time>
      </trkpt>
      <trkpt lat="49.51305" lon="1.58356">
        <ele>171</ele>
        <time>2009-05-08T13:17:13Z</time>
      </trkpt>
      <trkpt lat="49.5134" lon="1.5828">
        <ele>172</ele>
        <time>2009-05-08T13:17:32Z</time>
      </trkpt>
      <trkpt lat="49.51369" lon="1.5822">
        <ele>175</ele>
        <time>2009-05-08T13:17:52Z</time>
      </trkpt>
      <trkpt lat="49.51399" lon="1.58158">
        <ele>176</ele>
        <time>2009-05-08T13:18:10Z</time>
      </trkpt>
      <trkpt lat="49.51446" lon="1.58059">
        <ele>177</ele>
        <time>2009-05-08T13:18:35Z</time>
      </trkpt>
      <trkpt lat="49.51472" lon="1.58005">
        <ele>176</ele>
        <time>2009-05-08T13:18:46Z</time>
      </trkpt>
      <trkpt lat="49.51508" lon="1.57951">
        <ele>174</ele>
        <time>2009-05-08T13:19:02Z</time>
      </trkpt>
      <trkpt lat="49.51531" lon="1.57972">
        <ele>175</ele>
        <time>2009-05-08T13:19:15Z</time>
      </trkpt>
      <trkpt lat="49.51578" lon="1.58023">
        <ele>173</ele>
        <time>2009-05-08T13:19:31Z</time>
      </trkpt>
      <trkpt lat="49.51652" lon="1.58101">
        <ele>169</ele>
        <time>2009-05-08T13:19:48Z</time>
      </trkpt>
      <trkpt lat="49.51706" lon="1.58155">
        <ele>166</ele>
        <time>2009-05-08T13:20:02Z</time>
      </trkpt>
      <trkpt lat="49.51711" lon="1.58145">
        <ele>166</ele>
        <time>2009-05-08T13:20:06Z</time>
      </trkpt>
      <trkpt lat="49.51744" lon="1.58055">
        <ele>165</ele>
        <time>2009-05-08T13:20:24Z</time>
      </trkpt>
      <trkpt lat="49.51789" lon="1.57937">
        <ele>156</ele>
        <time>2009-05-08T13:20:41Z</time>
      </trkpt>
      <trkpt lat="49.5186" lon="1.57836">
        <ele>151</ele>
        <time>2009-05-08T13:20:58Z</time>
      </trkpt>
      <trkpt lat="49.51916" lon="1.57741">
        <ele>150</ele>
        <time>2009-05-08T13:21:18Z</time>
      </trkpt>
      <trkpt lat="49.51932" lon="1.57706">
        <ele>148</ele>
        <time>2009-05-08T13:21:25Z</time>
      </trkpt>
      <trkpt lat="49.51964" lon="1.57606">
        <ele>148</ele>
        <time>2009-05-08T13:21:43Z</time>
      </trkpt>
      <trkpt lat="49.51996" lon="1.57472">
        <ele>150</ele>
        <time>2009-05-08T13:22:08Z</time>
      </trkpt>
      <trkpt lat="49.51997" lon="1.57468">
        <ele>150</ele>
        <time>2009-05-08T13:22:09Z</time>
      </trkpt>
      <trkpt lat="49.52004" lon="1.57459">
        <ele>150</ele>
        <time>2009-05-08T13:22:13Z</time>
      </trkpt>
      <trkpt lat="49.52011" lon="1.57454">
        <ele>151</ele>
        <time>2009-05-08T13:22:25Z</time>
      </trkpt>
      <trkpt lat="49.52014" lon="1.57455">
        <ele>151</ele>
        <time>2009-05-08T13:22:38Z</time>
      </trkpt>
      <trkpt lat="49.52044" lon="1.57434">
        <ele>151</ele>
        <time>2009-05-08T13:22:53Z</time>
      </trkpt>
      <trkpt lat="49.521" lon="1.57393">
        <ele>152</ele>
        <time>2009-05-08T13:23:14Z</time>
      </trkpt>
      <trkpt lat="49.52158" lon="1.57352">
        <ele>155</ele>
        <time>2009-05-08T13:23:36Z</time>
      </trkpt>
      <trkpt lat="49.52212" lon="1.57311">
        <ele>158</ele>
        <time>2009-05-08T13:23:55Z</time>
      </trkpt>
      <trkpt lat="49.52262" lon="1.57275">
        <ele>160</ele>
        <time>2009-05-08T13:24:14Z</time>
      </trkpt>
      <trkpt lat="49.52286" lon="1.5725">
        <ele>159</ele>
        <time>2009-05-08T13:24:27Z</time>
      </trkpt>
      <trkpt lat="49.52309" lon="1.57192">
        <ele>157</ele>
        <time>2009-05-08T13:24:43Z</time>
      </trkpt>
      <trkpt lat="49.52339" lon="1.57121">
        <ele>154</ele>
        <time>2009-05-08T13:24:58Z</time>
      </trkpt>
      <trkpt lat="49.52385" lon="1.57002">
        <ele>150</ele>
        <time>2009-05-08T13:25:16Z</time>
      </trkpt>
      <trkpt lat="49.52395" lon="1.56974">
        <ele>149</ele>
        <time>2009-05-08T13:25:26Z</time>
      </trkpt>
      <trkpt lat="49.52394" lon="1.56973">
        <ele>148</ele>
        <time>2009-05-08T13:26:48Z</time>
      </trkpt>
      <trkpt lat="49.52393" lon="1.56972">
        <ele>148</ele>
        <time>2009-05-08T13:26:54Z</time>
      </trkpt>
      <trkpt lat="49.52396" lon="1.5695">
        <ele>148</ele>
        <time>2009-05-08T13:27:01Z</time>
      </trkpt>
      <trkpt lat="49.52421" lon="1.56847">
        <ele>146</ele>
        <time>2009-05-08T13:27:19Z</time>
      </trkpt>
      <trkpt lat="49.52449" lon="1.56731">
        <ele>148</ele>
        <time>2009-05-08T13:27:40Z</time>
      </trkpt>
      <trkpt lat="49.5247" lon="1.56647">
        <ele>150</ele>
        <time>2009-05-08T13:27:57Z</time>
      </trkpt>
      <trkpt lat="49.52493" lon="1.56552">
        <ele>152</ele>
        <time>2009-05-08T13:28:15Z</time>
      </trkpt>
      <trkpt lat="49.52517" lon="1.56455">
        <ele>154</ele>
        <time>2009-05-08T13:28:35Z</time>
      </trkpt>
      <trkpt lat="49.52551" lon="1.56352">
        <ele>154</ele>
        <time>2009-05-08T13:28:58Z</time>
      </trkpt>
      <trkpt lat="49.52554" lon="1.56345">
        <ele>154</ele>
        <time>2009-05-08T13:29:00Z</time>
      </trkpt>
      <trkpt lat="49.52583" lon="1.56345">
        <ele>152</ele>
        <time>2009-05-08T13:29:11Z</time>
      </trkpt>
      <trkpt lat="49.52633" lon="1.56365">
        <ele>151</ele>
        <time>2009-05-08T13:29:26Z</time>
      </trkpt>
      <trkpt lat="49.52713" lon="1.56415">
        <ele>149</ele>
        <time>2009-05-08T13:29:44Z</time>
      </trkpt>
      <trkpt lat="49.52781" lon="1.56485">
        <ele>147</ele>
        <time>2009-05-08T13:29:59Z</time>
      </trkpt>
      <trkpt lat="49.5285" lon="1.56532">
        <ele>148</ele>
        <time>2009-05-08T13:30:14Z</time>
      </trkpt>
      <trkpt lat="49.52898" lon="1.56579">
        <ele>147</ele>
        <time>2009-05-08T13:30:28Z</time>
      </trkpt>
      <trkpt lat="49.5291" lon="1.56583">
        <ele>147</ele>
        <time>2009-05-08T13:30:31Z</time>
      </trkpt>
      <trkpt lat="49.5298" lon="1.56572">
        <ele>145</ele>
        <time>2009-05-08T13:30:47Z</time>
      </trkpt>
      <trkpt lat="49.53051" lon="1.56566">
        <ele>143</ele>
        <time>2009-05-08T13:31:00Z</time>
      </trkpt>
      <trkpt lat="49.53145" lon="1.56544">
        <ele>141</ele>
        <time>2009-05-08T13:31:17Z</time>
      </trkpt>
      <trkpt lat="49.5323" lon="1.56488">
        <ele>136</ele>
        <time>2009-05-08T13:31:30Z</time>
      </trkpt>
      <trkpt lat="49.53318" lon="1.56401">
        <ele>133</ele>
        <time>2009-05-08T13:31:46Z</time>
      </trkpt>
      <trkpt lat="49.53408" lon="1.56287">
        <ele>130</ele>
        <time>2009-05-08T13:32:04Z</time>
      </trkpt>
      <trkpt lat="49.53443" lon="1.56205">
        <ele>129</ele>
        <time>2009-05-08T13:32:17Z</time>
      </trkpt>
      <trkpt lat="49.535" lon="1.56116">
        <ele>131</ele>
        <time>2009-05-08T13:32:35Z</time>
      </trkpt>
      <trkpt lat="49.53546" lon="1.56021">
        <ele>136</ele>
        <time>2009-05-08T13:32:55Z</time>
      </trkpt>
      <trkpt lat="49.53571" lon="1.55953">
        <ele>135</ele>
        <time>2009-05-08T13:33:13Z</time>
      </trkpt>
      <trkpt lat="49.53585" lon="1.55928">
        <ele>134</ele>
        <time>2009-05-08T13:33:19Z</time>
      </trkpt>
      <trkpt lat="49.53656" lon="1.55873">
        <ele>128</ele>
        <time>2009-05-08T13:33:32Z</time>
      </trkpt>
      <trkpt lat="49.53746" lon="1.55847">
        <ele>123</ele>
        <time>2009-05-08T13:33:43Z</time>
      </trkpt>
      <trkpt lat="49.53799" lon="1.55864">
        <ele>125</ele>
        <time>2009-05-08T13:33:52Z</time>
      </trkpt>
      <trkpt lat="49.53826" lon="1.55892">
        <ele>126</ele>
        <time>2009-05-08T13:33:59Z</time>
      </trkpt>
      <trkpt lat="49.53848" lon="1.55897">
        <ele>127</ele>
        <time>2009-05-08T13:34:04Z</time>
      </trkpt>
      <trkpt lat="49.53904" lon="1.55874">
        <ele>130</ele>
        <time>2009-05-08T13:34:20Z</time>
      </trkpt>
      <trkpt lat="49.53953" lon="1.55852">
        <ele>134</ele>
        <time>2009-05-08T13:34:38Z</time>
      </trkpt>
      <trkpt lat="49.54006" lon="1.55828">
        <ele>138</ele>
        <time>2009-05-08T13:34:56Z</time>
      </trkpt>
      <trkpt lat="49.54046" lon="1.55799">
        <ele>141</ele>
        <time>2009-05-08T13:35:12Z</time>
      </trkpt>
      <trkpt lat="49.54074" lon="1.55775">
        <ele>143</ele>
        <time>2009-05-08T13:35:27Z</time>
      </trkpt>
      <trkpt lat="49.54111" lon="1.55745">
        <ele>146</ele>
        <time>2009-05-08T13:35:44Z</time>
      </trkpt>
      <trkpt lat="49.54146" lon="1.55718">
        <ele>149</ele>
        <time>2009-05-08T13:35:56Z</time>
      </trkpt>
      <trkpt lat="49.54184" lon="1.5568">
        <ele>149</ele>
        <time>2009-05-08T13:36:10Z</time>
      </trkpt>
      <trkpt lat="49.54217" lon="1.55634">
        <ele>153</ele>
        <time>2009-05-08T13:36:24Z</time>
      </trkpt>
      <trkpt lat="49.54267" lon="1.556">
        <ele>153</ele>
        <time>2009-05-08T13:36:41Z</time>
      </trkpt>
      <trkpt lat="49.54335" lon="1.55547">
        <ele>154</ele>
        <time>2009-05-08T13:37:02Z</time>
      </trkpt>
      <trkpt lat="49.54382" lon="1.55466">
        <ele>154</ele>
        <time>2009-05-08T13:37:18Z</time>
      </trkpt>
      <trkpt lat="49.54436" lon="1.55341">
        <ele>153</ele>
        <time>2009-05-08T13:37:34Z</time>
      </trkpt>
      <trkpt lat="49.54443" lon="1.55326">
        <ele>152</ele>
        <time>2009-05-08T13:37:36Z</time>
      </trkpt>
      <trkpt lat="49.54467" lon="1.55317">
        <ele>152</ele>
        <time>2009-05-08T13:37:43Z</time>
      </trkpt>
      <trkpt lat="49.5447" lon="1.55322">
        <ele>152</ele>
        <time>2009-05-08T13:37:45Z</time>
      </trkpt>
      <trkpt lat="49.5449" lon="1.55349">
        <ele>153</ele>
        <time>2009-05-08T13:37:59Z</time>
      </trkpt>
      <trkpt lat="49.5452" lon="1.55397">
        <ele>155</ele>
        <time>2009-05-08T13:38:14Z</time>
      </trkpt>
      <trkpt lat="49.54554" lon="1.55456">
        <ele>160</ele>
        <time>2009-05-08T13:38:29Z</time>
      </trkpt>
      <trkpt lat="49.54595" lon="1.55518">
        <ele>164</ele>
        <time>2009-05-08T13:38:47Z</time>
      </trkpt>
      <trkpt lat="49.5461" lon="1.5555">
        <ele>164</ele>
        <time>2009-05-08T13:38:59Z</time>
      </trkpt>
      <trkpt lat="49.54626" lon="1.55606">
        <ele>164</ele>
        <time>2009-05-08T13:39:14Z</time>
      </trkpt>
      <trkpt lat="49.54634" lon="1.5561">
        <ele>163</ele>
        <time>2009-05-08T13:39:18Z</time>
      </trkpt>
      <trkpt lat="49.5465" lon="1.55599">
        <ele>162</ele>
        <time>2009-05-08T13:39:30Z</time>
      </trkpt>
      <trkpt lat="49.54667" lon="1.55596">
        <ele>163</ele>
        <time>2009-05-08T13:39:45Z</time>
      </trkpt>
      <trkpt lat="49.54683" lon="1.55596">
        <ele>163</ele>
        <time>2009-05-08T13:39:56Z</time>
      </trkpt>
      <trkpt lat="49.5474" lon="1.55595">
        <ele>164</ele>
        <time>2009-05-08T13:40:13Z</time>
      </trkpt>
      <trkpt lat="49.54773" lon="1.55593">
        <ele>163</ele>
        <time>2009-05-08T13:40:24Z</time>
      </trkpt>
      <trkpt lat="49.5481" lon="1.55593">
        <ele>162</ele>
        <time>2009-05-08T13:40:36Z</time>
      </trkpt>
      <trkpt lat="49.54852" lon="1.55591">
        <ele>163</ele>
        <time>2009-05-08T13:40:49Z</time>
      </trkpt>
      <trkpt lat="49.54887" lon="1.55602">
        <ele>160</ele>
        <time>2009-05-08T13:41:01Z</time>
      </trkpt>
      <trkpt lat="49.54919" lon="1.55609">
        <ele>158</ele>
        <time>2009-05-08T13:41:12Z</time>
      </trkpt>
      <trkpt lat="49.54948" lon="1.55616">
        <ele>157</ele>
        <time>2009-05-08T13:41:22Z</time>
      </trkpt>
      <trkpt lat="49.54983" lon="1.55617">
        <ele>160</ele>
        <time>2009-05-08T13:41:34Z</time>
      </trkpt>
      <trkpt lat="49.55015" lon="1.55621">
        <ele>158</ele>
        <time>2009-05-08T13:41:47Z</time>
      </trkpt>
      <trkpt lat="49.55045" lon="1.55625">
        <ele>154</ele>
        <time>2009-05-08T13:41:58Z</time>
      </trkpt>
      <trkpt lat="49.55073" lon="1.55626">
        <ele>157</ele>
        <time>2009-05-08T13:42:08Z</time>
      </trkpt>
      <trkpt lat="49.55091" lon="1.55624">
        <ele>166</ele>
        <time>2009-05-08T13:42:12Z</time>
      </trkpt>
      <trkpt lat="49.55126" lon="1.55616">
        <ele>171</ele>
        <time>2009-05-08T13:42:27Z</time>
      </trkpt>
      <trkpt lat="49.55149" lon="1.55613">
        <ele>169</ele>
        <time>2009-05-08T13:42:38Z</time>
      </trkpt>
      <trkpt lat="49.55175" lon="1.55607">
        <ele>165</ele>
        <time>2009-05-08T13:42:49Z</time>
      </trkpt>
      <trkpt lat="49.55204" lon="1.55585">
        <ele>162</ele>
        <time>2009-05-08T13:43:00Z</time>
      </trkpt>
      <trkpt lat="49.55248" lon="1.55576">
        <ele>164</ele>
        <time>2009-05-08T13:43:11Z</time>
      </trkpt>
      <trkpt lat="49.55271" lon="1.55585">
        <ele>160</ele>
        <time>2009-05-08T13:43:16Z</time>
      </trkpt>
      <trkpt lat="49.55301" lon="1.55574">
        <ele>151</ele>
        <time>2009-05-08T13:43:24Z</time>
      </trkpt>
      <trkpt lat="49.55302" lon="1.55539">
        <ele>143</ele>
        <time>2009-05-08T13:43:30Z</time>
      </trkpt>
      <trkpt lat="49.55305" lon="1.55524">
        <ele>141</ele>
        <time>2009-05-08T13:43:32Z</time>
      </trkpt>
      <trkpt lat="49.55317" lon="1.55496">
        <ele>134</ele>
        <time>2009-05-08T13:43:38Z</time>
      </trkpt>
      <trkpt lat="49.5532" lon="1.55491">
        <ele>130</ele>
        <time>2009-05-08T13:43:41Z</time>
      </trkpt>
      <trkpt lat="49.55339" lon="1.55471">
        <ele>122</ele>
        <time>2009-05-08T13:43:48Z</time>
      </trkpt>
      <trkpt lat="49.55374" lon="1.5543">
        <ele>116</ele>
        <time>2009-05-08T13:43:58Z</time>
      </trkpt>
      <trkpt lat="49.55394" lon="1.55417">
        <ele>115</ele>
        <time>2009-05-08T13:44:08Z</time>
      </trkpt>
      <trkpt lat="49.55411" lon="1.55411">
        <ele>124</ele>
        <time>2009-05-08T13:44:14Z</time>
      </trkpt>
      <trkpt lat="49.55443" lon="1.55393">
        <ele>121</ele>
        <time>2009-05-08T13:44:25Z</time>
      </trkpt>
      <trkpt lat="49.55459" lon="1.55387">
        <ele>122</ele>
        <time>2009-05-08T13:44:28Z</time>
      </trkpt>
      <trkpt lat="49.55482" lon="1.5538">
        <ele>119</ele>
        <time>2009-05-08T13:44:34Z</time>
      </trkpt>
      <trkpt lat="49.55505" lon="1.55371">
        <ele>124</ele>
        <time>2009-05-08T13:44:38Z</time>
      </trkpt>
      <trkpt lat="49.55515" lon="1.55368">
        <ele>123</ele>
        <time>2009-05-08T13:44:40Z</time>
      </trkpt>
      <trkpt lat="49.55529" lon="1.5536">
        <ele>124</ele>
        <time>2009-05-08T13:44:43Z</time>
      </trkpt>
      <trkpt lat="49.5556" lon="1.55339">
        <ele>125</ele>
        <time>2009-05-08T13:44:49Z</time>
      </trkpt>
      <trkpt lat="49.55591" lon="1.55315">
        <ele>125</ele>
        <time>2009-05-08T13:44:56Z</time>
      </trkpt>
      <trkpt lat="49.55635" lon="1.5528">
        <ele>127</ele>
        <time>2009-05-08T13:45:07Z</time>
      </trkpt>
      <trkpt lat="49.55659" lon="1.55261">
        <ele>125</ele>
        <time>2009-05-08T13:45:14Z</time>
      </trkpt>
      <trkpt lat="49.55685" lon="1.55232">
        <ele>124</ele>
        <time>2009-05-08T13:45:24Z</time>
      </trkpt>
      <trkpt lat="49.55688" lon="1.55229">
        <ele>125</ele>
        <time>2009-05-08T13:45:34Z</time>
      </trkpt>
      <trkpt lat="49.55692" lon="1.55229">
        <ele>128</ele>
        <time>2009-05-08T13:46:30Z</time>
      </trkpt>
      <trkpt lat="49.55692" lon="1.55231">
        <ele>127</ele>
        <time>2009-05-08T13:46:56Z</time>
      </trkpt>
      <trkpt lat="49.55694" lon="1.55233">
        <ele>126</ele>
        <time>2009-05-08T13:47:12Z</time>
      </trkpt>
      <trkpt lat="49.55695" lon="1.55231">
        <ele>127</ele>
        <time>2009-05-08T13:47:45Z</time>
      </trkpt>
      <trkpt lat="49.55693" lon="1.55232">
        <ele>126</ele>
        <time>2009-05-08T13:48:17Z</time>
      </trkpt>
      <trkpt lat="49.55694" lon="1.55232">
        <ele>118</ele>
        <time>2009-05-08T13:49:12Z</time>
      </trkpt>
      <trkpt lat="49.55696" lon="1.55227">
        <ele>127</ele>
        <time>2009-05-08T13:49:51Z</time>
      </trkpt>
      <trkpt lat="49.55696" lon="1.5523">
        <ele>128</ele>
        <time>2009-05-08T13:50:36Z</time>
      </trkpt>
      <trkpt lat="49.55695" lon="1.55229">
        <ele>128</ele>
        <time>2009-05-08T13:51:07Z</time>
      </trkpt>
      <trkpt lat="49.55693" lon="1.55234">
        <ele>130</ele>
        <time>2009-05-08T13:51:32Z</time>
      </trkpt>
      <trkpt lat="49.55694" lon="1.55233">
        <ele>131</ele>
        <time>2009-05-08T13:51:53Z</time>
      </trkpt>
      <trkpt lat="49.55699" lon="1.55228">
        <ele>131</ele>
        <time>2009-05-08T13:52:24Z</time>
      </trkpt>
      <trkpt lat="49.55732" lon="1.55212">
        <ele>130</ele>
        <time>2009-05-08T13:52:36Z</time>
      </trkpt>
      <trkpt lat="49.55801" lon="1.55172">
        <ele>128</ele>
        <time>2009-05-08T13:52:51Z</time>
      </trkpt>
      <trkpt lat="49.55847" lon="1.5515">
        <ele>123</ele>
        <time>2009-05-08T13:53:04Z</time>
      </trkpt>
      <trkpt lat="49.55882" lon="1.55138">
        <ele>121</ele>
        <time>2009-05-08T13:53:15Z</time>
      </trkpt>
      <trkpt lat="49.5589" lon="1.5513">
        <ele>119</ele>
        <time>2009-05-08T13:53:20Z</time>
      </trkpt>
      <trkpt lat="49.559" lon="1.55122">
        <ele>116</ele>
        <time>2009-05-08T13:53:37Z</time>
      </trkpt>
      <trkpt lat="49.55904" lon="1.55119">
        <ele>116</ele>
        <time>2009-05-08T13:54:10Z</time>
      </trkpt>
      <trkpt lat="49.55904" lon="1.55118">
        <ele>116</ele>
        <time>2009-05-08T13:54:26Z</time>
      </trkpt>
      <trkpt lat="49.55906" lon="1.55117">
        <ele>118</ele>
        <time>2009-05-08T13:54:51Z</time>
      </trkpt>
      <trkpt lat="49.55917" lon="1.55109">
        <ele>118</ele>
        <time>2009-05-08T13:55:06Z</time>
      </trkpt>
      <trkpt lat="49.55937" lon="1.55095">
        <ele>117</ele>
        <time>2009-05-08T13:55:21Z</time>
      </trkpt>
      <trkpt lat="49.55953" lon="1.55087">
        <ele>115</ele>
        <time>2009-05-08T13:55:37Z</time>
      </trkpt>
      <trkpt lat="49.55964" lon="1.55079">
        <ele>111</ele>
        <time>2009-05-08T13:55:53Z</time>
      </trkpt>
      <trkpt lat="49.55976" lon="1.55072">
        <ele>113</ele>
        <time>2009-05-08T13:56:09Z</time>
      </trkpt>
      <trkpt lat="49.55988" lon="1.55065">
        <ele>114</ele>
        <time>2009-05-08T13:56:28Z</time>
      </trkpt>
      <trkpt lat="49.55995" lon="1.55059">
        <ele>113</ele>
        <time>2009-05-08T13:56:42Z</time>
      </trkpt>
      <trkpt lat="49.56003" lon="1.55057">
        <ele>113</ele>
        <time>2009-05-08T13:56:54Z</time>
      </trkpt>
      <trkpt lat="49.56009" lon="1.55055">
        <ele>113</ele>
        <time>2009-05-08T13:57:14Z</time>
      </trkpt>
      <trkpt lat="49.56011" lon="1.55053">
        <ele>113</ele>
        <time>2009-05-08T13:57:32Z</time>
      </trkpt>
      <trkpt lat="49.56019" lon="1.5505">
        <ele>113</ele>
        <time>2009-05-08T13:58:08Z</time>
      </trkpt>
      <trkpt lat="49.56033" lon="1.55043">
        <ele>111</ele>
        <time>2009-05-08T13:58:26Z</time>
      </trkpt>
      <trkpt lat="49.56039" lon="1.55039">
        <ele>114</ele>
        <time>2009-05-08T13:58:38Z</time>
      </trkpt>
      <trkpt lat="49.56044" lon="1.55037">
        <ele>116</ele>
        <time>2009-05-08T13:58:56Z</time>
      </trkpt>
      <trkpt lat="49.56049" lon="1.55037">
        <ele>116</ele>
        <time>2009-05-08T13:59:07Z</time>
      </trkpt>
      <trkpt lat="49.56063" lon="1.55035">
        <ele>115</ele>
        <time>2009-05-08T13:59:21Z</time>
      </trkpt>
      <trkpt lat="49.56075" lon="1.55031">
        <ele>115</ele>
        <time>2009-05-08T13:59:37Z</time>
      </trkpt>
      <trkpt lat="49.56089" lon="1.55025">
        <ele>119</ele>
        <time>2009-05-08T14:00:03Z</time>
      </trkpt>
      <trkpt lat="49.56116" lon="1.55008">
        <ele>119</ele>
        <time>2009-05-08T14:00:15Z</time>
      </trkpt>
      <trkpt lat="49.56147" lon="1.54992">
        <ele>117</ele>
        <time>2009-05-08T14:00:28Z</time>
      </trkpt>
      <trkpt lat="49.56169" lon="1.54974">
        <ele>116</ele>
        <time>2009-05-08T14:00:38Z</time>
      </trkpt>
      <trkpt lat="49.5618" lon="1.54969">
        <ele>116</ele>
        <time>2009-05-08T14:00:42Z</time>
      </trkpt>
      <trkpt lat="49.56217" lon="1.54948">
        <ele>115</ele>
        <time>2009-05-08T14:00:56Z</time>
      </trkpt>
      <trkpt lat="49.56251" lon="1.54937">
        <ele>113</ele>
        <time>2009-05-08T14:01:09Z</time>
      </trkpt>
      <trkpt lat="49.56261" lon="1.54936">
        <ele>115</ele>
        <time>2009-05-08T14:01:12Z</time>
      </trkpt>
      <trkpt lat="49.56275" lon="1.54921">
        <ele>116</ele>
        <time>2009-05-08T14:01:16Z</time>
      </trkpt>
      <trkpt lat="49.56324" lon="1.54844">
        <ele>122</ele>
        <time>2009-05-08T14:01:34Z</time>
      </trkpt>
      <trkpt lat="49.56379" lon="1.54791">
        <ele>121</ele>
        <time>2009-05-08T14:01:51Z</time>
      </trkpt>
      <trkpt lat="49.56419" lon="1.54746">
        <ele>120</ele>
        <time>2009-05-08T14:02:06Z</time>
      </trkpt>
      <trkpt lat="49.56428" lon="1.54755">
        <ele>119</ele>
        <time>2009-05-08T14:02:10Z</time>
      </trkpt>
      <trkpt lat="49.5646" lon="1.54878">
        <ele>117</ele>
        <time>2009-05-08T14:02:30Z</time>
      </trkpt>
      <trkpt lat="49.56496" lon="1.54987">
        <ele>117</ele>
        <time>2009-05-08T14:02:47Z</time>
      </trkpt>
      <trkpt lat="49.56553" lon="1.55099">
        <ele>116</ele>
        <time>2009-05-08T14:03:04Z</time>
      </trkpt>
      <trkpt lat="49.56574" lon="1.55168">
        <ele>116</ele>
        <time>2009-05-08T14:03:13Z</time>
      </trkpt>
      <trkpt lat="49.56595" lon="1.55179">
        <ele>115</ele>
        <time>2009-05-08T14:03:18Z</time>
      </trkpt>
      <trkpt lat="49.56658" lon="1.55138">
        <ele>113</ele>
        <time>2009-05-08T14:03:34Z</time>
      </trkpt>
      <trkpt lat="49.5668" lon="1.5515">
        <ele>113</ele>
        <time>2009-05-08T14:03:40Z</time>
      </trkpt>
      <trkpt lat="49.56737" lon="1.55252">
        <ele>112</ele>
        <time>2009-05-08T14:03:57Z</time>
      </trkpt>
      <trkpt lat="49.56803" lon="1.55368">
        <ele>112</ele>
        <time>2009-05-08T14:04:17Z</time>
      </trkpt>
      <trkpt lat="49.56828" lon="1.55413">
        <ele>112</ele>
        <time>2009-05-08T14:04:26Z</time>
      </trkpt>
      <trkpt lat="49.56842" lon="1.55439">
        <ele>112</ele>
        <time>2009-05-08T14:04:31Z</time>
      </trkpt>
      <trkpt lat="49.56889" lon="1.55526">
        <ele>111</ele>
        <time>2009-05-08T14:04:46Z</time>
      </trkpt>
      <trkpt lat="49.56932" lon="1.55604">
        <ele>112</ele>
        <time>2009-05-08T14:05:01Z</time>
      </trkpt>
      <trkpt lat="49.56938" lon="1.55613">
        <ele>112</ele>
        <time>2009-05-08T14:05:04Z</time>
      </trkpt>
      <trkpt lat="49.56952" lon="1.55607">
        <ele>111</ele>
        <time>2009-05-08T14:05:09Z</time>
      </trkpt>
      <trkpt lat="49.56989" lon="1.55582">
        <ele>109</ele>
        <time>2009-05-08T14:05:22Z</time>
      </trkpt>
      <trkpt lat="49.57037" lon="1.55543">
        <ele>107</ele>
        <time>2009-05-08T14:05:36Z</time>
      </trkpt>
      <trkpt lat="49.57051" lon="1.55531">
        <ele>109</ele>
        <time>2009-05-08T14:05:46Z</time>
      </trkpt>
      <trkpt lat="49.57059" lon="1.55526">
        <ele>111</ele>
        <time>2009-05-08T14:06:00Z</time>
      </trkpt>
      <trkpt lat="49.5707" lon="1.55518">
        <ele>113</ele>
        <time>2009-05-08T14:06:14Z</time>
      </trkpt>
      <trkpt lat="49.57078" lon="1.55514">
        <ele>113</ele>
        <time>2009-05-08T14:06:21Z</time>
      </trkpt>
      <trkpt lat="49.57081" lon="1.55507">
        <ele>113</ele>
        <time>2009-05-08T14:06:27Z</time>
      </trkpt>
      <trkpt lat="49.57085" lon="1.55505">
        <ele>114</ele>
        <time>2009-05-08T14:06:36Z</time>
      </trkpt>
      <trkpt lat="49.57107" lon="1.5549">
        <ele>110</ele>
        <time>2009-05-08T14:06:52Z</time>
      </trkpt>
      <trkpt lat="49.57125" lon="1.55476">
        <ele>112</ele>
        <time>2009-05-08T14:07:09Z</time>
      </trkpt>
      <trkpt lat="49.57139" lon="1.55464">
        <ele>109</ele>
        <time>2009-05-08T14:07:21Z</time>
      </trkpt>
      <trkpt lat="49.57146" lon="1.55459">
        <ele>111</ele>
        <time>2009-05-08T14:07:26Z</time>
      </trkpt>
      <trkpt lat="49.57166" lon="1.55442">
        <ele>115</ele>
        <time>2009-05-08T14:07:39Z</time>
      </trkpt>
      <trkpt lat="49.57175" lon="1.55438">
        <ele>113</ele>
        <time>2009-05-08T14:07:50Z</time>
      </trkpt>
      <trkpt lat="49.57192" lon="1.55422">
        <ele>111</ele>
        <time>2009-05-08T14:08:02Z</time>
      </trkpt>
      <trkpt lat="49.57222" lon="1.554">
        <ele>114</ele>
        <time>2009-05-08T14:08:16Z</time>
      </trkpt>
      <trkpt lat="49.57252" lon="1.55376">
        <ele>110</ele>
        <time>2009-05-08T14:08:28Z</time>
      </trkpt>
      <trkpt lat="49.57301" lon="1.55339">
        <ele>107</ele>
        <time>2009-05-08T14:08:44Z</time>
      </trkpt>
      <trkpt lat="49.57362" lon="1.55299">
        <ele>114</ele>
        <time>2009-05-08T14:08:59Z</time>
      </trkpt>
      <trkpt lat="49.57416" lon="1.55257">
        <ele>113</ele>
        <time>2009-05-08T14:09:15Z</time>
      </trkpt>
      <trkpt lat="49.57486" lon="1.55204">
        <ele>113</ele>
        <time>2009-05-08T14:09:34Z</time>
      </trkpt>
      <trkpt lat="49.57548" lon="1.55159">
        <ele>113</ele>
        <time>2009-05-08T14:09:53Z</time>
      </trkpt>
      <trkpt lat="49.57598" lon="1.55122">
        <ele>115</ele>
        <time>2009-05-08T14:10:08Z</time>
      </trkpt>
      <trkpt lat="49.57615" lon="1.55109">
        <ele>115</ele>
        <time>2009-05-08T14:10:18Z</time>
      </trkpt>
      <trkpt lat="49.57631" lon="1.55098">
        <ele>117</ele>
        <time>2009-05-08T14:10:38Z</time>
      </trkpt>
      <trkpt lat="49.57663" lon="1.55075">
        <ele>117</ele>
        <time>2009-05-08T14:10:55Z</time>
      </trkpt>
      <trkpt lat="49.57702" lon="1.55046">
        <ele>119</ele>
        <time>2009-05-08T14:11:15Z</time>
      </trkpt>
      <trkpt lat="49.57729" lon="1.55026">
        <ele>120</ele>
        <time>2009-05-08T14:11:30Z</time>
      </trkpt>
      <trkpt lat="49.57762" lon="1.55001">
        <ele>120</ele>
        <time>2009-05-08T14:11:45Z</time>
      </trkpt>
      <trkpt lat="49.5779" lon="1.54978">
        <ele>118</ele>
        <time>2009-05-08T14:11:56Z</time>
      </trkpt>
      <trkpt lat="49.57833" lon="1.54946">
        <ele>118</ele>
        <time>2009-05-08T14:12:12Z</time>
      </trkpt>
      <trkpt lat="49.57867" lon="1.54925">
        <ele>118</ele>
        <time>2009-05-08T14:12:26Z</time>
      </trkpt>
      <trkpt lat="49.57893" lon="1.54904">
        <ele>119</ele>
        <time>2009-05-08T14:12:38Z</time>
      </trkpt>
      <trkpt lat="49.57934" lon="1.54873">
        <ele>120</ele>
        <time>2009-05-08T14:12:56Z</time>
      </trkpt>
      <trkpt lat="49.5795" lon="1.54862">
        <ele>125</ele>
        <time>2009-05-08T14:13:11Z</time>
      </trkpt>
      <trkpt lat="49.57953" lon="1.54861">
        <ele>127</ele>
        <time>2009-05-08T14:13:32Z</time>
      </trkpt>
      <trkpt lat="49.57958" lon="1.5486">
        <ele>129</ele>
        <time>2009-05-08T14:14:37Z</time>
      </trkpt>
      <trkpt lat="49.57962" lon="1.54853">
        <ele>129</ele>
        <time>2009-05-08T14:14:42Z</time>
      </trkpt>
      <trkpt lat="49.57998" lon="1.54828">
        <ele>130</ele>
        <time>2009-05-08T14:14:58Z</time>
      </trkpt>
      <trkpt lat="49.58029" lon="1.54803">
        <ele>130</ele>
        <time>2009-05-08T14:15:13Z</time>
      </trkpt>
      <trkpt lat="49.58071" lon="1.54769">
        <ele>132</ele>
        <time>2009-05-08T14:15:35Z</time>
      </trkpt>
      <trkpt lat="49.58114" lon="1.54738">
        <ele>134</ele>
        <time>2009-05-08T14:15:52Z</time>
      </trkpt>
      <trkpt lat="49.58175" lon="1.54694">
        <ele>137</ele>
        <time>2009-05-08T14:16:13Z</time>
      </trkpt>
      <trkpt lat="49.58245" lon="1.54644">
        <ele>138</ele>
        <time>2009-05-08T14:16:36Z</time>
      </trkpt>
      <trkpt lat="49.58297" lon="1.54606">
        <ele>138</ele>
        <time>2009-05-08T14:16:52Z</time>
      </trkpt>
      <trkpt lat="49.58354" lon="1.54563">
        <ele>135</ele>
        <time>2009-05-08T14:17:07Z</time>
      </trkpt>
      <trkpt lat="49.58369" lon="1.54553">
        <ele>135</ele>
        <time>2009-05-08T14:17:10Z</time>
      </trkpt>
      <trkpt lat="49.58378" lon="1.54548">
        <ele>135</ele>
        <time>2009-05-08T14:17:12Z</time>
      </trkpt>
      <trkpt lat="49.58464" lon="1.54552">
        <ele>132</ele>
        <time>2009-05-08T14:17:27Z</time>
      </trkpt>
      <trkpt lat="49.58619" lon="1.54564">
        <ele>132</ele>
        <time>2009-05-08T14:17:52Z</time>
      </trkpt>
      <trkpt lat="49.58751" lon="1.54573">
        <ele>132</ele>
        <time>2009-05-08T14:18:15Z</time>
      </trkpt>
      <trkpt lat="49.58811" lon="1.54568">
        <ele>132</ele>
        <time>2009-05-08T14:18:29Z</time>
      </trkpt>
      <trkpt lat="49.58821" lon="1.5454">
        <ele>132</ele>
        <time>2009-05-08T14:18:34Z</time>
      </trkpt>
      <trkpt lat="49.5884" lon="1.54387">
        <ele>133</ele>
        <time>2009-05-08T14:18:55Z</time>
      </trkpt>
      <trkpt lat="49.58862" lon="1.54223">
        <ele>133</ele>
        <time>2009-05-08T14:19:16Z</time>
      </trkpt>
      <trkpt lat="49.58883" lon="1.54056">
        <ele>131</ele>
        <time>2009-05-08T14:19:36Z</time>
      </trkpt>
      <trkpt lat="49.58905" lon="1.53894">
        <ele>131</ele>
        <time>2009-05-08T14:19:57Z</time>
      </trkpt>
      <trkpt lat="49.5892" lon="1.53777">
        <ele>131</ele>
        <time>2009-05-08T14:20:14Z</time>
      </trkpt>
      <trkpt lat="49.58948" lon="1.53663">
        <ele>130</ele>
        <time>2009-05-08T14:20:30Z</time>
      </trkpt>
      <trkpt lat="49.58992" lon="1.5355">
        <ele>129</ele>
        <time>2009-05-08T14:20:47Z</time>
      </trkpt>
      <trkpt lat="49.59026" lon="1.53462">
        <ele>128</ele>
        <time>2009-05-08T14:20:59Z</time>
      </trkpt>
      <trkpt lat="49.59083" lon="1.53407">
        <ele>128</ele>
        <time>2009-05-08T14:21:12Z</time>
      </trkpt>
      <trkpt lat="49.59147" lon="1.53357">
        <ele>126</ele>
        <time>2009-05-08T14:21:25Z</time>
      </trkpt>
      <trkpt lat="49.59157" lon="1.53351">
        <ele>126</ele>
        <time>2009-05-08T14:21:27Z</time>
      </trkpt>
      <trkpt lat="49.59236" lon="1.53294">
        <ele>126</ele>
        <time>2009-05-08T14:21:42Z</time>
      </trkpt>
      <trkpt lat="49.59256" lon="1.5328">
        <ele>125</ele>
        <time>2009-05-08T14:21:46Z</time>
      </trkpt>
      <trkpt lat="49.59322" lon="1.53229">
        <ele>122</ele>
        <time>2009-05-08T14:21:59Z</time>
      </trkpt>
      <trkpt lat="49.59336" lon="1.53213">
        <ele>121</ele>
        <time>2009-05-08T14:22:02Z</time>
      </trkpt>
      <trkpt lat="49.59455" lon="1.53043">
        <ele>123</ele>
        <time>2009-05-08T14:22:29Z</time>
      </trkpt>
      <trkpt lat="49.59555" lon="1.52894">
        <ele>125</ele>
        <time>2009-05-08T14:22:54Z</time>
      </trkpt>
      <trkpt lat="49.59639" lon="1.52773">
        <ele>125</ele>
        <time>2009-05-08T14:23:16Z</time>
      </trkpt>
      <trkpt lat="49.59666" lon="1.52735">
        <ele>126</ele>
        <time>2009-05-08T14:23:28Z</time>
      </trkpt>
      <trkpt lat="49.59666" lon="1.52734">
        <ele>127</ele>
        <time>2009-05-08T14:23:46Z</time>
      </trkpt>
      <trkpt lat="49.59666" lon="1.52734">
        <ele>126</ele>
        <time>2009-05-08T14:24:06Z</time>
      </trkpt>
      <trkpt lat="49.59674" lon="1.52713">
        <ele>127</ele>
        <time>2009-05-08T14:24:47Z</time>
      </trkpt>
      <trkpt lat="49.59697" lon="1.52672">
        <ele>128</ele>
        <time>2009-05-08T14:25:02Z</time>
      </trkpt>
      <trkpt lat="49.59738" lon="1.52607">
        <ele>128</ele>
        <time>2009-05-08T14:25:21Z</time>
      </trkpt>
      <trkpt lat="49.59775" lon="1.52552">
        <ele>127</ele>
        <time>2009-05-08T14:25:35Z</time>
      </trkpt>
      <trkpt lat="49.59823" lon="1.5248">
        <ele>126</ele>
        <time>2009-05-08T14:25:52Z</time>
      </trkpt>
      <trkpt lat="49.59857" lon="1.52429">
        <ele>125</ele>
        <time>2009-05-08T14:26:02Z</time>
      </trkpt>
      <trkpt lat="49.5987" lon="1.52395">
        <ele>124</ele>
        <time>2009-05-08T14:26:08Z</time>
      </trkpt>
      <trkpt lat="49.59887" lon="1.52272">
        <ele>124</ele>
        <time>2009-05-08T14:26:26Z</time>
      </trkpt>
      <trkpt lat="49.59899" lon="1.52169">
        <ele>125</ele>
        <time>2009-05-08T14:26:43Z</time>
      </trkpt>
      <trkpt lat="49.59918" lon="1.52128">
        <ele>125</ele>
        <time>2009-05-08T14:26:51Z</time>
      </trkpt>
      <trkpt lat="49.59984" lon="1.521">
        <ele>125</ele>
        <time>2009-05-08T14:27:09Z</time>
      </trkpt>
      <trkpt lat="49.60063" lon="1.52071">
        <ele>126</ele>
        <time>2009-05-08T14:27:31Z</time>
      </trkpt>
      <trkpt lat="49.60147" lon="1.52041">
        <ele>127</ele>
        <time>2009-05-08T14:27:54Z</time>
      </trkpt>
      <trkpt lat="49.60184" lon="1.52001">
        <ele>129</ele>
        <time>2009-05-08T14:28:08Z</time>
      </trkpt>
      <trkpt lat="49.6018" lon="1.51972">
        <ele>129</ele>
        <time>2009-05-08T14:28:19Z</time>
      </trkpt>
      <trkpt lat="49.6018" lon="1.51969">
        <ele>130</ele>
        <time>2009-05-08T14:28:45Z</time>
      </trkpt>
      <trkpt lat="49.60178" lon="1.51967">
        <ele>131</ele>
        <time>2009-05-08T14:29:05Z</time>
      </trkpt>
      <trkpt lat="49.60172" lon="1.5196">
        <ele>131</ele>
        <time>2009-05-08T14:29:09Z</time>
      </trkpt>
      <trkpt lat="49.60112" lon="1.5189">
        <ele>132</ele>
        <time>2009-05-08T14:29:30Z</time>
      </trkpt>
      <trkpt lat="49.60078" lon="1.51856">
        <ele>132</ele>
        <time>2009-05-08T14:29:44Z</time>
      </trkpt>
      <trkpt lat="49.6008" lon="1.51845">
        <ele>132</ele>
        <time>2009-05-08T14:29:46Z</time>
      </trkpt>
      <trkpt lat="49.6009" lon="1.51838">
        <ele>132</ele>
        <time>2009-05-08T14:29:50Z</time>
      </trkpt>
      <trkpt lat="49.60166" lon="1.51912">
        <ele>134</ele>
        <time>2009-05-08T14:30:14Z</time>
      </trkpt>
      <trkpt lat="49.6024" lon="1.51997">
        <ele>135</ele>
        <time>2009-05-08T14:30:37Z</time>
      </trkpt>
      <trkpt lat="49.6031" lon="1.52092">
        <ele>131</ele>
        <time>2009-05-08T14:30:55Z</time>
      </trkpt>
      <trkpt lat="49.60395" lon="1.52259">
        <ele>127</ele>
        <time>2009-05-08T14:31:13Z</time>
      </trkpt>
      <trkpt lat="49.6045" lon="1.52358">
        <ele>127</ele>
        <time>2009-05-08T14:31:25Z</time>
      </trkpt>
      <trkpt lat="49.60555" lon="1.5245">
        <ele>128</ele>
        <time>2009-05-08T14:31:44Z</time>
      </trkpt>
      <trkpt lat="49.60634" lon="1.52521">
        <ele>132</ele>
        <time>2009-05-08T14:32:03Z</time>
      </trkpt>
      <trkpt lat="49.60667" lon="1.52549">
        <ele>131</ele>
        <time>2009-05-08T14:32:14Z</time>
      </trkpt>
      <trkpt lat="49.607" lon="1.52579">
        <ele>132</ele>
        <time>2009-05-08T14:32:26Z</time>
      </trkpt>
      <trkpt lat="49.60738" lon="1.52612">
        <ele>133</ele>
        <time>2009-05-08T14:32:40Z</time>
      </trkpt>
      <trkpt lat="49.60781" lon="1.52648">
        <ele>135</ele>
        <time>2009-05-08T14:32:56Z</time>
      </trkpt>
      <trkpt lat="49.60819" lon="1.52683">
        <ele>138</ele>
        <time>2009-05-08T14:33:11Z</time>
      </trkpt>
      <trkpt lat="49.6084" lon="1.52702">
        <ele>140</ele>
        <time>2009-05-08T14:33:27Z</time>
      </trkpt>
      <trkpt lat="49.60847" lon="1.52732">
        <ele>141</ele>
        <time>2009-05-08T14:33:52Z</time>
      </trkpt>
      <trkpt lat="49.60848" lon="1.52745">
        <ele>141</ele>
        <time>2009-05-08T14:33:54Z</time>
      </trkpt>
      <trkpt lat="49.60854" lon="1.52832">
        <ele>140</ele>
        <time>2009-05-08T14:34:05Z</time>
      </trkpt>
      <trkpt lat="49.60858" lon="1.52895">
        <ele>139</ele>
        <time>2009-05-08T14:34:11Z</time>
      </trkpt>
      <trkpt lat="49.60872" lon="1.5308">
        <ele>133</ele>
        <time>2009-05-08T14:34:25Z</time>
      </trkpt>
      <trkpt lat="49.60879" lon="1.53181">
        <ele>133</ele>
        <time>2009-05-08T14:34:37Z</time>
      </trkpt>
      <trkpt lat="49.60893" lon="1.53281">
        <ele>134</ele>
        <time>2009-05-08T14:34:56Z</time>
      </trkpt>
      <trkpt lat="49.60918" lon="1.53373">
        <ele>136</ele>
        <time>2009-05-08T14:35:15Z</time>
      </trkpt>
      <trkpt lat="49.60944" lon="1.53468">
        <ele>138</ele>
        <time>2009-05-08T14:35:36Z</time>
      </trkpt>
      <trkpt lat="49.60968" lon="1.53559">
        <ele>140</ele>
        <time>2009-05-08T14:35:56Z</time>
      </trkpt>
      <trkpt lat="49.60989" lon="1.53583">
        <ele>140</ele>
        <time>2009-05-08T14:36:09Z</time>
      </trkpt>
      <trkpt lat="49.6103" lon="1.53559">
        <ele>139</ele>
        <time>2009-05-08T14:36:22Z</time>
      </trkpt>
      <trkpt lat="49.61095" lon="1.5353">
        <ele>138</ele>
        <time>2009-05-08T14:36:37Z</time>
      </trkpt>
      <trkpt lat="49.61147" lon="1.53508">
        <ele>141</ele>
        <time>2009-05-08T14:36:52Z</time>
      </trkpt>
      <trkpt lat="49.61206" lon="1.53479">
        <ele>146</ele>
        <time>2009-05-08T14:37:14Z</time>
      </trkpt>
      <trkpt lat="49.61265" lon="1.53451">
        <ele>149</ele>
        <time>2009-05-08T14:37:36Z</time>
      </trkpt>
      <trkpt lat="49.61319" lon="1.53418">
        <ele>154</ele>
        <time>2009-05-08T14:37:59Z</time>
      </trkpt>
      <trkpt lat="49.61331" lon="1.53411">
        <ele>155</ele>
        <time>2009-05-08T14:38:07Z</time>
      </trkpt>
      <trkpt lat="49.61335" lon="1.53408">
        <ele>155</ele>
        <time>2009-05-08T14:38:24Z</time>
      </trkpt>
      <trkpt lat="49.61336" lon="1.53405">
        <ele>155</ele>
        <time>2009-05-08T14:38:30Z</time>
      </trkpt>
      <trkpt lat="49.61358" lon="1.53362">
        <ele>153</ele>
        <time>2009-05-08T14:38:42Z</time>
      </trkpt>
      <trkpt lat="49.61387" lon="1.53288">
        <ele>152</ele>
        <time>2009-05-08T14:38:54Z</time>
      </trkpt>
      <trkpt lat="49.61389" lon="1.53281">
        <ele>152</ele>
        <time>2009-05-08T14:38:55Z</time>
      </trkpt>
      <trkpt lat="49.61401" lon="1.53262">
        <ele>151</ele>
        <time>2009-05-08T14:38:59Z</time>
      </trkpt>
      <trkpt lat="49.61413" lon="1.53257">
        <ele>151</ele>
        <time>2009-05-08T14:39:02Z</time>
      </trkpt>
      <trkpt lat="49.61458" lon="1.53244">
        <ele>148</ele>
        <time>2009-05-08T14:39:14Z</time>
      </trkpt>
      <trkpt lat="49.61492" lon="1.53238">
        <ele>153</ele>
        <time>2009-05-08T14:39:23Z</time>
      </trkpt>
      <trkpt lat="49.61541" lon="1.53229">
        <ele>160</ele>
        <time>2009-05-08T14:39:34Z</time>
      </trkpt>
      <trkpt lat="49.6157" lon="1.53226">
        <ele>160</ele>
        <time>2009-05-08T14:39:43Z</time>
      </trkpt>
      <trkpt lat="49.61614" lon="1.53227">
        <ele>161</ele>
        <time>2009-05-08T14:39:54Z</time>
      </trkpt>
      <trkpt lat="49.61657" lon="1.53233">
        <ele>158</ele>
        <time>2009-05-08T14:40:05Z</time>
      </trkpt>
      <trkpt lat="49.61704" lon="1.53242">
        <ele>156</ele>
        <time>2009-05-08T14:40:17Z</time>
      </trkpt>
      <trkpt lat="49.61729" lon="1.53248">
        <ele>157</ele>
        <time>2009-05-08T14:40:23Z</time>
      </trkpt>
      <trkpt lat="49.6177" lon="1.5326">
        <ele>157</ele>
        <time>2009-05-08T14:40:33Z</time>
      </trkpt>
      <trkpt lat="49.61795" lon="1.53269">
        <ele>158</ele>
        <time>2009-05-08T14:40:39Z</time>
      </trkpt>
      <trkpt lat="49.61832" lon="1.53289">
        <ele>160</ele>
        <time>2009-05-08T14:40:48Z</time>
      </trkpt>
      <trkpt lat="49.61882" lon="1.53323">
        <ele>153</ele>
        <time>2009-05-08T14:41:01Z</time>
      </trkpt>
      <trkpt lat="49.61909" lon="1.53341">
        <ele>151</ele>
        <time>2009-05-08T14:41:08Z</time>
      </trkpt>
      <trkpt lat="49.61952" lon="1.5338">
        <ele>150</ele>
        <time>2009-05-08T14:41:20Z</time>
      </trkpt>
      <trkpt lat="49.62001" lon="1.53419">
        <ele>153</ele>
        <time>2009-05-08T14:41:33Z</time>
      </trkpt>
      <trkpt lat="49.62005" lon="1.53422">
        <ele>154</ele>
        <time>2009-05-08T14:41:34Z</time>
      </trkpt>
      <trkpt lat="49.62027" lon="1.53442">
        <ele>154</ele>
        <time>2009-05-08T14:41:40Z</time>
      </trkpt>
      <trkpt lat="49.62063" lon="1.53468">
        <ele>155</ele>
        <time>2009-05-08T14:41:49Z</time>
      </trkpt>
      <trkpt lat="49.62093" lon="1.53492">
        <ele>154</ele>
        <time>2009-05-08T14:41:57Z</time>
      </trkpt>
      <trkpt lat="49.62142" lon="1.53531">
        <ele>155</ele>
        <time>2009-05-08T14:42:10Z</time>
      </trkpt>
      <trkpt lat="49.62184" lon="1.53567">
        <ele>155</ele>
        <time>2009-05-08T14:42:22Z</time>
      </trkpt>
      <trkpt lat="49.62233" lon="1.53607">
        <ele>156</ele>
        <time>2009-05-08T14:42:36Z</time>
      </trkpt>
      <trkpt lat="49.62269" lon="1.53635">
        <ele>157</ele>
        <time>2009-05-08T14:42:46Z</time>
      </trkpt>
      <trkpt lat="49.62315" lon="1.53668">
        <ele>159</ele>
        <time>2009-05-08T14:43:01Z</time>
      </trkpt>
      <trkpt lat="49.62338" lon="1.53671">
        <ele>160</ele>
        <time>2009-05-08T14:43:11Z</time>
      </trkpt>
      <trkpt lat="49.62336" lon="1.53673">
        <ele>160</ele>
        <time>2009-05-08T14:43:57Z</time>
      </trkpt>
      <trkpt lat="49.62368" lon="1.53693">
        <ele>163</ele>
        <time>2009-05-08T14:44:11Z</time>
      </trkpt>
      <trkpt lat="49.6242" lon="1.5373">
        <ele>167</ele>
        <time>2009-05-08T14:44:30Z</time>
      </trkpt>
      <trkpt lat="49.62466" lon="1.53766">
        <ele>170</ele>
        <time>2009-05-08T14:44:49Z</time>
      </trkpt>
      <trkpt lat="49.62481" lon="1.53788">
        <ele>170</ele>
        <time>2009-05-08T14:44:58Z</time>
      </trkpt>
      <trkpt lat="49.62517" lon="1.53789">
        <ele>169</ele>
        <time>2009-05-08T14:45:10Z</time>
      </trkpt>
      <trkpt lat="49.62617" lon="1.5378">
        <ele>172</ele>
        <time>2009-05-08T14:45:36Z</time>
      </trkpt>
      <trkpt lat="49.62707" lon="1.53766">
        <ele>173</ele>
        <time>2009-05-08T14:45:59Z</time>
      </trkpt>
      <trkpt lat="49.62773" lon="1.53752">
        <ele>174</ele>
        <time>2009-05-08T14:46:18Z</time>
      </trkpt>
      <trkpt lat="49.62825" lon="1.53739">
        <ele>175</ele>
        <time>2009-05-08T14:46:34Z</time>
      </trkpt>
      <trkpt lat="49.62897" lon="1.53725">
        <ele>173</ele>
        <time>2009-05-08T14:46:52Z</time>
      </trkpt>
      <trkpt lat="49.62977" lon="1.53752">
        <ele>172</ele>
        <time>2009-05-08T14:47:07Z</time>
      </trkpt>
      <trkpt lat="49.6309" lon="1.53821">
        <ele>170</ele>
        <time>2009-05-08T14:47:28Z</time>
      </trkpt>
      <trkpt lat="49.63192" lon="1.53884">
        <ele>169</ele>
        <time>2009-05-08T14:47:46Z</time>
      </trkpt>
      <trkpt lat="49.63291" lon="1.53943">
        <ele>167</ele>
        <time>2009-05-08T14:48:05Z</time>
      </trkpt>
      <trkpt lat="49.63403" lon="1.5401">
        <ele>166</ele>
        <time>2009-05-08T14:48:25Z</time>
      </trkpt>
      <trkpt lat="49.63462" lon="1.54033">
        <ele>164</ele>
        <time>2009-05-08T14:48:36Z</time>
      </trkpt>
      <trkpt lat="49.63474" lon="1.54045">
        <ele>163</ele>
        <time>2009-05-08T14:48:41Z</time>
      </trkpt>
      <trkpt lat="49.63484" lon="1.54096">
        <ele>163</ele>
        <time>2009-05-08T14:48:51Z</time>
      </trkpt>
      <trkpt lat="49.63492" lon="1.54176">
        <ele>163</ele>
        <time>2009-05-08T14:49:05Z</time>
      </trkpt>
      <trkpt lat="49.63489" lon="1.5421">
        <ele>161</ele>
        <time>2009-05-08T14:49:11Z</time>
      </trkpt>
      <trkpt lat="49.63479" lon="1.54223">
        <ele>161</ele>
        <time>2009-05-08T14:49:19Z</time>
      </trkpt>
      <trkpt lat="49.63481" lon="1.54233">
        <ele>161</ele>
        <time>2009-05-08T14:49:24Z</time>
      </trkpt>
      <trkpt lat="49.63484" lon="1.54224">
        <ele>160</ele>
        <time>2009-05-08T14:49:28Z</time>
      </trkpt>
      <trkpt lat="49.63495" lon="1.54172">
        <ele>159</ele>
        <time>2009-05-08T14:49:40Z</time>
      </trkpt>
      <trkpt lat="49.63496" lon="1.54161">
        <ele>158</ele>
        <time>2009-05-08T14:49:42Z</time>
      </trkpt>
      <trkpt lat="49.63514" lon="1.54165">
        <ele>159</ele>
        <time>2009-05-08T14:49:49Z</time>
      </trkpt>
      <trkpt lat="49.63528" lon="1.54172">
        <ele>160</ele>
        <time>2009-05-08T14:49:53Z</time>
      </trkpt>
      <trkpt lat="49.63595" lon="1.54213">
        <ele>164</ele>
        <time>2009-05-08T14:50:12Z</time>
      </trkpt>
      <trkpt lat="49.63622" lon="1.54229">
        <ele>165</ele>
        <time>2009-05-08T14:50:19Z</time>
      </trkpt>
      <trkpt lat="49.63692" lon="1.54262">
        <ele>165</ele>
        <time>2009-05-08T14:50:35Z</time>
      </trkpt>
      <trkpt lat="49.63712" lon="1.54268">
        <ele>165</ele>
        <time>2009-05-08T14:50:39Z</time>
      </trkpt>
      <trkpt lat="49.63826" lon="1.5423">
        <ele>165</ele>
        <time>2009-05-08T14:50:59Z</time>
      </trkpt>
      <trkpt lat="49.63909" lon="1.54161">
        <ele>163</ele>
        <time>2009-05-08T14:51:15Z</time>
      </trkpt>
      <trkpt lat="49.63928" lon="1.54141">
        <ele>163</ele>
        <time>2009-05-08T14:51:19Z</time>
      </trkpt>
      <trkpt lat="49.63962" lon="1.54096">
        <ele>161</ele>
        <time>2009-05-08T14:51:27Z</time>
      </trkpt>
      <trkpt lat="49.63989" lon="1.54056">
        <ele>162</ele>
        <time>2009-05-08T14:51:35Z</time>
      </trkpt>
      <trkpt lat="49.64025" lon="1.54008">
        <ele>164</ele>
        <time>2009-05-08T14:51:44Z</time>
      </trkpt>
      <trkpt lat="49.64115" lon="1.53888">
        <ele>160</ele>
        <time>2009-05-08T14:52:04Z</time>
      </trkpt>
      <trkpt lat="49.64188" lon="1.53784">
        <ele>159</ele>
        <time>2009-05-08T14:52:22Z</time>
      </trkpt>
      <trkpt lat="49.64229" lon="1.5372">
        <ele>159</ele>
        <time>2009-05-08T14:52:37Z</time>
      </trkpt>
      <trkpt lat="49.64239" lon="1.53688">
        <ele>160</ele>
        <time>2009-05-08T14:52:47Z</time>
      </trkpt>
      <trkpt lat="49.64244" lon="1.53681">
        <ele>160</ele>
        <time>2009-05-08T14:52:49Z</time>
      </trkpt>
      <trkpt lat="49.64302" lon="1.53606">
        <ele>159</ele>
        <time>2009-05-08T14:53:07Z</time>
      </trkpt>
      <trkpt lat="49.64371" lon="1.53514">
        <ele>158</ele>
        <time>2009-05-08T14:53:26Z</time>
      </trkpt>
      <trkpt lat="49.64468" lon="1.53384">
        <ele>156</ele>
        <time>2009-05-08T14:53:49Z</time>
      </trkpt>
      <trkpt lat="49.64519" lon="1.53303">
        <ele>155</ele>
        <time>2009-05-08T14:54:03Z</time>
      </trkpt>
      <trkpt lat="49.64547" lon="1.53239">
        <ele>154</ele>
        <time>2009-05-08T14:54:13Z</time>
      </trkpt>
      <trkpt lat="49.64574" lon="1.5324">
        <ele>153</ele>
        <time>2009-05-08T14:54:20Z</time>
      </trkpt>
      <trkpt lat="49.64579" lon="1.53236">
        <ele>153</ele>
        <time>2009-05-08T14:54:22Z</time>
      </trkpt>
      <trkpt lat="49.64622" lon="1.53152">
        <ele>153</ele>
        <time>2009-05-08T14:54:37Z</time>
      </trkpt>
      <trkpt lat="49.64674" lon="1.53007">
        <ele>151</ele>
        <time>2009-05-08T14:54:56Z</time>
      </trkpt>
      <trkpt lat="49.6472" lon="1.52801">
        <ele>151</ele>
        <time>2009-05-08T14:55:19Z</time>
      </trkpt>
      <trkpt lat="49.64736" lon="1.52672">
        <ele>150</ele>
        <time>2009-05-08T14:55:36Z</time>
      </trkpt>
      <trkpt lat="49.64739" lon="1.52644">
        <ele>150</ele>
        <time>2009-05-08T14:55:41Z</time>
      </trkpt>
      <trkpt lat="49.64754" lon="1.52506">
        <ele>148</ele>
        <time>2009-05-08T14:55:59Z</time>
      </trkpt>
      <trkpt lat="49.64777" lon="1.52308">
        <ele>147</ele>
        <time>2009-05-08T14:56:21Z</time>
      </trkpt>
      <trkpt lat="49.64809" lon="1.52146">
        <ele>146</ele>
        <time>2009-05-08T14:56:38Z</time>
      </trkpt>
      <trkpt lat="49.6486" lon="1.51973">
        <ele>145</ele>
        <time>2009-05-08T14:56:58Z</time>
      </trkpt>
      <trkpt lat="49.6494" lon="1.51786">
        <ele>143</ele>
        <time>2009-05-08T14:57:20Z</time>
      </trkpt>
      <trkpt lat="49.6497" lon="1.51732">
        <ele>142</ele>
        <time>2009-05-08T14:57:27Z</time>
      </trkpt>
      <trkpt lat="49.65042" lon="1.51612">
        <ele>141</ele>
        <time>2009-05-08T14:57:44Z</time>
      </trkpt>
      <trkpt lat="49.6509" lon="1.5155">
        <ele>141</ele>
        <time>2009-05-08T14:57:57Z</time>
      </trkpt>
      <trkpt lat="49.65164" lon="1.5146">
        <ele>140</ele>
        <time>2009-05-08T14:58:13Z</time>
      </trkpt>
      <trkpt lat="49.65275" lon="1.51322">
        <ele>140</ele>
        <time>2009-05-08T14:58:36Z</time>
      </trkpt>
      <trkpt lat="49.65373" lon="1.51202">
        <ele>137</ele>
        <time>2009-05-08T14:58:55Z</time>
      </trkpt>
      <trkpt lat="49.6546" lon="1.51114">
        <ele>135</ele>
        <time>2009-05-08T14:59:11Z</time>
      </trkpt>
      <trkpt lat="49.65588" lon="1.51017">
        <ele>133</ele>
        <time>2009-05-08T14:59:32Z</time>
      </trkpt>
      <trkpt lat="49.65707" lon="1.50961">
        <ele>130</ele>
        <time>2009-05-08T14:59:49Z</time>
      </trkpt>
      <trkpt lat="49.65839" lon="1.50925">
        <ele>129</ele>
        <time>2009-05-08T15:00:07Z</time>
      </trkpt>
      <trkpt lat="49.65972" lon="1.509">
        <ele>129</ele>
        <time>2009-05-08T15:00:25Z</time>
      </trkpt>
      <trkpt lat="49.66147" lon="1.50867">
        <ele>126</ele>
        <time>2009-05-08T15:00:49Z</time>
      </trkpt>
      <trkpt lat="49.66241" lon="1.50848">
        <ele>125</ele>
        <time>2009-05-08T15:01:04Z</time>
      </trkpt>
      <trkpt lat="49.66299" lon="1.50838">
        <ele>124</ele>
        <time>2009-05-08T15:01:15Z</time>
      </trkpt>
      <trkpt lat="49.66402" lon="1.50817">
        <ele>123</ele>
        <time>2009-05-08T15:01:31Z</time>
      </trkpt>
      <trkpt lat="49.66504" lon="1.50798">
        <ele>123</ele>
        <time>2009-05-08T15:01:47Z</time>
      </trkpt>
      <trkpt lat="49.66598" lon="1.50783">
        <ele>122</ele>
        <time>2009-05-08T15:02:01Z</time>
      </trkpt>
      <trkpt lat="49.66692" lon="1.50781">
        <ele>121</ele>
        <time>2009-05-08T15:02:15Z</time>
      </trkpt>
      <trkpt lat="49.66711" lon="1.50781">
        <ele>121</ele>
        <time>2009-05-08T15:02:18Z</time>
      </trkpt>
      <trkpt lat="49.66832" lon="1.50797">
        <ele>119</ele>
        <time>2009-05-08T15:02:35Z</time>
      </trkpt>
      <trkpt lat="49.66988" lon="1.50811">
        <ele>118</ele>
        <time>2009-05-08T15:02:56Z</time>
      </trkpt>
      <trkpt lat="49.67137" lon="1.5078">
        <ele>116</ele>
        <time>2009-05-08T15:03:16Z</time>
      </trkpt>
      <trkpt lat="49.67268" lon="1.50733">
        <ele>114</ele>
        <time>2009-05-08T15:03:34Z</time>
      </trkpt>
      <trkpt lat="49.67425" lon="1.5068">
        <ele>112</ele>
        <time>2009-05-08T15:03:56Z</time>
      </trkpt>
      <trkpt lat="49.67491" lon="1.50656">
        <ele>110</ele>
        <time>2009-05-08T15:04:07Z</time>
      </trkpt>
      <trkpt lat="49.67503" lon="1.50654">
        <ele>110</ele>
        <time>2009-05-08T15:04:09Z</time>
      </trkpt>
      <trkpt lat="49.67587" lon="1.50623">
        <ele>109</ele>
        <time>2009-05-08T15:04:24Z</time>
      </trkpt>
      <trkpt lat="49.67706" lon="1.50583">
        <ele>109</ele>
        <time>2009-05-08T15:04:41Z</time>
      </trkpt>
      <trkpt lat="49.67815" lon="1.50536">
        <ele>108</ele>
        <time>2009-05-08T15:04:59Z</time>
      </trkpt>
      <trkpt lat="49.67925" lon="1.5045">
        <ele>107</ele>
        <time>2009-05-08T15:05:18Z</time>
      </trkpt>
      <trkpt lat="49.6796" lon="1.50416">
        <ele>105</ele>
        <time>2009-05-08T15:05:28Z</time>
      </trkpt>
      <trkpt lat="49.6798" lon="1.50387">
        <ele>104</ele>
        <time>2009-05-08T15:05:38Z</time>
      </trkpt>
      <trkpt lat="49.6805" lon="1.50302">
        <ele>103</ele>
        <time>2009-05-08T15:05:53Z</time>
      </trkpt>
      <trkpt lat="49.68155" lon="1.50198">
        <ele>104</ele>
        <time>2009-05-08T15:06:10Z</time>
      </trkpt>
      <trkpt lat="49.68288" lon="1.50129">
        <ele>103</ele>
        <time>2009-05-08T15:06:28Z</time>
      </trkpt>
      <trkpt lat="49.68416" lon="1.50116">
        <ele>103</ele>
        <time>2009-05-08T15:06:45Z</time>
      </trkpt>
      <trkpt lat="49.68526" lon="1.50127">
        <ele>103</ele>
        <time>2009-05-08T15:06:59Z</time>
      </trkpt>
      <trkpt lat="49.68662" lon="1.5014">
        <ele>103</ele>
        <time>2009-05-08T15:07:17Z</time>
      </trkpt>
      <trkpt lat="49.68765" lon="1.50129">
        <ele>101</ele>
        <time>2009-05-08T15:07:31Z</time>
      </trkpt>
      <trkpt lat="49.68899" lon="1.50073">
        <ele>100</ele>
        <time>2009-05-08T15:07:49Z</time>
      </trkpt>
      <trkpt lat="49.69029" lon="1.49975">
        <ele>99</ele>
        <time>2009-05-08T15:08:09Z</time>
      </trkpt>
      <trkpt lat="49.69169" lon="1.49864">
        <ele>98</ele>
        <time>2009-05-08T15:08:30Z</time>
      </trkpt>
      <trkpt lat="49.69298" lon="1.49765">
        <ele>97</ele>
        <time>2009-05-08T15:08:49Z</time>
      </trkpt>
      <trkpt lat="49.69404" lon="1.49702">
        <ele>95</ele>
        <time>2009-05-08T15:09:07Z</time>
      </trkpt>
      <trkpt lat="49.6942" lon="1.49694">
        <ele>95</ele>
        <time>2009-05-08T15:09:10Z</time>
      </trkpt>
      <trkpt lat="49.69435" lon="1.49686">
        <ele>95</ele>
        <time>2009-05-08T15:09:13Z</time>
      </trkpt>
      <trkpt lat="49.69449" lon="1.49675">
        <ele>95</ele>
        <time>2009-05-08T15:09:16Z</time>
      </trkpt>
      <trkpt lat="49.69543" lon="1.49623">
        <ele>94</ele>
        <time>2009-05-08T15:09:32Z</time>
      </trkpt>
      <trkpt lat="49.69655" lon="1.49559">
        <ele>94</ele>
        <time>2009-05-08T15:09:50Z</time>
      </trkpt>
      <trkpt lat="49.69788" lon="1.49466">
        <ele>94</ele>
        <time>2009-05-08T15:10:11Z</time>
      </trkpt>
      <trkpt lat="49.69907" lon="1.49346">
        <ele>93</ele>
        <time>2009-05-08T15:10:34Z</time>
      </trkpt>
      <trkpt lat="49.69931" lon="1.49314">
        <ele>93</ele>
        <time>2009-05-08T15:10:40Z</time>
      </trkpt>
      <trkpt lat="49.69938" lon="1.49303">
        <ele>93</ele>
        <time>2009-05-08T15:10:42Z</time>
      </trkpt>
      <trkpt lat="49.69994" lon="1.49222">
        <ele>94</ele>
        <time>2009-05-08T15:10:56Z</time>
      </trkpt>
      <trkpt lat="49.70049" lon="1.49128">
        <ele>95</ele>
        <time>2009-05-08T15:11:11Z</time>
      </trkpt>
      <trkpt lat="49.70101" lon="1.49021">
        <ele>95</ele>
        <time>2009-05-08T15:11:27Z</time>
      </trkpt>
      <trkpt lat="49.70153" lon="1.48887">
        <ele>96</ele>
        <time>2009-05-08T15:11:45Z</time>
      </trkpt>
      <trkpt lat="49.70225" lon="1.48681">
        <ele>97</ele>
        <time>2009-05-08T15:12:10Z</time>
      </trkpt>
      <trkpt lat="49.70293" lon="1.48493">
        <ele>97</ele>
        <time>2009-05-08T15:12:32Z</time>
      </trkpt>
      <trkpt lat="49.70345" lon="1.48343">
        <ele>97</ele>
        <time>2009-05-08T15:12:49Z</time>
      </trkpt>
      <trkpt lat="49.70413" lon="1.48154">
        <ele>96</ele>
        <time>2009-05-08T15:13:10Z</time>
      </trkpt>
      <trkpt lat="49.70479" lon="1.47971">
        <ele>96</ele>
        <time>2009-05-08T15:13:30Z</time>
      </trkpt>
      <trkpt lat="49.70485" lon="1.47954">
        <ele>95</ele>
        <time>2009-05-08T15:13:32Z</time>
      </trkpt>
      <trkpt lat="49.70504" lon="1.47901">
        <ele>95</ele>
        <time>2009-05-08T15:13:39Z</time>
      </trkpt>
      <trkpt lat="49.7051" lon="1.47882">
        <ele>95</ele>
        <time>2009-05-08T15:13:42Z</time>
      </trkpt>
      <trkpt lat="49.70546" lon="1.47745">
        <ele>94</ele>
        <time>2009-05-08T15:13:59Z</time>
      </trkpt>
      <trkpt lat="49.70575" lon="1.47599">
        <ele>92</ele>
        <time>2009-05-08T15:14:18Z</time>
      </trkpt>
      <trkpt lat="49.70603" lon="1.47443">
        <ele>92</ele>
        <time>2009-05-08T15:14:37Z</time>
      </trkpt>
      <trkpt lat="49.70621" lon="1.47349">
        <ele>92</ele>
        <time>2009-05-08T15:14:52Z</time>
      </trkpt>
      <trkpt lat="49.70636" lon="1.47267">
        <ele>92</ele>
        <time>2009-05-08T15:15:08Z</time>
      </trkpt>
      <trkpt lat="49.70655" lon="1.47162">
        <ele>92</ele>
        <time>2009-05-08T15:15:26Z</time>
      </trkpt>
      <trkpt lat="49.7068" lon="1.47045">
        <ele>92</ele>
        <time>2009-05-08T15:15:44Z</time>
      </trkpt>
      <trkpt lat="49.70735" lon="1.46894">
        <ele>92</ele>
        <time>2009-05-08T15:16:05Z</time>
      </trkpt>
      <trkpt lat="49.70815" lon="1.46765">
        <ele>93</ele>
        <time>2009-05-08T15:16:26Z</time>
      </trkpt>
      <trkpt lat="49.70916" lon="1.46672">
        <ele>93</ele>
        <time>2009-05-08T15:16:46Z</time>
      </trkpt>
      <trkpt lat="49.71047" lon="1.46592">
        <ele>94</ele>
        <time>2009-05-08T15:17:10Z</time>
      </trkpt>
      <trkpt lat="49.71141" lon="1.46529">
        <ele>94</ele>
        <time>2009-05-08T15:17:28Z</time>
      </trkpt>
      <trkpt lat="49.71246" lon="1.46436">
        <ele>93</ele>
        <time>2009-05-08T15:17:50Z</time>
      </trkpt>
      <trkpt lat="49.71337" lon="1.46324">
        <ele>94</ele>
        <time>2009-05-08T15:18:11Z</time>
      </trkpt>
      <trkpt lat="49.71428" lon="1.46178">
        <ele>93</ele>
        <time>2009-05-08T15:18:34Z</time>
      </trkpt>
      <trkpt lat="49.71516" lon="1.45991">
        <ele>92</ele>
        <time>2009-05-08T15:19:00Z</time>
      </trkpt>
      <trkpt lat="49.7159" lon="1.4583">
        <ele>90</ele>
        <time>2009-05-08T15:19:22Z</time>
      </trkpt>
      <trkpt lat="49.7163" lon="1.45752">
        <ele>90</ele>
        <time>2009-05-08T15:19:37Z</time>
      </trkpt>
      <trkpt lat="49.71643" lon="1.45725">
        <ele>90</ele>
        <time>2009-05-08T15:19:42Z</time>
      </trkpt>
      <trkpt lat="49.71719" lon="1.45612">
        <ele>89</ele>
        <time>2009-05-08T15:20:02Z</time>
      </trkpt>
      <trkpt lat="49.7183" lon="1.45487">
        <ele>87</ele>
        <time>2009-05-08T15:20:25Z</time>
      </trkpt>
      <trkpt lat="49.7194" lon="1.45354">
        <ele>86</ele>
        <time>2009-05-08T15:20:48Z</time>
      </trkpt>
      <trkpt lat="49.72039" lon="1.45186">
        <ele>85</ele>
        <time>2009-05-08T15:21:13Z</time>
      </trkpt>
      <trkpt lat="49.7211" lon="1.45014">
        <ele>84</ele>
        <time>2009-05-08T15:21:36Z</time>
      </trkpt>
      <trkpt lat="49.72153" lon="1.44867">
        <ele>83</ele>
        <time>2009-05-08T15:21:55Z</time>
      </trkpt>
      <trkpt lat="49.72155" lon="1.44861">
        <ele>83</ele>
        <time>2009-05-08T15:21:56Z</time>
      </trkpt>
      <trkpt lat="49.7216" lon="1.44843">
        <ele>83</ele>
        <time>2009-05-08T15:21:59Z</time>
      </trkpt>
      <trkpt lat="49.7219" lon="1.44726">
        <ele>82</ele>
        <time>2009-05-08T15:22:15Z</time>
      </trkpt>
      <trkpt lat="49.72242" lon="1.44537">
        <ele>81</ele>
        <time>2009-05-08T15:22:38Z</time>
      </trkpt>
      <trkpt lat="49.72273" lon="1.44409">
        <ele>82</ele>
        <time>2009-05-08T15:22:54Z</time>
      </trkpt>
      <trkpt lat="49.72323" lon="1.44228">
        <ele>83</ele>
        <time>2009-05-08T15:23:17Z</time>
      </trkpt>
      <trkpt lat="49.72382" lon="1.44027">
        <ele>83</ele>
        <time>2009-05-08T15:23:43Z</time>
      </trkpt>
      <trkpt lat="49.72439" lon="1.43912">
        <ele>84</ele>
        <time>2009-05-08T15:23:59Z</time>
      </trkpt>
      <trkpt lat="49.72502" lon="1.43829">
        <ele>84</ele>
        <time>2009-05-08T15:24:12Z</time>
      </trkpt>
      <trkpt lat="49.72575" lon="1.43765">
        <ele>83</ele>
        <time>2009-05-08T15:24:25Z</time>
      </trkpt>
      <trkpt lat="49.72605" lon="1.43742">
        <ele>82</ele>
        <time>2009-05-08T15:24:33Z</time>
      </trkpt>
      <trkpt lat="49.72676" lon="1.4371">
        <ele>81</ele>
        <time>2009-05-08T15:24:46Z</time>
      </trkpt>
      <trkpt lat="49.72782" lon="1.43697">
        <ele>79</ele>
        <time>2009-05-08T15:25:04Z</time>
      </trkpt>
      <trkpt lat="49.72899" lon="1.43709">
        <ele>78</ele>
        <time>2009-05-08T15:25:23Z</time>
      </trkpt>
      <trkpt lat="49.73026" lon="1.43722">
        <ele>76</ele>
        <time>2009-05-08T15:25:45Z</time>
      </trkpt>
      <trkpt lat="49.73037" lon="1.43726">
        <ele>76</ele>
        <time>2009-05-08T15:25:47Z</time>
      </trkpt>
      <trkpt lat="49.73073" lon="1.43729">
        <ele>75</ele>
        <time>2009-05-08T15:25:54Z</time>
      </trkpt>
      <trkpt lat="49.73149" lon="1.4372">
        <ele>75</ele>
        <time>2009-05-08T15:26:09Z</time>
      </trkpt>
      <trkpt lat="49.73175" lon="1.43713">
        <ele>75</ele>
        <time>2009-05-08T15:26:18Z</time>
      </trkpt>
      <trkpt lat="49.73199" lon="1.43702">
        <ele>76</ele>
        <time>2009-05-08T15:26:31Z</time>
      </trkpt>
      <trkpt lat="49.73272" lon="1.43653">
        <ele>76</ele>
        <time>2009-05-08T15:26:46Z</time>
      </trkpt>
      <trkpt lat="49.73372" lon="1.43546">
        <ele>76</ele>
        <time>2009-05-08T15:27:04Z</time>
      </trkpt>
      <trkpt lat="49.73433" lon="1.43472">
        <ele>76</ele>
        <time>2009-05-08T15:27:18Z</time>
      </trkpt>
      <trkpt lat="49.73509" lon="1.4339">
        <ele>76</ele>
        <time>2009-05-08T15:27:37Z</time>
      </trkpt>
      <trkpt lat="49.73533" lon="1.43361">
        <ele>76</ele>
        <time>2009-05-08T15:27:50Z</time>
      </trkpt>
      <trkpt lat="49.73536" lon="1.43357">
        <ele>75</ele>
        <time>2009-05-08T15:28:13Z</time>
      </trkpt>
      <trkpt lat="49.73536" lon="1.43355">
        <ele>74</ele>
        <time>2009-05-08T15:28:29Z</time>
      </trkpt>
      <trkpt lat="49.73535" lon="1.43354">
        <ele>74</ele>
        <time>2009-05-08T15:28:40Z</time>
      </trkpt>
      <trkpt lat="49.73528" lon="1.43347">
        <ele>76</ele>
        <time>2009-05-08T15:28:46Z</time>
      </trkpt>
      <trkpt lat="49.73501" lon="1.43337">
        <ele>78</ele>
        <time>2009-05-08T15:29:01Z</time>
      </trkpt>
      <trkpt lat="49.73496" lon="1.43352">
        <ele>78</ele>
        <time>2009-05-08T15:29:09Z</time>
      </trkpt>
      <trkpt lat="49.73493" lon="1.43355">
        <ele>89</ele>
        <time>2009-05-08T15:30:09Z</time>
      </trkpt>
      <trkpt lat="49.73498" lon="1.43359">
        <ele>90</ele>
        <time>2009-05-08T15:30:26Z</time>
      </trkpt>
      <trkpt lat="49.73502" lon="1.43356">
        <ele>84</ele>
        <time>2009-05-08T15:30:36Z</time>
      </trkpt>
      <trkpt lat="49.735" lon="1.4335">
        <ele>73</ele>
        <time>2009-05-08T15:32:50Z</time>
      </trkpt>
      <trkpt lat="49.73498" lon="1.43363">
        <ele>71</ele>
        <time>2009-05-08T15:33:18Z</time>
      </trkpt>
      <trkpt lat="49.73498" lon="1.43354">
        <ele>81</ele>
        <time>2009-05-08T15:33:58Z</time>
      </trkpt>
      <trkpt lat="49.735" lon="1.43351">
        <ele>82</ele>
        <time>2009-05-08T15:34:02Z</time>
      </trkpt>
      <trkpt lat="49.73507" lon="1.43347">
        <ele>83</ele>
        <time>2009-05-08T15:34:07Z</time>
      </trkpt>
      <trkpt lat="49.7351" lon="1.43344">
        <ele>81</ele>
        <time>2009-05-08T15:34:18Z</time>
      </trkpt>
      <trkpt lat="49.7351" lon="1.43336">
        <ele>76</ele>
        <time>2009-05-08T15:45:37Z</time>
      </trkpt>
      <trkpt lat="49.73513" lon="1.43341">
        <ele>82</ele>
        <time>2009-05-08T15:53:08Z</time>
      </trkpt>
      <trkpt lat="49.7354" lon="1.43345">
        <ele>81</ele>
        <time>2009-05-08T15:53:19Z</time>
      </trkpt>
      <trkpt lat="49.73544" lon="1.43342">
        <ele>81</ele>
        <time>2009-05-08T15:53:20Z</time>
      </trkpt>
      <trkpt lat="49.73587" lon="1.43275">
        <ele>79</ele>
        <time>2009-05-08T15:53:34Z</time>
      </trkpt>
      <trkpt lat="49.73641" lon="1.43192">
        <ele>79</ele>
        <time>2009-05-08T15:53:53Z</time>
      </trkpt>
      <trkpt lat="49.73643" lon="1.43186">
        <ele>78</ele>
        <time>2009-05-08T15:53:55Z</time>
      </trkpt>
      <trkpt lat="49.73637" lon="1.4314">
        <ele>77</ele>
        <time>2009-05-08T15:54:04Z</time>
      </trkpt>
      <trkpt lat="49.7364" lon="1.43135">
        <ele>77</ele>
        <time>2009-05-08T15:54:05Z</time>
      </trkpt>
      <trkpt lat="49.73699" lon="1.43023">
        <ele>76</ele>
        <time>2009-05-08T15:54:23Z</time>
      </trkpt>
      <trkpt lat="49.73738" lon="1.4294">
        <ele>77</ele>
        <time>2009-05-08T15:54:39Z</time>
      </trkpt>
      <trkpt lat="49.73772" lon="1.42861">
        <ele>78</ele>
        <time>2009-05-08T15:54:56Z</time>
      </trkpt>
      <trkpt lat="49.73782" lon="1.42834">
        <ele>78</ele>
        <time>2009-05-08T15:55:02Z</time>
      </trkpt>
      <trkpt lat="49.73781" lon="1.42819">
        <ele>78</ele>
        <time>2009-05-08T15:55:06Z</time>
      </trkpt>
      <trkpt lat="49.73775" lon="1.42811">
        <ele>78</ele>
        <time>2009-05-08T15:55:10Z</time>
      </trkpt>
      <trkpt lat="49.73773" lon="1.42806">
        <ele>77</ele>
        <time>2009-05-08T15:55:29Z</time>
      </trkpt>
      <trkpt lat="49.73772" lon="1.42805">
        <ele>77</ele>
        <time>2009-05-08T15:55:52Z</time>
      </trkpt>
      <trkpt lat="49.73765" lon="1.42805">
        <ele>79</ele>
        <time>2009-05-08T15:57:04Z</time>
      </trkpt>
      <trkpt lat="49.73759" lon="1.42805">
        <ele>78</ele>
        <time>2009-05-08T15:57:11Z</time>
      </trkpt>
      <trkpt lat="49.73743" lon="1.42806">
        <ele>76</ele>
        <time>2009-05-08T15:57:28Z</time>
      </trkpt>
      <trkpt lat="49.7374" lon="1.42813">
        <ele>78</ele>
        <time>2009-05-08T16:00:05Z</time>
      </trkpt>
      <trkpt lat="49.7374" lon="1.42814">
        <ele>78</ele>
        <time>2009-05-08T16:00:07Z</time>
      </trkpt>
      <trkpt lat="49.73741" lon="1.4282">
        <ele>77</ele>
        <time>2009-05-08T16:00:22Z</time>
      </trkpt>
      <trkpt lat="49.73742" lon="1.4282">
        <ele>77</ele>
        <time>2009-05-08T16:00:43Z</time>
      </trkpt>
      <trkpt lat="49.73743" lon="1.42818">
        <ele>74</ele>
        <time>2009-05-08T16:06:59Z</time>
      </trkpt>
      <trkpt lat="49.73746" lon="1.42823">
        <ele>75</ele>
        <time>2009-05-08T16:07:10Z</time>
      </trkpt>
      <trkpt lat="49.73742" lon="1.42817">
        <ele>75</ele>
        <time>2009-05-08T16:07:26Z</time>
      </trkpt>
      <trkpt lat="49.73743" lon="1.42796">
        <ele>74</ele>
        <time>2009-05-08T16:07:43Z</time>
      </trkpt>
      <trkpt lat="49.73745" lon="1.42783">
        <ele>72</ele>
        <time>2009-05-08T16:07:58Z</time>
      </trkpt>
      <trkpt lat="49.73746" lon="1.4278">
        <ele>72</ele>
        <time>2009-05-08T16:08:06Z</time>
      </trkpt>
    </trkseg>
  </trk>
</gpx>